Time,TemperatureF,DewpointF,PressureIn,WindDirection,WindDirectionDegrees,WindSpeedMPH,WindSpeedGustMPH,Humidity,HourlyPrecipIn,Conditions,Clouds,dailyrainin,SoftwareType,DateUTC
2013-05-25 00:00:00,64.0,52.8,30.22,ESE,121,4.0,6.0,67,0.00,,---,0.00,VWS V14.00,2013-05-25 05:00:00,
2013-05-25 00:01:00,64.0,52.4,30.22,ESE,121,6.0,6.0,66,0.00,,---,0.00,VWS V14.00,2013-05-25 05:01:00,
2013-05-25 00:02:00,64.0,52.8,30.22,ESE,122,4.0,7.0,67,0.00,,---,0.00,VWS V14.00,2013-05-25 05:02:00,
2013-05-25 00:03:00,64.0,53.6,30.22,ESE,122,3.0,4.0,69,0.00,,---,0.00,VWS V14.00,2013-05-25 05:03:00,
2013-05-25 00:04:00,63.9,53.1,30.22,ESE,122,5.0,5.0,68,0.00,,---,0.00,VWS V14.00,2013-05-25 05:04:00,
2013-05-25 00:05:00,63.9,53.1,30.22,ESE,122,2.0,5.0,68,0.00,,---,0.00,VWS V14.00,2013-05-25 05:05:00,
2013-05-25 00:06:00,63.9,53.1,30.22,ESE,122,5.0,5.0,68,0.00,,---,0.00,VWS V14.00,2013-05-25 05:06:00,
2013-05-25 00:07:00,63.9,52.3,30.22,ESE,122,4.0,5.0,66,0.00,,---,0.00,VWS V14.00,2013-05-25 05:07:00,
2013-05-25 00:08:00,63.9,53.1,30.22,ESE,122,0.0,5.0,68,0.00,,---,0.00,VWS V14.00,2013-05-25 05:08:00,
2013-05-25 00:09:00,63.7,53.0,30.22,ESE,122,5.0,5.0,68,0.00,,---,0.00,VWS V14.00,2013-05-25 05:09:00,
2013-05-25 00:10:00,63.7,53.0,30.22,ESE,122,0.0,6.0,68,0.00,,---,0.00,VWS V14.00,2013-05-25 05:10:00,
2013-05-25 00:11:00,63.7,53.0,30.22,ESE,122,4.0,6.0,68,0.00,,---,0.00,VWS V14.00,2013-05-25 05:11:00,
2013-05-25 00:12:00,63.5,52.8,30.22,ESE,122,2.0,6.0,68,0.00,,---,0.00,VWS V14.00,2013-05-25 05:12:00,
2013-05-25 00:13:00,63.4,53.1,30.22,ESE,122,0.0,2.0,69,0.00,,---,0.00,VWS V14.00,2013-05-25 05:13:00,
2013-05-25 00:14:00,63.4,53.1,30.22,ESE,122,0.0,0.0,69,0.00,,---,0.00,VWS V14.00,2013-05-25 05:14:00,
2013-05-25 00:15:00,63.2,52.9,30.22,ESE,122,0.0,4.0,69,0.00,,---,0.00,VWS V14.00,2013-05-25 05:15:00,
2013-05-25 00:16:00,63.4,53.1,30.22,ESE,122,4.0,4.0,69,0.00,,---,0.00,VWS V14.00,2013-05-25 05:16:00,
2013-05-25 00:17:00,63.1,52.8,30.21,ESE,122,0.0,0.0,69,0.00,,---,0.00,VWS V14.00,2013-05-25 05:17:00,
2013-05-25 00:18:00,63.1,53.2,30.21,ESE,122,0.0,1.0,70,0.00,,---,0.00,VWS V14.00,2013-05-25 05:18:00,
2013-05-25 00:19:00,62.9,53.0,30.21,ESE,122,0.0,0.0,70,0.00,,---,0.00,VWS V14.00,2013-05-25 05:19:00,
2013-05-25 00:20:00,62.9,53.0,30.21,ESE,122,3.0,3.0,70,0.00,,---,0.00,VWS V14.00,2013-05-25 05:20:00,
2013-05-25 00:21:00,62.9,53.0,30.21,ESE,122,0.0,0.0,70,0.00,,---,0.00,VWS V14.00,2013-05-25 05:21:00,
2013-05-25 00:22:00,62.7,52.8,30.21,ESE,122,3.0,3.0,70,0.00,,---,0.00,VWS V14.00,2013-05-25 05:22:00,
2013-05-25 00:23:00,62.6,53.1,30.21,ESE,122,2.0,4.0,71,0.00,,---,0.00,VWS V14.00,2013-05-25 05:23:00,
2013-05-25 00:24:00,62.6,53.5,30.21,ESE,122,0.0,2.0,72,0.00,,---,0.00,VWS V14.00,2013-05-25 05:24:00,
2013-05-25 00:25:00,62.6,53.1,30.21,ESE,122,0.0,0.0,71,0.00,,---,0.00,VWS V14.00,2013-05-25 05:25:00,
2013-05-25 00:26:00,62.6,53.1,30.21,ESE,122,0.0,0.0,71,0.00,,---,0.00,VWS V14.00,2013-05-25 05:26:00,
2013-05-25 00:27:00,62.4,52.9,30.21,ESE,122,0.0,2.0,71,0.00,,---,0.00,VWS V14.00,2013-05-25 05:27:00,
2013-05-25 00:28:00,62.4,52.5,30.21,ESE,122,4.0,4.0,70,0.00,,---,0.00,VWS V14.00,2013-05-25 05:28:00,
2013-05-25 00:29:00,62.4,52.5,30.21,ESE,122,0.0,7.0,70,0.00,,---,0.00,VWS V14.00,2013-05-25 05:29:00,
2013-05-25 00:30:00,62.4,52.9,30.21,ESE,122,0.0,5.0,71,0.00,,---,0.00,VWS V14.00,2013-05-25 05:30:00,
2013-05-25 00:31:00,62.4,52.5,30.21,ESE,122,4.0,4.0,70,0.00,,---,0.00,VWS V14.00,2013-05-25 05:31:00,
2013-05-25 00:32:00,62.4,52.5,30.21,ESE,123,4.0,5.0,70,0.00,,---,0.00,VWS V14.00,2013-05-25 05:32:00,
2013-05-25 00:33:00,62.4,52.5,30.21,ESE,123,4.0,6.0,70,0.00,,---,0.00,VWS V14.00,2013-05-25 05:33:00,
2013-05-25 00:34:00,62.6,52.3,30.21,ESE,123,4.0,6.0,69,0.00,,---,0.00,VWS V14.00,2013-05-25 05:34:00,
2013-05-25 00:35:00,62.6,52.7,30.21,ESE,123,4.0,6.0,70,0.00,,---,0.00,VWS V14.00,2013-05-25 05:35:00,
2013-05-25 00:36:00,62.6,52.3,30.21,ESE,123,3.0,4.0,69,0.00,,---,0.00,VWS V14.00,2013-05-25 05:36:00,
2013-05-25 00:37:00,62.7,52.4,30.22,ESE,123,1.0,5.0,69,0.00,,---,0.00,VWS V14.00,2013-05-25 05:37:00,
2013-05-25 00:38:00,62.7,52.4,30.22,ESE,123,5.0,7.0,69,0.00,,---,0.00,VWS V14.00,2013-05-25 05:38:00,
2013-05-25 00:39:00,62.6,52.3,30.22,ESE,123,2.0,5.0,69,0.00,,---,0.00,VWS V14.00,2013-05-25 05:39:00,
2013-05-25 00:40:00,62.6,52.3,30.22,ESE,123,1.0,5.0,69,0.00,,---,0.00,VWS V14.00,2013-05-25 05:40:00,
2013-05-25 00:41:00,62.6,52.3,30.22,ESE,123,3.0,4.0,69,0.00,,---,0.00,VWS V14.00,2013-05-25 05:41:00,
2013-05-25 00:42:00,62.6,52.3,30.22,ESE,123,0.0,1.0,69,0.00,,---,0.00,VWS V14.00,2013-05-25 05:42:00,
2013-05-25 00:43:00,62.6,52.3,30.22,ESE,123,7.0,7.0,69,0.00,,---,0.00,VWS V14.00,2013-05-25 05:43:00,
2013-05-25 00:44:00,62.6,51.9,30.22,ESE,123,5.0,9.0,68,0.00,,---,0.00,VWS V14.00,2013-05-25 05:44:00,
2013-05-25 00:45:00,62.6,52.3,30.22,ESE,123,2.0,6.0,69,0.00,,---,0.00,VWS V14.00,2013-05-25 05:45:00,
2013-05-25 00:46:00,62.6,51.9,30.22,ESE,123,6.0,6.0,68,0.00,,---,0.00,VWS V14.00,2013-05-25 05:46:00,
2013-05-25 00:47:00,62.7,52.0,30.22,ESE,123,5.0,5.0,68,0.00,,---,0.00,VWS V14.00,2013-05-25 05:47:00,
2013-05-25 00:48:00,62.7,52.0,30.22,ESE,123,5.0,6.0,68,0.00,,---,0.00,VWS V14.00,2013-05-25 05:48:00,
2013-05-25 00:49:00,62.9,52.6,30.22,ESE,123,6.0,6.0,69,0.00,,---,0.00,VWS V14.00,2013-05-25 05:49:00,
2013-05-25 00:50:00,62.9,51.8,30.22,ESE,123,6.0,7.0,67,0.00,,---,0.00,VWS V14.00,2013-05-25 05:50:00,
2013-05-25 00:51:00,62.9,52.2,30.22,ESE,123,5.0,6.0,68,0.00,,---,0.00,VWS V14.00,2013-05-25 05:51:00,
2013-05-25 00:52:00,62.9,51.8,30.22,ESE,123,2.0,7.0,67,0.00,,---,0.00,VWS V14.00,2013-05-25 05:52:00,
2013-05-25 00:53:00,62.9,52.2,30.22,ESE,123,2.0,4.0,68,0.00,,---,0.00,VWS V14.00,2013-05-25 05:53:00,
2013-05-25 00:54:00,62.9,51.8,30.22,ESE,123,4.0,7.0,67,0.00,,---,0.00,VWS V14.00,2013-05-25 05:54:00,
2013-05-25 00:55:00,62.9,52.2,30.22,ESE,123,2.0,5.0,68,0.00,,---,0.00,VWS V14.00,2013-05-25 05:55:00,
2013-05-25 00:56:00,62.9,52.2,30.22,ESE,123,2.0,5.0,68,0.00,,---,0.00,VWS V14.00,2013-05-25 05:56:00,
2013-05-25 00:57:00,62.7,52.0,30.22,ESE,123,6.0,6.0,68,0.00,,---,0.00,VWS V14.00,2013-05-25 05:57:00,
2013-05-25 00:58:00,62.7,51.6,30.22,SE,124,3.0,6.0,67,0.00,,---,0.00,VWS V14.00,2013-05-25 05:58:00,
2013-05-25 00:59:00,62.7,52.0,30.22,SE,124,1.0,3.0,68,0.00,,---,0.00,VWS V14.00,2013-05-25 05:59:00,
2013-05-25 01:00:00,62.7,52.0,30.22,SE,124,5.0,7.0,68,0.00,,---,0.00,VWS V14.00,2013-05-25 06:00:00,
2013-05-25 01:01:00,62.7,52.0,30.22,SE,124,2.0,2.0,68,0.00,,---,0.00,VWS V14.00,2013-05-25 06:01:00,
2013-05-25 01:02:00,62.7,51.2,30.22,SE,125,6.0,7.0,66,0.00,,---,0.00,VWS V14.00,2013-05-25 06:02:00,
2013-05-25 01:03:00,62.6,51.1,30.22,SE,125,4.0,7.0,66,0.00,,---,0.00,VWS V14.00,2013-05-25 06:03:00,
2013-05-25 01:04:00,62.7,52.0,30.22,SE,125,6.0,7.0,68,0.00,,---,0.00,VWS V14.00,2013-05-25 06:04:00,
2013-05-25 01:05:00,62.7,52.0,30.22,SE,125,4.0,7.0,68,0.00,,---,0.00,VWS V14.00,2013-05-25 06:05:00,
2013-05-25 01:06:00,62.7,52.0,30.22,SE,125,4.0,7.0,68,0.00,,---,0.00,VWS V14.00,2013-05-25 06:06:00,
2013-05-25 01:07:00,62.7,51.6,30.22,SE,125,6.0,9.0,67,0.00,,---,0.00,VWS V14.00,2013-05-25 06:07:00,
2013-05-25 01:08:00,62.7,51.6,30.22,SE,125,5.0,6.0,67,0.00,,---,0.00,VWS V14.00,2013-05-25 06:08:00,
2013-05-25 01:09:00,62.7,51.6,30.22,SE,126,8.0,8.0,67,0.00,,---,0.00,VWS V14.00,2013-05-25 06:09:00,
2013-05-25 01:10:00,62.7,51.2,30.22,SE,126,4.0,9.0,66,0.00,,---,0.00,VWS V14.00,2013-05-25 06:10:00,
2013-05-25 01:11:00,62.7,51.6,30.22,SE,126,5.0,9.0,67,0.00,,---,0.00,VWS V14.00,2013-05-25 06:11:00,
2013-05-25 01:12:00,62.6,51.5,30.22,SE,126,1.0,4.0,67,0.00,,---,0.00,VWS V14.00,2013-05-25 06:12:00,
2013-05-25 01:13:00,62.6,51.9,30.22,SE,126,0.0,2.0,68,0.00,,---,0.00,VWS V14.00,2013-05-25 06:13:00,
2013-05-25 01:14:00,62.6,51.9,30.22,SE,126,1.0,6.0,68,0.00,,---,0.00,VWS V14.00,2013-05-25 06:14:00,
2013-05-25 01:15:00,62.4,51.7,30.22,SE,126,5.0,6.0,68,0.00,,---,0.00,VWS V14.00,2013-05-25 06:15:00,
2013-05-25 01:16:00,62.6,51.9,30.22,SE,126,0.0,1.0,68,0.00,,---,0.00,VWS V14.00,2013-05-25 06:16:00,
2013-05-25 01:17:00,62.4,50.5,30.22,SE,126,4.0,8.0,65,0.00,,---,0.00,VWS V14.00,2013-05-25 06:17:00,
2013-05-25 01:18:00,62.6,51.5,30.22,SE,126,5.0,7.0,67,0.00,,---,0.00,VWS V14.00,2013-05-25 06:18:00,
2013-05-25 01:19:00,62.6,51.5,30.22,SE,126,2.0,4.0,67,0.00,,---,0.00,VWS V14.00,2013-05-25 06:19:00,
2013-05-25 01:20:00,62.6,51.9,30.22,SE,126,5.0,6.0,68,0.00,,---,0.00,VWS V14.00,2013-05-25 06:20:00,
2013-05-25 01:21:00,62.6,51.5,30.22,SE,126,2.0,3.0,67,0.00,,---,0.00,VWS V14.00,2013-05-25 06:21:00,
2013-05-25 01:22:00,62.4,51.3,30.22,SE,126,1.0,4.0,67,0.00,,---,0.00,VWS V14.00,2013-05-25 06:22:00,
2013-05-25 01:23:00,62.4,51.3,30.22,SE,126,4.0,4.0,67,0.00,,---,0.00,VWS V14.00,2013-05-25 06:23:00,
2013-05-25 01:24:00,62.4,51.7,30.22,SE,126,2.0,6.0,68,0.00,,---,0.00,VWS V14.00,2013-05-25 06:24:00,
2013-05-25 01:25:00,62.6,51.1,30.22,SE,126,4.0,8.0,66,0.00,,---,0.00,VWS V14.00,2013-05-25 06:25:00,
2013-05-25 01:26:00,62.6,51.5,30.22,SE,126,0.0,2.0,67,0.00,,---,0.00,VWS V14.00,2013-05-25 06:26:00,
2013-05-25 01:27:00,62.4,50.9,30.22,SE,126,0.0,2.0,66,0.00,,---,0.00,VWS V14.00,2013-05-25 06:27:00,
2013-05-25 01:28:00,62.4,50.9,30.22,SE,126,1.0,3.0,66,0.00,,---,0.00,VWS V14.00,2013-05-25 06:28:00,
2013-05-25 01:29:00,62.4,51.3,30.22,SE,126,5.0,6.0,67,0.00,,---,0.00,VWS V14.00,2013-05-25 06:29:00,
2013-05-25 01:30:00,62.4,51.3,30.22,SE,126,4.0,6.0,67,0.00,,---,0.00,VWS V14.00,2013-05-25 06:30:00,
2013-05-25 01:31:00,62.4,51.3,30.22,SE,126,4.0,5.0,67,0.00,,---,0.00,VWS V14.00,2013-05-25 06:31:00,
2013-05-25 01:32:00,62.4,51.3,30.22,SE,126,7.0,7.0,67,0.00,,---,0.00,VWS V14.00,2013-05-25 06:32:00,
2013-05-25 01:33:00,62.4,51.3,30.22,SE,126,5.0,7.0,67,0.00,,---,0.00,VWS V14.00,2013-05-25 06:33:00,
2013-05-25 01:34:00,62.4,50.9,30.22,SE,128,5.0,9.0,66,0.00,,---,0.00,VWS V14.00,2013-05-25 06:34:00,
2013-05-25 01:35:00,62.4,50.9,30.22,SE,128,0.0,6.0,66,0.00,,---,0.00,VWS V14.00,2013-05-25 06:35:00,
2013-05-25 01:36:00,62.4,50.9,30.22,SE,128,2.0,5.0,66,0.00,,---,0.00,VWS V14.00,2013-05-25 06:36:00,
2013-05-25 01:37:00,62.3,51.2,30.22,SE,128,3.0,5.0,67,0.00,,---,0.00,VWS V14.00,2013-05-25 06:37:00,
2013-05-25 01:38:00,62.3,51.2,30.22,SE,128,4.0,4.0,67,0.00,,---,0.00,VWS V14.00,2013-05-25 06:38:00,
2013-05-25 01:39:00,62.3,50.8,30.22,SE,128,0.0,4.0,66,0.00,,---,0.00,VWS V14.00,2013-05-25 06:39:00,
2013-05-25 01:40:00,62.3,51.2,30.22,SE,128,4.0,4.0,67,0.00,,---,0.00,VWS V14.00,2013-05-25 06:40:00,
2013-05-25 01:41:00,62.3,50.8,30.22,SE,128,1.0,2.0,66,0.00,,---,0.00,VWS V14.00,2013-05-25 06:41:00,
2013-05-25 01:42:00,62.1,51.0,30.22,SE,128,5.0,5.0,67,0.00,,---,0.00,VWS V14.00,2013-05-25 06:42:00,
2013-05-25 01:43:00,62.1,50.6,30.22,SE,128,0.0,6.0,66,0.00,,---,0.00,VWS V14.00,2013-05-25 06:43:00,
2013-05-25 01:44:00,62.1,51.0,30.22,SE,128,0.0,4.0,67,0.00,,---,0.00,VWS V14.00,2013-05-25 06:44:00,
2013-05-25 01:45:00,62.1,51.0,30.22,SE,128,0.0,1.0,67,0.00,,---,0.00,VWS V14.00,2013-05-25 06:45:00,
2013-05-25 01:46:00,62.1,51.0,30.22,SE,128,0.0,0.0,67,0.00,,---,0.00,VWS V14.00,2013-05-25 06:46:00,
2013-05-25 01:47:00,62.0,50.5,30.22,SE,128,0.0,0.0,66,0.00,,---,0.00,VWS V14.00,2013-05-25 06:47:00,
2013-05-25 01:48:00,62.0,50.5,30.22,SE,128,0.0,2.0,66,0.00,,---,0.00,VWS V14.00,2013-05-25 06:48:00,
2013-05-25 01:49:00,61.8,50.3,30.22,SE,128,0.0,2.0,66,0.00,,---,0.00,VWS V14.00,2013-05-25 06:49:00,
2013-05-25 01:50:00,61.8,50.7,30.22,SE,128,0.0,0.0,67,0.00,,---,0.00,VWS V14.00,2013-05-25 06:50:00,
2013-05-25 01:51:00,61.8,50.3,30.22,SE,128,0.0,0.0,66,0.00,,---,0.00,VWS V14.00,2013-05-25 06:51:00,
2013-05-25 01:52:00,61.8,51.1,30.22,SE,128,1.0,2.0,68,0.00,,---,0.00,VWS V14.00,2013-05-25 06:52:00,
2013-05-25 01:53:00,61.8,50.7,30.22,SE,128,3.0,3.0,67,0.00,,---,0.00,VWS V14.00,2013-05-25 06:53:00,
2013-05-25 01:54:00,61.8,51.1,30.22,SE,128,0.0,3.0,68,0.00,,---,0.00,VWS V14.00,2013-05-25 06:54:00,
2013-05-25 01:55:00,61.8,50.7,30.22,SE,128,0.0,0.0,67,0.00,,---,0.00,VWS V14.00,2013-05-25 06:55:00,
2013-05-25 01:56:00,61.8,51.1,30.22,SE,128,0.0,0.0,68,0.00,,---,0.00,VWS V14.00,2013-05-25 06:56:00,
2013-05-25 01:57:00,61.6,50.5,30.22,SE,128,0.0,3.0,67,0.00,,---,0.00,VWS V14.00,2013-05-25 06:57:00,
2013-05-25 01:58:00,61.6,50.5,30.22,SE,128,0.0,3.0,67,0.00,,---,0.00,VWS V14.00,2013-05-25 06:58:00,
2013-05-25 01:59:00,61.6,50.5,30.22,SE,128,0.0,1.0,67,0.00,,---,0.00,VWS V14.00,2013-05-25 06:59:00,
2013-05-25 02:00:00,61.6,50.5,30.22,SE,128,0.0,2.0,67,0.00,,---,0.00,VWS V14.00,2013-05-25 07:00:00,
2013-05-25 02:01:00,61.6,50.5,30.22,SE,128,2.0,2.0,67,0.00,,---,0.00,VWS V14.00,2013-05-25 07:01:00,
2013-05-25 02:02:00,61.5,50.8,30.22,SE,128,0.0,2.0,68,0.00,,---,0.00,VWS V14.00,2013-05-25 07:02:00,
2013-05-25 02:03:00,61.5,50.8,30.22,SE,128,0.0,4.0,68,0.00,,---,0.00,VWS V14.00,2013-05-25 07:03:00,
2013-05-25 02:04:00,61.5,50.8,30.22,SE,128,3.0,5.0,68,0.00,,---,0.00,VWS V14.00,2013-05-25 07:04:00,
2013-05-25 02:05:00,61.6,51.3,30.22,SE,129,0.0,5.0,69,0.00,,---,0.00,VWS V14.00,2013-05-25 07:05:00,
2013-05-25 02:06:00,61.6,51.3,30.22,SE,129,4.0,5.0,69,0.00,,---,0.00,VWS V14.00,2013-05-25 07:06:00,
2013-05-25 02:07:00,61.5,50.5,30.22,SE,129,1.0,1.0,67,0.00,,---,0.00,VWS V14.00,2013-05-25 07:07:00,
2013-05-25 02:08:00,61.5,50.8,30.22,SE,129,2.0,3.0,68,0.00,,---,0.00,VWS V14.00,2013-05-25 07:08:00,
2013-05-25 02:09:00,61.6,51.0,30.22,SE,129,0.0,4.0,68,0.00,,---,0.00,VWS V14.00,2013-05-25 07:09:00,
2013-05-25 02:10:00,61.5,50.8,30.22,SE,129,0.0,2.0,68,0.00,,---,0.00,VWS V14.00,2013-05-25 07:10:00,
2013-05-25 02:11:00,61.5,50.8,30.22,SE,129,2.0,2.0,68,0.00,,---,0.00,VWS V14.00,2013-05-25 07:11:00,
2013-05-25 02:12:00,61.5,50.8,30.22,SE,129,6.0,6.0,68,0.00,,---,0.00,VWS V14.00,2013-05-25 07:12:00,
2013-05-25 02:13:00,61.6,50.1,30.22,SE,129,4.0,6.0,66,0.00,,---,0.00,VWS V14.00,2013-05-25 07:13:00,
2013-05-25 02:14:00,61.6,50.1,30.22,SE,129,4.0,6.0,66,0.00,,---,0.00,VWS V14.00,2013-05-25 07:14:00,
2013-05-25 02:15:00,61.6,50.1,30.21,SE,129,3.0,5.0,66,0.00,,---,0.00,VWS V14.00,2013-05-25 07:15:00,
2013-05-25 02:16:00,61.6,50.1,30.21,SE,129,4.0,5.0,66,0.00,,---,0.00,VWS V14.00,2013-05-25 07:16:00,
2013-05-25 02:17:00,61.6,50.5,30.21,SE,129,2.0,4.0,67,0.00,,---,0.00,VWS V14.00,2013-05-25 07:17:00,
2013-05-25 02:18:00,61.6,51.0,30.21,SE,129,4.0,4.0,68,0.00,,---,0.00,VWS V14.00,2013-05-25 07:18:00,
2013-05-25 02:19:00,61.6,51.0,30.21,SE,129,2.0,4.0,68,0.00,,---,0.00,VWS V14.00,2013-05-25 07:19:00,
2013-05-25 02:20:00,61.6,51.0,30.21,SE,129,4.0,5.0,68,0.00,,---,0.00,VWS V14.00,2013-05-25 07:20:00,
2013-05-25 02:21:00,61.6,51.0,30.21,SE,129,4.0,4.0,68,0.00,,---,0.00,VWS V14.00,2013-05-25 07:21:00,
2013-05-25 02:22:00,61.6,50.5,30.21,SE,129,3.0,4.0,67,0.00,,---,0.00,VWS V14.00,2013-05-25 07:22:00,
2013-05-25 02:23:00,61.5,50.8,30.21,SE,129,2.0,4.0,68,0.00,,---,0.00,VWS V14.00,2013-05-25 07:23:00,
2013-05-25 02:24:00,61.5,50.8,30.21,SE,129,0.0,2.0,68,0.00,,---,0.00,VWS V14.00,2013-05-25 07:24:00,
2013-05-25 02:25:00,61.5,50.8,30.21,SE,129,3.0,3.0,68,0.00,,---,0.00,VWS V14.00,2013-05-25 07:25:00,
2013-05-25 02:26:00,61.5,50.8,30.21,SE,129,0.0,0.0,68,0.00,,---,0.00,VWS V14.00,2013-05-25 07:26:00,
2013-05-25 02:27:00,61.3,50.3,30.21,SE,129,0.0,3.0,67,0.00,,---,0.00,VWS V14.00,2013-05-25 07:27:00,
2013-05-25 02:28:00,61.3,50.7,30.21,SE,129,3.0,3.0,68,0.00,,---,0.00,VWS V14.00,2013-05-25 07:28:00,
2013-05-25 02:29:00,61.3,50.7,30.21,SE,129,2.0,5.0,68,0.00,,---,0.00,VWS V14.00,2013-05-25 07:29:00,
2013-05-25 02:30:00,61.3,50.7,30.21,SE,129,3.0,3.0,68,0.00,,---,0.00,VWS V14.00,2013-05-25 07:30:00,
2013-05-25 02:31:00,61.3,50.7,30.21,SE,129,3.0,3.0,68,0.00,,---,0.00,VWS V14.00,2013-05-25 07:31:00,
2013-05-25 02:32:00,61.3,50.7,30.22,SE,129,0.0,0.0,68,0.00,,---,0.00,VWS V14.00,2013-05-25 07:32:00,
2013-05-25 02:33:00,61.2,50.6,30.22,SE,129,0.0,1.0,68,0.00,,---,0.00,VWS V14.00,2013-05-25 07:33:00,
2013-05-25 02:34:00,61.2,50.6,30.22,SE,129,0.0,0.0,68,0.00,,---,0.00,VWS V14.00,2013-05-25 07:34:00,
2013-05-25 02:35:00,61.2,50.6,30.22,SE,129,0.0,0.0,68,0.00,,---,0.00,VWS V14.00,2013-05-25 07:35:00,
2013-05-25 02:36:00,61.2,50.6,30.22,SE,129,0.0,0.0,68,0.00,,---,0.00,VWS V14.00,2013-05-25 07:36:00,
2013-05-25 02:37:00,61.2,50.6,30.22,SE,129,0.0,0.0,68,0.00,,---,0.00,VWS V14.00,2013-05-25 07:37:00,
2013-05-25 02:38:00,61.0,50.0,30.22,SE,129,0.0,0.0,67,0.00,,---,0.00,VWS V14.00,2013-05-25 07:38:00,
2013-05-25 02:39:00,61.0,50.4,30.22,SE,129,0.0,0.0,68,0.00,,---,0.00,VWS V14.00,2013-05-25 07:39:00,
2013-05-25 02:40:00,61.0,50.4,30.22,SE,129,0.0,0.0,68,0.00,,---,0.00,VWS V14.00,2013-05-25 07:40:00,
2013-05-25 02:41:00,61.0,50.4,30.22,SE,129,0.0,0.0,68,0.00,,---,0.00,VWS V14.00,2013-05-25 07:41:00,
2013-05-25 02:42:00,60.9,50.3,30.22,SE,129,0.0,0.0,68,0.00,,---,0.00,VWS V14.00,2013-05-25 07:42:00,
2013-05-25 02:43:00,60.9,50.3,30.22,SE,129,0.0,0.0,68,0.00,,---,0.00,VWS V14.00,2013-05-25 07:43:00,
2013-05-25 02:44:00,60.9,50.3,30.22,SE,129,0.0,0.0,68,0.00,,---,0.00,VWS V14.00,2013-05-25 07:44:00,
2013-05-25 02:45:00,60.7,50.1,30.22,SE,129,0.0,0.0,68,0.00,,---,0.00,VWS V14.00,2013-05-25 07:45:00,
2013-05-25 02:46:00,60.9,50.3,30.22,SE,129,0.0,0.0,68,0.00,,---,0.00,VWS V14.00,2013-05-25 07:46:00,
2013-05-25 02:47:00,60.7,50.5,30.21,SE,129,3.0,4.0,69,0.00,,---,0.00,VWS V14.00,2013-05-25 07:47:00,
2013-05-25 02:48:00,60.9,50.7,30.21,SE,129,4.0,4.0,69,0.00,,---,0.00,VWS V14.00,2013-05-25 07:48:00,
2013-05-25 02:49:00,60.9,50.7,30.21,SE,129,3.0,5.0,69,0.00,,---,0.00,VWS V14.00,2013-05-25 07:49:00,
2013-05-25 02:50:00,61.0,50.8,30.21,SE,129,4.0,4.0,69,0.00,,---,0.00,VWS V14.00,2013-05-25 07:50:00,
2013-05-25 02:51:00,60.9,50.7,30.21,SE,129,1.0,3.0,69,0.00,,---,0.00,VWS V14.00,2013-05-25 07:51:00,
2013-05-25 02:52:00,61.0,50.4,30.21,SE,129,4.0,5.0,68,0.00,,---,0.00,VWS V14.00,2013-05-25 07:52:00,
2013-05-25 02:53:00,61.2,50.6,30.21,SE,129,5.0,5.0,68,0.00,,---,0.00,VWS V14.00,2013-05-25 07:53:00,
2013-05-25 02:54:00,61.3,50.7,30.21,SE,129,1.0,5.0,68,0.00,,---,0.00,VWS V14.00,2013-05-25 07:54:00,
2013-05-25 02:55:00,61.3,50.7,30.21,SE,129,3.0,4.0,68,0.00,,---,0.00,VWS V14.00,2013-05-25 07:55:00,
2013-05-25 02:56:00,61.3,50.7,30.21,SE,129,0.0,1.0,68,0.00,,---,0.00,VWS V14.00,2013-05-25 07:56:00,
2013-05-25 02:57:00,61.3,50.3,30.21,SE,129,2.0,4.0,67,0.00,,---,0.00,VWS V14.00,2013-05-25 07:57:00,
2013-05-25 02:58:00,61.3,49.9,30.21,SE,129,5.0,5.0,66,0.00,,---,0.00,VWS V14.00,2013-05-25 07:58:00,
2013-05-25 02:59:00,61.3,50.3,30.21,SE,129,0.0,5.0,67,0.00,,---,0.00,VWS V14.00,2013-05-25 07:59:00,
2013-05-25 03:00:00,61.3,50.7,30.21,SE,129,2.0,3.0,68,0.00,,---,0.00,VWS V14.00,2013-05-25 08:00:00,
2013-05-25 03:01:00,61.3,50.3,30.21,SE,129,0.0,0.0,67,0.00,,---,0.00,VWS V14.00,2013-05-25 08:01:00,
2013-05-25 03:02:00,61.3,50.7,30.20,SE,129,4.0,4.0,68,0.00,,---,0.00,VWS V14.00,2013-05-25 08:02:00,
2013-05-25 03:03:00,61.3,50.7,30.20,SE,129,2.0,5.0,68,0.00,,---,0.00,VWS V14.00,2013-05-25 08:03:00,
2013-05-25 03:04:00,61.3,50.7,30.20,SE,129,0.0,3.0,68,0.00,,---,0.00,VWS V14.00,2013-05-25 08:04:00,
2013-05-25 03:05:00,61.3,50.7,30.20,SE,129,1.0,4.0,68,0.00,,---,0.00,VWS V14.00,2013-05-25 08:05:00,
2013-05-25 03:06:00,61.3,50.7,30.20,SE,129,1.0,1.0,68,0.00,,---,0.00,VWS V14.00,2013-05-25 08:06:00,
2013-05-25 03:07:00,61.0,50.4,30.20,SE,129,0.0,5.0,68,0.00,,---,0.00,VWS V14.00,2013-05-25 08:07:00,
2013-05-25 03:08:00,61.0,50.8,30.20,SE,129,0.0,1.0,69,0.00,,---,0.00,VWS V14.00,2013-05-25 08:08:00,
2013-05-25 03:09:00,60.9,50.3,30.20,SE,129,0.0,0.0,68,0.00,,---,0.00,VWS V14.00,2013-05-25 08:09:00,
2013-05-25 03:10:00,60.9,50.3,30.20,SE,129,0.0,3.0,68,0.00,,---,0.00,VWS V14.00,2013-05-25 08:10:00,
2013-05-25 03:11:00,60.9,50.3,30.20,SE,129,1.0,1.0,68,0.00,,---,0.00,VWS V14.00,2013-05-25 08:11:00,
2013-05-25 03:12:00,60.7,50.5,30.20,SE,129,0.0,3.0,69,0.00,,---,0.00,VWS V14.00,2013-05-25 08:12:00,
2013-05-25 03:13:00,60.7,50.5,30.20,SE,129,3.0,4.0,69,0.00,,---,0.00,VWS V14.00,2013-05-25 08:13:00,
2013-05-25 03:14:00,60.7,50.5,30.20,SE,129,0.0,4.0,69,0.00,,---,0.00,VWS V14.00,2013-05-25 08:14:00,
2013-05-25 03:15:00,60.5,50.7,30.20,SE,129,7.0,7.0,70,0.00,,---,0.00,VWS V14.00,2013-05-25 08:15:00,
2013-05-25 03:16:00,60.7,50.5,30.20,SE,129,0.0,0.0,69,0.00,,---,0.00,VWS V14.00,2013-05-25 08:16:00,
2013-05-25 03:17:00,60.5,50.7,30.19,SE,129,0.0,3.0,70,0.00,,---,0.00,VWS V14.00,2013-05-25 08:17:00,
2013-05-25 03:18:00,60.5,50.3,30.19,SE,129,5.0,5.0,69,0.00,,---,0.00,VWS V14.00,2013-05-25 08:18:00,
2013-05-25 03:19:00,60.5,50.7,30.19,SE,130,0.0,9.0,70,0.00,,---,0.00,VWS V14.00,2013-05-25 08:19:00,
2013-05-25 03:20:00,60.5,50.7,30.19,SE,130,0.0,3.0,70,0.00,,---,0.00,VWS V14.00,2013-05-25 08:20:00,
2013-05-25 03:21:00,60.5,50.7,30.19,SE,130,1.0,1.0,70,0.00,,---,0.00,VWS V14.00,2013-05-25 08:21:00,
2013-05-25 03:22:00,60.5,50.7,30.19,SE,130,0.0,0.0,70,0.00,,---,0.00,VWS V14.00,2013-05-25 08:22:00,
2013-05-25 03:23:00,60.5,50.7,30.19,SE,130,0.0,0.0,70,0.00,,---,0.00,VWS V14.00,2013-05-25 08:23:00,
2013-05-25 03:24:00,60.5,50.7,30.19,SE,130,0.0,0.0,70,0.00,,---,0.00,VWS V14.00,2013-05-25 08:24:00,
2013-05-25 03:25:00,60.5,50.7,30.18,SE,130,0.0,0.0,70,0.00,,---,0.00,VWS V14.00,2013-05-25 08:25:00,
2013-05-25 03:26:00,60.5,50.7,30.19,SE,130,0.0,0.0,70,0.00,,---,0.00,VWS V14.00,2013-05-25 08:26:00,
2013-05-25 03:27:00,60.5,50.7,30.18,SE,130,0.0,0.0,70,0.00,,---,0.00,VWS V14.00,2013-05-25 08:27:00,
2013-05-25 03:28:00,60.4,50.6,30.18,SE,130,0.0,0.0,70,0.00,,---,0.00,VWS V14.00,2013-05-25 08:28:00,
2013-05-25 03:29:00,60.4,51.0,30.18,SE,130,0.0,2.0,71,0.00,,---,0.00,VWS V14.00,2013-05-25 08:29:00,
2013-05-25 03:30:00,60.4,51.0,30.18,SE,130,0.0,3.0,71,0.00,,---,0.00,VWS V14.00,2013-05-25 08:30:00,
2013-05-25 03:31:00,60.4,51.0,30.18,SE,130,3.0,3.0,71,0.00,,---,0.00,VWS V14.00,2013-05-25 08:31:00,
2013-05-25 03:32:00,60.4,51.0,30.18,SE,130,0.0,0.0,71,0.00,,---,0.00,VWS V14.00,2013-05-25 08:32:00,
2013-05-25 03:33:00,60.4,50.6,30.18,SE,130,0.0,0.0,70,0.00,,---,0.00,VWS V14.00,2013-05-25 08:33:00,
2013-05-25 03:34:00,60.4,50.6,30.18,SE,130,0.0,0.0,70,0.00,,---,0.00,VWS V14.00,2013-05-25 08:34:00,
2013-05-25 03:35:00,60.4,51.0,30.18,SE,130,2.0,4.0,71,0.00,,---,0.00,VWS V14.00,2013-05-25 08:35:00,
2013-05-25 03:36:00,60.4,50.6,30.18,SE,130,0.0,0.0,70,0.00,,---,0.00,VWS V14.00,2013-05-25 08:36:00,
2013-05-25 03:37:00,60.4,51.0,30.18,SE,130,0.0,0.0,71,0.00,,---,0.00,VWS V14.00,2013-05-25 08:37:00,
2013-05-25 03:38:00,60.4,51.0,30.18,SE,130,2.0,3.0,71,0.00,,---,0.00,VWS V14.00,2013-05-25 08:38:00,
2013-05-25 03:39:00,60.4,50.6,30.18,SE,130,0.0,3.0,70,0.00,,---,0.00,VWS V14.00,2013-05-25 08:39:00,
2013-05-25 03:40:00,60.5,50.7,30.18,SE,130,0.0,0.0,70,0.00,,---,0.00,VWS V14.00,2013-05-25 08:40:00,
2013-05-25 03:41:00,60.4,50.6,30.18,SE,130,0.0,0.0,70,0.00,,---,0.00,VWS V14.00,2013-05-25 08:41:00,
2013-05-25 03:42:00,60.4,50.6,30.18,SE,130,0.0,0.0,70,0.00,,---,0.00,VWS V14.00,2013-05-25 08:42:00,
2013-05-25 03:43:00,60.4,51.0,30.18,SE,130,0.0,0.0,71,0.00,,---,0.00,VWS V14.00,2013-05-25 08:43:00,
2013-05-25 03:44:00,60.4,50.6,30.18,SE,130,0.0,0.0,70,0.00,,---,0.00,VWS V14.00,2013-05-25 08:44:00,
2013-05-25 03:45:00,60.4,51.0,30.18,SE,130,0.0,0.0,71,0.00,,---,0.00,VWS V14.00,2013-05-25 08:45:00,
2013-05-25 03:46:00,60.4,50.6,30.18,SE,130,0.0,0.0,70,0.00,,---,0.00,VWS V14.00,2013-05-25 08:46:00,
2013-05-25 03:47:00,60.4,50.6,30.18,SE,130,1.0,1.0,70,0.00,,---,0.00,VWS V14.00,2013-05-25 08:47:00,
2013-05-25 03:48:00,60.4,51.0,30.18,SE,130,3.0,4.0,71,0.00,,---,0.00,VWS V14.00,2013-05-25 08:48:00,
2013-05-25 03:49:00,60.5,51.1,30.18,SE,130,0.0,4.0,71,0.00,,---,0.00,VWS V14.00,2013-05-25 08:49:00,
2013-05-25 03:50:00,60.5,50.7,30.18,SE,130,0.0,0.0,70,0.00,,---,0.00,VWS V14.00,2013-05-25 08:50:00,
2013-05-25 03:51:00,60.5,51.1,30.18,SE,130,0.0,0.0,71,0.00,,---,0.00,VWS V14.00,2013-05-25 08:51:00,
2013-05-25 03:52:00,60.4,50.6,30.18,SE,130,0.0,2.0,70,0.00,,---,0.00,VWS V14.00,2013-05-25 08:52:00,
2013-05-25 03:53:00,60.4,50.6,30.18,SE,130,0.0,2.0,70,0.00,,---,0.00,VWS V14.00,2013-05-25 08:53:00,
2013-05-25 03:54:00,60.5,50.7,30.18,SE,130,0.0,1.0,70,0.00,,---,0.00,VWS V14.00,2013-05-25 08:54:00,
2013-05-25 03:55:00,60.5,50.7,30.18,SE,130,0.0,0.0,70,0.00,,---,0.00,VWS V14.00,2013-05-25 08:55:00,
2013-05-25 03:56:00,60.5,50.7,30.18,SE,130,0.0,0.0,70,0.00,,---,0.00,VWS V14.00,2013-05-25 08:56:00,
2013-05-25 03:57:00,60.4,50.6,30.18,SE,130,0.0,0.0,70,0.00,,---,0.00,VWS V14.00,2013-05-25 08:57:00,
2013-05-25 03:58:00,60.4,50.6,30.18,SE,130,0.0,1.0,70,0.00,,---,0.00,VWS V14.00,2013-05-25 08:58:00,
2013-05-25 03:59:00,60.5,51.1,30.18,SE,130,2.0,3.0,71,0.00,,---,0.00,VWS V14.00,2013-05-25 08:59:00,
2013-05-25 04:00:00,60.5,51.1,30.18,SE,130,3.0,3.0,71,0.00,,---,0.00,VWS V14.00,2013-05-25 09:00:00,
2013-05-25 04:01:00,60.5,51.1,30.18,SE,130,3.0,3.0,71,0.00,,---,0.00,VWS V14.00,2013-05-25 09:01:00,
2013-05-25 04:02:00,60.5,50.7,30.18,SE,130,0.0,2.0,70,0.00,,---,0.00,VWS V14.00,2013-05-25 09:02:00,
2013-05-25 04:03:00,60.5,50.7,30.18,SE,130,0.0,3.0,70,0.00,,---,0.00,VWS V14.00,2013-05-25 09:03:00,
2013-05-25 04:04:00,60.5,50.7,30.18,SE,130,0.0,0.0,70,0.00,,---,0.00,VWS V14.00,2013-05-25 09:04:00,
2013-05-25 04:05:00,60.5,50.7,30.18,SE,130,0.0,0.0,70,0.00,,---,0.00,VWS V14.00,2013-05-25 09:05:00,
2013-05-25 04:06:00,60.5,50.7,30.18,SE,130,0.0,0.0,70,0.00,,---,0.00,VWS V14.00,2013-05-25 09:06:00,
2013-05-25 04:07:00,60.4,50.6,30.18,SE,130,0.0,1.0,70,0.00,,---,0.00,VWS V14.00,2013-05-25 09:07:00,
2013-05-25 04:08:00,60.4,50.6,30.18,SE,130,0.0,0.0,70,0.00,,---,0.00,VWS V14.00,2013-05-25 09:08:00,
2013-05-25 04:09:00,60.4,50.6,30.18,SE,130,0.0,0.0,70,0.00,,---,0.00,VWS V14.00,2013-05-25 09:09:00,
2013-05-25 04:10:00,60.4,51.0,30.18,SE,130,0.0,0.0,71,0.00,,---,0.00,VWS V14.00,2013-05-25 09:10:00,
2013-05-25 04:11:00,60.4,50.6,30.18,SE,130,0.0,0.0,70,0.00,,---,0.00,VWS V14.00,2013-05-25 09:11:00,
2013-05-25 04:12:00,60.4,50.6,30.19,SE,130,0.0,0.0,70,0.00,,---,0.00,VWS V14.00,2013-05-25 09:12:00,
2013-05-25 04:13:00,60.4,50.6,30.19,SE,130,0.0,0.0,70,0.00,,---,0.00,VWS V14.00,2013-05-25 09:13:00,
2013-05-25 04:14:00,60.2,50.4,30.19,SE,130,0.0,0.0,70,0.00,,---,0.00,VWS V14.00,2013-05-25 09:14:00,
2013-05-25 04:15:00,60.2,50.4,30.19,SE,130,0.0,0.0,70,0.00,,---,0.00,VWS V14.00,2013-05-25 09:15:00,
2013-05-25 04:16:00,60.2,50.4,30.19,SE,130,0.0,0.0,70,0.00,,---,0.00,VWS V14.00,2013-05-25 09:16:00,
2013-05-25 04:17:00,60.2,50.8,30.19,SE,130,0.0,0.0,71,0.00,,---,0.00,VWS V14.00,2013-05-25 09:17:00,
2013-05-25 04:18:00,60.2,50.4,30.19,SE,130,0.0,0.0,70,0.00,,---,0.00,VWS V14.00,2013-05-25 09:18:00,
2013-05-25 04:19:00,60.2,50.4,30.19,SE,130,0.0,0.0,70,0.00,,---,0.00,VWS V14.00,2013-05-25 09:19:00,
2013-05-25 04:20:00,60.1,50.7,30.19,SE,130,0.0,0.0,71,0.00,,---,0.00,VWS V14.00,2013-05-25 09:20:00,
2013-05-25 04:21:00,60.2,50.4,30.19,SE,130,0.0,0.0,70,0.00,,---,0.00,VWS V14.00,2013-05-25 09:21:00,
2013-05-25 04:22:00,60.1,50.7,30.19,SE,130,0.0,0.0,71,0.00,,---,0.00,VWS V14.00,2013-05-25 09:22:00,
2013-05-25 04:23:00,60.1,50.7,30.19,SE,130,0.0,0.0,71,0.00,,---,0.00,VWS V14.00,2013-05-25 09:23:00,
2013-05-25 04:24:00,60.1,50.7,30.19,SE,130,0.0,0.0,71,0.00,,---,0.00,VWS V14.00,2013-05-25 09:24:00,
2013-05-25 04:25:00,60.1,50.7,30.19,SE,130,0.0,0.0,71,0.00,,---,0.00,VWS V14.00,2013-05-25 09:25:00,
2013-05-25 04:26:00,60.1,50.7,30.19,SE,130,0.0,0.0,71,0.00,,---,0.00,VWS V14.00,2013-05-25 09:26:00,
2013-05-25 04:27:00,60.1,50.7,30.19,SE,130,0.0,0.0,71,0.00,,---,0.00,VWS V14.00,2013-05-25 09:27:00,
2013-05-25 04:28:00,60.1,50.7,30.19,SE,130,0.0,0.0,71,0.00,,---,0.00,VWS V14.00,2013-05-25 09:28:00,
2013-05-25 04:29:00,60.1,50.7,30.19,SE,130,0.0,0.0,71,0.00,,---,0.00,VWS V14.00,2013-05-25 09:29:00,
2013-05-25 04:30:00,60.1,50.7,30.19,SE,130,0.0,0.0,71,0.00,,---,0.00,VWS V14.00,2013-05-25 09:30:00,
2013-05-25 04:31:00,60.1,50.7,30.19,SE,130,0.0,0.0,71,0.00,,---,0.00,VWS V14.00,2013-05-25 09:31:00,
2013-05-25 04:32:00,60.1,50.7,30.19,SE,130,0.0,0.0,71,0.00,,---,0.00,VWS V14.00,2013-05-25 09:32:00,
2013-05-25 04:33:00,60.1,50.7,30.19,SE,130,0.0,0.0,71,0.00,,---,0.00,VWS V14.00,2013-05-25 09:33:00,
2013-05-25 04:34:00,60.1,50.7,30.19,SE,130,0.0,0.0,71,0.00,,---,0.00,VWS V14.00,2013-05-25 09:34:00,
2013-05-25 04:35:00,60.1,50.7,30.19,SE,130,0.0,0.0,71,0.00,,---,0.00,VWS V14.00,2013-05-25 09:35:00,
2013-05-25 04:36:00,60.1,50.7,30.19,SE,130,0.0,0.0,71,0.00,,---,0.00,VWS V14.00,2013-05-25 09:36:00,
2013-05-25 04:37:00,60.1,50.7,30.19,SE,130,0.0,0.0,71,0.00,,---,0.00,VWS V14.00,2013-05-25 09:37:00,
2013-05-25 04:38:00,60.1,50.7,30.19,SE,130,0.0,0.0,71,0.00,,---,0.00,VWS V14.00,2013-05-25 09:38:00,
2013-05-25 04:39:00,60.2,50.8,30.19,SE,130,0.0,0.0,71,0.00,,---,0.00,VWS V14.00,2013-05-25 09:39:00,
2013-05-25 04:40:00,60.2,50.8,30.19,SE,130,0.0,0.0,71,0.00,,---,0.00,VWS V14.00,2013-05-25 09:40:00,
2013-05-25 04:41:00,60.2,50.8,30.19,SE,130,0.0,0.0,71,0.00,,---,0.00,VWS V14.00,2013-05-25 09:41:00,
2013-05-25 04:42:00,60.1,50.3,30.19,SE,130,0.0,0.0,70,0.00,,---,0.00,VWS V14.00,2013-05-25 09:42:00,
2013-05-25 04:43:00,60.2,50.4,30.19,SE,130,0.0,0.0,70,0.00,,---,0.00,VWS V14.00,2013-05-25 09:43:00,
2013-05-25 04:44:00,60.1,50.7,30.19,SE,130,0.0,0.0,71,0.00,,---,0.00,VWS V14.00,2013-05-25 09:44:00,
2013-05-25 04:45:00,60.1,50.3,30.19,SE,130,0.0,0.0,70,0.00,,---,0.00,VWS V14.00,2013-05-25 09:45:00,
2013-05-25 04:46:00,60.1,50.7,30.19,SE,130,0.0,0.0,71,0.00,,---,0.00,VWS V14.00,2013-05-25 09:46:00,
2013-05-25 04:47:00,60.1,50.3,30.19,SE,130,0.0,0.0,70,0.00,,---,0.00,VWS V14.00,2013-05-25 09:47:00,
2013-05-25 04:48:00,60.1,50.3,30.19,SE,130,0.0,0.0,70,0.00,,---,0.00,VWS V14.00,2013-05-25 09:48:00,
2013-05-25 04:49:00,60.1,50.3,30.19,SE,130,0.0,0.0,70,0.00,,---,0.00,VWS V14.00,2013-05-25 09:49:00,
2013-05-25 04:50:00,60.1,50.7,30.19,SE,130,0.0,0.0,71,0.00,,---,0.00,VWS V14.00,2013-05-25 09:50:00,
2013-05-25 04:51:00,60.1,50.7,30.19,SE,130,0.0,0.0,71,0.00,,---,0.00,VWS V14.00,2013-05-25 09:51:00,
2013-05-25 04:52:00,60.1,50.7,30.19,SE,130,0.0,0.0,71,0.00,,---,0.00,VWS V14.00,2013-05-25 09:52:00,
2013-05-25 04:53:00,60.1,50.7,30.19,SE,130,0.0,0.0,71,0.00,,---,0.00,VWS V14.00,2013-05-25 09:53:00,
2013-05-25 04:55:00,60.1,50.7,30.19,SE,130,0.0,0.0,71,0.00,,---,0.00,VWS V14.00,2013-05-25 09:55:00,
2013-05-25 04:56:00,60.1,50.3,30.19,SE,130,0.0,0.0,70,0.00,,---,0.00,VWS V14.00,2013-05-25 09:56:00,
2013-05-25 04:58:00,60.1,51.1,30.19,SE,130,0.0,0.0,72,0.00,,---,0.00,VWS V14.00,2013-05-25 09:58:00,
2013-05-25 04:59:00,60.1,51.1,30.19,SE,130,0.0,0.0,72,0.00,,---,0.00,VWS V14.00,2013-05-25 09:59:00,
2013-05-25 05:01:00,60.1,51.1,30.19,SE,130,0.0,0.0,72,0.00,,---,0.00,VWS V14.00,2013-05-25 10:01:00,
2013-05-25 05:03:00,60.1,50.7,30.20,SE,130,0.0,2.0,71,0.00,,---,0.00,VWS V14.00,2013-05-25 10:03:00,
2013-05-25 05:05:00,60.2,50.8,30.20,SE,130,0.0,0.0,71,0.00,,---,0.00,VWS V14.00,2013-05-25 10:05:00,
2013-05-25 05:06:00,60.1,51.1,30.20,SE,130,0.0,0.0,72,0.00,,---,0.00,VWS V14.00,2013-05-25 10:06:00,
2013-05-25 05:07:00,60.2,51.2,30.20,SE,130,0.0,0.0,72,0.00,,---,0.00,VWS V14.00,2013-05-25 10:07:00,
2013-05-25 05:08:00,60.2,51.2,30.21,SE,130,0.0,0.0,72,0.00,,---,0.00,VWS V14.00,2013-05-25 10:08:00,
2013-05-25 05:09:00,60.2,51.2,30.21,SE,130,0.0,0.0,72,0.00,,---,0.00,VWS V14.00,2013-05-25 10:09:00,
2013-05-25 05:10:00,60.2,51.2,30.22,SE,130,0.0,0.0,72,0.00,,---,0.00,VWS V14.00,2013-05-25 10:10:00,
2013-05-25 05:11:00,60.2,51.2,30.21,SE,130,0.0,0.0,72,0.00,,---,0.00,VWS V14.00,2013-05-25 10:11:00,
2013-05-25 05:12:00,60.2,51.2,30.21,SE,130,0.0,0.0,72,0.00,,---,0.00,VWS V14.00,2013-05-25 10:12:00,
2013-05-25 05:13:00,60.2,50.8,30.21,SE,130,0.0,0.0,71,0.00,,---,0.00,VWS V14.00,2013-05-25 10:13:00,
2013-05-25 05:14:00,60.2,50.8,30.21,SE,130,0.0,0.0,71,0.00,,---,0.00,VWS V14.00,2013-05-25 10:14:00,
2013-05-25 05:15:00,60.2,50.8,30.21,SE,130,0.0,0.0,71,0.00,,---,0.00,VWS V14.00,2013-05-25 10:15:00,
2013-05-25 05:16:00,60.2,50.8,30.21,SE,130,0.0,0.0,71,0.00,,---,0.00,VWS V14.00,2013-05-25 10:16:00,
2013-05-25 05:17:00,60.2,50.8,30.21,SE,130,0.0,0.0,71,0.00,,---,0.00,VWS V14.00,2013-05-25 10:17:00,
2013-05-25 05:18:00,60.4,51.0,30.22,SE,130,0.0,0.0,71,0.00,,---,0.00,VWS V14.00,2013-05-25 10:18:00,
2013-05-25 05:19:00,60.4,51.3,30.21,SE,130,0.0,0.0,72,0.00,,---,0.00,VWS V14.00,2013-05-25 10:19:00,
2013-05-25 05:20:00,60.4,51.7,30.21,SE,130,0.0,0.0,73,0.00,,---,0.00,VWS V14.00,2013-05-25 10:20:00,
2013-05-25 05:21:00,60.4,51.3,30.21,SE,130,0.0,0.0,72,0.00,,---,0.00,VWS V14.00,2013-05-25 10:21:00,
2013-05-25 05:22:00,60.4,51.7,30.21,SE,130,0.0,0.0,73,0.00,,---,0.00,VWS V14.00,2013-05-25 10:22:00,
2013-05-25 05:23:00,60.4,51.7,30.21,SE,130,0.0,0.0,73,0.00,,---,0.00,VWS V14.00,2013-05-25 10:23:00,
2013-05-25 05:24:00,60.4,51.7,30.22,SE,130,0.0,0.0,73,0.00,,---,0.00,VWS V14.00,2013-05-25 10:24:00,
2013-05-25 05:25:00,60.4,51.3,30.22,SE,130,0.0,0.0,72,0.00,,---,0.00,VWS V14.00,2013-05-25 10:25:00,
2013-05-25 05:26:00,60.4,51.3,30.22,SE,130,0.0,0.0,72,0.00,,---,0.00,VWS V14.00,2013-05-25 10:26:00,
2013-05-25 05:27:00,60.5,51.4,30.22,SE,130,0.0,0.0,72,0.00,,---,0.00,VWS V14.00,2013-05-25 10:27:00,
2013-05-25 05:28:00,60.5,51.4,30.22,SE,130,0.0,0.0,72,0.00,,---,0.00,VWS V14.00,2013-05-25 10:28:00,
2013-05-25 05:29:00,60.5,51.1,30.21,SE,130,0.0,0.0,71,0.00,,---,0.00,VWS V14.00,2013-05-25 10:29:00,
2013-05-25 05:30:00,60.5,51.1,30.21,SE,130,0.0,0.0,71,0.00,,---,0.00,VWS V14.00,2013-05-25 10:30:00,
2013-05-25 05:31:00,60.5,51.1,30.21,SE,130,0.0,0.0,71,0.00,,---,0.00,VWS V14.00,2013-05-25 10:31:00,
2013-05-25 05:32:00,60.7,51.2,30.22,SE,130,0.0,0.0,71,0.00,,---,0.00,VWS V14.00,2013-05-25 10:32:00,
2013-05-25 05:33:00,60.7,51.2,30.22,SE,130,0.0,0.0,71,0.00,,---,0.00,VWS V14.00,2013-05-25 10:33:00,
2013-05-25 05:34:00,60.7,51.2,30.22,SE,130,0.0,0.0,71,0.00,,---,0.00,VWS V14.00,2013-05-25 10:34:00,
2013-05-25 05:35:00,60.7,51.2,30.22,SE,130,0.0,0.0,71,0.00,,---,0.00,VWS V14.00,2013-05-25 10:35:00,
2013-05-25 05:36:00,60.7,51.2,30.22,SE,130,0.0,0.0,71,0.00,,---,0.00,VWS V14.00,2013-05-25 10:36:00,
2013-05-25 05:37:00,60.9,51.8,30.22,SE,130,0.0,0.0,72,0.00,,---,0.00,VWS V14.00,2013-05-25 10:37:00,
2013-05-25 05:38:00,60.9,51.8,30.22,SE,130,0.0,0.0,72,0.00,,---,0.00,VWS V14.00,2013-05-25 10:38:00,
2013-05-25 05:39:00,60.9,51.8,30.22,SE,130,0.0,0.0,72,0.00,,---,0.00,VWS V14.00,2013-05-25 10:39:00,
2013-05-25 05:40:00,60.9,51.8,30.22,SE,130,0.0,0.0,72,0.00,,---,0.00,VWS V14.00,2013-05-25 10:40:00,
2013-05-25 05:41:00,60.9,51.8,30.22,SE,130,0.0,0.0,72,0.00,,---,0.00,VWS V14.00,2013-05-25 10:41:00,
2013-05-25 05:42:00,61.0,51.9,30.23,SE,130,0.0,0.0,72,0.00,,---,0.00,VWS V14.00,2013-05-25 10:42:00,
2013-05-25 05:43:00,61.0,51.9,30.23,SE,130,0.0,0.0,72,0.00,,---,0.00,VWS V14.00,2013-05-25 10:43:00,
2013-05-25 05:44:00,61.0,51.9,30.23,SE,130,0.0,0.0,72,0.00,,---,0.00,VWS V14.00,2013-05-25 10:44:00,
2013-05-25 05:45:00,61.0,51.9,30.22,SE,130,0.0,0.0,72,0.00,,---,0.00,VWS V14.00,2013-05-25 10:45:00,
2013-05-25 05:46:00,61.0,51.9,30.22,SE,130,0.0,0.0,72,0.00,,---,0.00,VWS V14.00,2013-05-25 10:46:00,
2013-05-25 05:47:00,61.0,51.9,30.23,SE,130,0.0,0.0,72,0.00,,---,0.00,VWS V14.00,2013-05-25 10:47:00,
2013-05-25 05:48:00,61.0,52.3,30.23,SE,130,0.0,0.0,73,0.00,,---,0.00,VWS V14.00,2013-05-25 10:48:00,
2013-05-25 05:49:00,61.0,52.3,30.23,SE,130,0.0,0.0,73,0.00,,---,0.00,VWS V14.00,2013-05-25 10:49:00,
2013-05-25 05:50:00,61.0,52.3,30.23,SE,130,0.0,0.0,73,0.00,,---,0.00,VWS V14.00,2013-05-25 10:50:00,
2013-05-25 05:51:00,61.0,52.3,30.23,SE,130,0.0,0.0,73,0.00,,---,0.00,VWS V14.00,2013-05-25 10:51:00,
2013-05-25 05:52:00,61.0,52.3,30.23,SE,130,0.0,0.0,73,0.00,,---,0.00,VWS V14.00,2013-05-25 10:52:00,
2013-05-25 05:53:00,61.0,51.9,30.23,SE,130,0.0,0.0,72,0.00,,---,0.00,VWS V14.00,2013-05-25 10:53:00,
2013-05-25 05:54:00,61.0,52.3,30.23,SE,130,0.0,0.0,73,0.00,,---,0.00,VWS V14.00,2013-05-25 10:54:00,
2013-05-25 05:55:00,61.0,52.3,30.23,SE,130,0.0,0.0,73,0.00,,---,0.00,VWS V14.00,2013-05-25 10:55:00,
2013-05-25 05:56:00,61.0,52.3,30.23,SE,130,0.0,0.0,73,0.00,,---,0.00,VWS V14.00,2013-05-25 10:56:00,
2013-05-25 05:57:00,61.0,52.3,30.23,SE,130,0.0,0.0,73,0.00,,---,0.00,VWS V14.00,2013-05-25 10:57:00,
2013-05-25 05:58:00,61.0,52.3,30.23,SE,130,0.0,0.0,73,0.00,,---,0.00,VWS V14.00,2013-05-25 10:58:00,
2013-05-25 05:59:00,61.0,51.9,30.23,SE,130,0.0,0.0,72,0.00,,---,0.00,VWS V14.00,2013-05-25 10:59:00,
2013-05-25 06:00:00,61.0,51.9,30.23,SE,130,0.0,0.0,72,0.00,,---,0.00,VWS V14.00,2013-05-25 11:00:00,
2013-05-25 06:01:00,61.0,51.9,30.23,SE,130,0.0,0.0,72,0.00,,---,0.00,VWS V14.00,2013-05-25 11:01:00,
2013-05-25 06:02:00,61.0,51.9,30.23,SE,130,0.0,0.0,72,0.00,,---,0.00,VWS V14.00,2013-05-25 11:02:00,
2013-05-25 06:03:00,61.0,51.9,30.23,SE,130,0.0,0.0,72,0.00,,---,0.00,VWS V14.00,2013-05-25 11:03:00,
2013-05-25 06:04:00,61.0,51.9,30.23,SE,130,0.0,0.0,72,0.00,,---,0.00,VWS V14.00,2013-05-25 11:04:00,
2013-05-25 06:05:00,61.0,51.9,30.23,SE,130,0.0,0.0,72,0.00,,---,0.00,VWS V14.00,2013-05-25 11:05:00,
2013-05-25 06:06:00,61.0,51.9,30.23,SE,130,0.0,0.0,72,0.00,,---,0.00,VWS V14.00,2013-05-25 11:06:00,
2013-05-25 06:07:00,61.0,51.5,30.23,SE,130,0.0,0.0,71,0.00,,---,0.00,VWS V14.00,2013-05-25 11:07:00,
2013-05-25 06:08:00,61.0,51.5,30.23,SE,130,0.0,0.0,71,0.00,,---,0.00,VWS V14.00,2013-05-25 11:08:00,
2013-05-25 06:09:00,61.0,51.5,30.23,SE,130,0.0,2.0,71,0.00,,---,0.00,VWS V14.00,2013-05-25 11:09:00,
2013-05-25 06:10:00,61.0,51.5,30.23,East,94,0.0,1.0,71,0.00,,---,0.00,VWS V14.00,2013-05-25 11:10:00,
2013-05-25 06:11:00,61.0,51.5,30.23,SE,130,0.0,0.0,71,0.00,,---,0.00,VWS V14.00,2013-05-25 11:11:00,
2013-05-25 06:12:00,61.0,51.9,30.23,East,88,0.0,0.0,72,0.00,,---,0.00,VWS V14.00,2013-05-25 11:12:00,
2013-05-25 06:13:00,60.9,51.8,30.23,East,88,0.0,0.0,72,0.00,,---,0.00,VWS V14.00,2013-05-25 11:13:00,
2013-05-25 06:14:00,60.9,51.8,30.24,East,87,0.0,0.0,72,0.00,,---,0.00,VWS V14.00,2013-05-25 11:14:00,
2013-05-25 06:15:00,60.9,51.8,30.24,East,87,0.0,0.0,72,0.00,,---,0.00,VWS V14.00,2013-05-25 11:15:00,
2013-05-25 06:16:00,60.9,51.8,30.24,East,87,0.0,0.0,72,0.00,,---,0.00,VWS V14.00,2013-05-25 11:16:00,
2013-05-25 06:17:00,60.9,51.8,30.24,East,86,0.0,0.0,72,0.00,,---,0.00,VWS V14.00,2013-05-25 11:17:00,
2013-05-25 06:18:00,61.0,51.5,30.24,East,86,0.0,0.0,71,0.00,,---,0.00,VWS V14.00,2013-05-25 11:18:00,
2013-05-25 06:19:00,61.0,51.5,30.24,ESE,120,0.0,0.0,71,0.00,,---,0.00,VWS V14.00,2013-05-25 11:19:00,
2013-05-25 06:20:00,61.0,51.5,30.24,ESE,120,0.0,0.0,71,0.00,,---,0.00,VWS V14.00,2013-05-25 11:20:00,
2013-05-25 06:21:00,61.0,51.5,30.24,ESE,120,0.0,0.0,71,0.00,,---,0.00,VWS V14.00,2013-05-25 11:21:00,
2013-05-25 06:22:00,61.0,51.5,30.24,ESE,120,0.0,0.0,71,0.00,,---,0.00,VWS V14.00,2013-05-25 11:22:00,
2013-05-25 06:23:00,61.0,51.5,30.24,ESE,120,0.0,0.0,71,0.00,,---,0.00,VWS V14.00,2013-05-25 11:23:00,
2013-05-25 06:24:00,61.0,51.5,30.24,ESE,102,0.0,0.0,71,0.00,,---,0.00,VWS V14.00,2013-05-25 11:24:00,
2013-05-25 06:25:00,61.0,51.5,30.24,East,90,2.0,2.0,71,0.00,,---,0.00,VWS V14.00,2013-05-25 11:25:00,
2013-05-25 06:26:00,61.0,51.5,30.24,ESE,102,0.0,0.0,71,0.00,,---,0.00,VWS V14.00,2013-05-25 11:26:00,
2013-05-25 06:27:00,61.3,51.5,30.24,East,90,2.0,3.0,70,0.00,,---,0.00,VWS V14.00,2013-05-25 11:27:00,
2013-05-25 06:28:00,61.5,51.2,30.24,East,90,0.0,2.0,69,0.00,,---,0.00,VWS V14.00,2013-05-25 11:28:00,
2013-05-25 06:29:00,61.6,51.7,30.24,East,90,0.0,0.0,70,0.00,,---,0.00,VWS V14.00,2013-05-25 11:29:00,
2013-05-25 06:30:00,61.6,51.3,30.24,East,90,0.0,0.0,69,0.00,,---,0.00,VWS V14.00,2013-05-25 11:30:00,
2013-05-25 06:31:00,61.6,51.7,30.24,East,90,0.0,0.0,70,0.00,,---,0.00,VWS V14.00,2013-05-25 11:31:00,
2013-05-25 06:32:00,61.8,51.5,30.24,East,90,0.0,0.0,69,0.00,,---,0.00,VWS V14.00,2013-05-25 11:32:00,
2013-05-25 06:33:00,61.8,51.5,30.24,East,90,2.0,2.0,69,0.00,,---,0.00,VWS V14.00,2013-05-25 11:33:00,
2013-05-25 06:34:00,61.8,51.5,30.24,East,90,3.0,5.0,69,0.00,,---,0.00,VWS V14.00,2013-05-25 11:34:00,
2013-05-25 06:35:00,62.0,50.5,30.24,East,90,3.0,6.0,66,0.00,,---,0.00,VWS V14.00,2013-05-25 11:35:00,
2013-05-25 06:36:00,61.8,51.5,30.24,East,90,3.0,5.0,69,0.00,,---,0.00,VWS V14.00,2013-05-25 11:36:00,
2013-05-25 06:37:00,62.1,51.0,30.24,East,84,4.0,6.0,67,0.00,,---,0.00,VWS V14.00,2013-05-25 11:37:00,
2013-05-25 06:38:00,62.3,51.2,30.24,East,84,3.0,5.0,67,0.00,,---,0.00,VWS V14.00,2013-05-25 11:38:00,
2013-05-25 06:39:00,62.4,51.3,30.24,East,84,3.0,4.0,67,0.00,,---,0.00,VWS V14.00,2013-05-25 11:39:00,
2013-05-25 06:40:00,62.4,50.9,30.24,East,84,3.0,4.0,66,0.00,,---,0.00,VWS V14.00,2013-05-25 11:40:00,
2013-05-25 06:41:00,62.4,51.3,30.24,East,84,3.0,4.0,67,0.00,,---,0.00,VWS V14.00,2013-05-25 11:41:00,
2013-05-25 06:42:00,62.6,51.5,30.25,East,84,0.0,2.0,67,0.00,,---,0.00,VWS V14.00,2013-05-25 11:42:00,
2013-05-25 06:43:00,62.6,51.1,30.25,East,84,5.0,5.0,66,0.00,,---,0.00,VWS V14.00,2013-05-25 11:43:00,
2013-05-25 06:44:00,62.6,50.3,30.25,East,84,3.0,5.0,64,0.00,,---,0.00,VWS V14.00,2013-05-25 11:44:00,
2013-05-25 06:45:00,62.7,50.8,30.25,East,84,1.0,4.0,65,0.00,,---,0.00,VWS V14.00,2013-05-25 11:45:00,
2013-05-25 06:46:00,62.6,50.3,30.25,East,84,3.0,5.0,64,0.00,,---,0.00,VWS V14.00,2013-05-25 11:46:00,
2013-05-25 06:47:00,62.9,51.0,30.25,East,84,3.0,5.0,65,0.00,,---,0.00,VWS V14.00,2013-05-25 11:47:00,
2013-05-25 06:48:00,62.9,51.0,30.25,East,84,3.0,4.0,65,0.00,,---,0.00,VWS V14.00,2013-05-25 11:48:00,
2013-05-25 06:49:00,62.9,51.0,30.25,East,84,0.0,3.0,65,0.00,,---,0.00,VWS V14.00,2013-05-25 11:49:00,
2013-05-25 06:50:00,62.9,50.5,30.25,East,84,0.0,1.0,64,0.00,,---,0.00,VWS V14.00,2013-05-25 11:50:00,
2013-05-25 06:51:00,62.9,51.0,30.25,East,84,0.0,3.0,65,0.00,,---,0.00,VWS V14.00,2013-05-25 11:51:00,
2013-05-25 06:52:00,62.9,51.0,30.24,East,84,0.0,0.0,65,0.00,,---,0.00,VWS V14.00,2013-05-25 11:52:00,
2013-05-25 06:53:00,62.9,51.0,30.24,East,84,0.0,0.0,65,0.00,,---,0.00,VWS V14.00,2013-05-25 11:53:00,
2013-05-25 06:54:00,62.9,51.0,30.24,East,84,0.0,0.0,65,0.00,,---,0.00,VWS V14.00,2013-05-25 11:54:00,
2013-05-25 06:55:00,62.9,51.0,30.24,East,84,3.0,3.0,65,0.00,,---,0.00,VWS V14.00,2013-05-25 11:55:00,
2013-05-25 06:56:00,62.9,51.0,30.24,East,84,0.0,0.0,65,0.00,,---,0.00,VWS V14.00,2013-05-25 11:56:00,
2013-05-25 06:57:00,62.9,51.4,30.24,East,85,2.0,2.0,66,0.00,,---,0.00,VWS V14.00,2013-05-25 11:57:00,
2013-05-25 06:58:00,62.9,51.4,30.24,East,85,0.0,1.0,66,0.00,,---,0.00,VWS V14.00,2013-05-25 11:58:00,
2013-05-25 06:59:00,62.7,51.6,30.24,East,85,0.0,0.0,67,0.00,,---,0.00,VWS V14.00,2013-05-25 11:59:00,
2013-05-25 07:00:00,62.7,51.6,30.24,East,85,0.0,0.0,67,0.00,,---,0.00,VWS V14.00,2013-05-25 12:00:00,
2013-05-25 07:01:00,62.7,51.6,30.24,East,85,0.0,0.0,67,0.00,,---,0.00,VWS V14.00,2013-05-25 12:01:00,
2013-05-25 07:02:00,62.7,52.0,30.24,East,85,0.0,0.0,68,0.00,,---,0.00,VWS V14.00,2013-05-25 12:02:00,
2013-05-25 07:03:00,62.7,51.6,30.24,East,85,2.0,3.0,67,0.00,,---,0.00,VWS V14.00,2013-05-25 12:03:00,
2013-05-25 07:04:00,62.7,52.0,30.24,East,86,0.0,2.0,68,0.00,,---,0.00,VWS V14.00,2013-05-25 12:04:00,
2013-05-25 07:05:00,62.7,52.0,30.24,East,86,0.0,0.0,68,0.00,,---,0.00,VWS V14.00,2013-05-25 12:05:00,
2013-05-25 07:06:00,62.7,52.0,30.24,East,86,0.0,2.0,68,0.00,,---,0.00,VWS V14.00,2013-05-25 12:06:00,
2013-05-25 07:07:00,62.6,51.9,30.24,East,86,0.0,0.0,68,0.00,,---,0.00,VWS V14.00,2013-05-25 12:07:00,
2013-05-25 07:08:00,62.6,51.5,30.24,ENE,77,0.0,1.0,67,0.00,,---,0.00,VWS V14.00,2013-05-25 12:08:00,
2013-05-25 07:09:00,62.6,51.1,30.24,ENE,77,0.0,0.0,66,0.00,,---,0.00,VWS V14.00,2013-05-25 12:09:00,
2013-05-25 07:10:00,62.7,51.6,30.24,ENE,77,0.0,0.0,67,0.00,,---,0.00,VWS V14.00,2013-05-25 12:10:00,
2013-05-25 07:11:00,62.6,51.1,30.24,ENE,77,0.0,0.0,66,0.00,,---,0.00,VWS V14.00,2013-05-25 12:11:00,
2013-05-25 07:12:00,62.7,51.6,30.24,East,80,1.0,1.0,67,0.00,,---,0.00,VWS V14.00,2013-05-25 12:12:00,
2013-05-25 07:13:00,62.9,51.4,30.24,East,82,1.0,2.0,66,0.00,,---,0.00,VWS V14.00,2013-05-25 12:13:00,
2013-05-25 07:14:00,62.9,51.4,30.24,East,82,0.0,1.0,66,0.00,,---,0.00,VWS V14.00,2013-05-25 12:14:00,
2013-05-25 07:15:00,63.1,51.6,30.24,East,82,0.0,1.0,66,0.00,,---,0.00,VWS V14.00,2013-05-25 12:15:00,
2013-05-25 07:16:00,62.9,51.4,30.24,East,82,0.0,1.0,66,0.00,,---,0.00,VWS V14.00,2013-05-25 12:16:00,
2013-05-25 07:17:00,63.1,51.2,30.24,East,83,2.0,3.0,65,0.00,,---,0.00,VWS V14.00,2013-05-25 12:17:00,
2013-05-25 07:18:00,63.2,51.7,30.24,East,82,2.0,4.0,66,0.00,,---,0.00,VWS V14.00,2013-05-25 12:18:00,
2013-05-25 07:19:00,63.2,51.2,30.24,East,83,3.0,5.0,65,0.00,,---,0.00,VWS V14.00,2013-05-25 12:19:00,
2013-05-25 07:20:00,63.2,51.2,30.24,East,83,1.0,4.0,65,0.00,,---,0.00,VWS V14.00,2013-05-25 12:20:00,
2013-05-25 07:21:00,63.2,51.2,30.24,East,83,4.0,5.0,65,0.00,,---,0.00,VWS V14.00,2013-05-25 12:21:00,
2013-05-25 07:22:00,63.2,51.7,30.24,East,83,1.0,4.0,66,0.00,,---,0.00,VWS V14.00,2013-05-25 12:22:00,
2013-05-25 07:23:00,63.2,51.2,30.24,East,83,3.0,4.0,65,0.00,,---,0.00,VWS V14.00,2013-05-25 12:23:00,
2013-05-25 07:24:00,63.2,51.2,30.24,East,83,0.0,3.0,65,0.00,,---,0.00,VWS V14.00,2013-05-25 12:24:00,
2013-05-25 07:25:00,63.2,51.2,30.24,ENE,72,1.0,2.0,65,0.00,,---,0.00,VWS V14.00,2013-05-25 12:25:00,
2013-05-25 07:26:00,63.2,51.2,30.24,East,83,1.0,3.0,65,0.00,,---,0.00,VWS V14.00,2013-05-25 12:26:00,
2013-05-25 07:27:00,63.2,51.2,30.24,ENE,72,4.0,5.0,65,0.00,,---,0.00,VWS V14.00,2013-05-25 12:27:00,
2013-05-25 07:28:00,63.2,51.7,30.24,ENE,73,3.0,5.0,66,0.00,,---,0.00,VWS V14.00,2013-05-25 12:28:00,
2013-05-25 07:29:00,63.2,51.7,30.24,ENE,73,0.0,3.0,66,0.00,,---,0.00,VWS V14.00,2013-05-25 12:29:00,
2013-05-25 07:30:00,63.2,51.7,30.24,ENE,73,0.0,0.0,66,0.00,,---,0.00,VWS V14.00,2013-05-25 12:30:00,
2013-05-25 07:31:00,63.2,51.7,30.24,ENE,73,0.0,3.0,66,0.00,,---,0.00,VWS V14.00,2013-05-25 12:31:00,
2013-05-25 07:32:00,63.2,51.7,30.24,ENE,73,0.0,3.0,66,0.00,,---,0.00,VWS V14.00,2013-05-25 12:32:00,
2013-05-25 07:33:00,63.2,52.1,30.24,ENE,73,0.0,0.0,67,0.00,,---,0.00,VWS V14.00,2013-05-25 12:33:00,
2013-05-25 07:34:00,63.2,51.2,30.24,ENE,73,0.0,3.0,65,0.00,,---,0.00,VWS V14.00,2013-05-25 12:34:00,
2013-05-25 07:35:00,63.4,51.4,30.24,ENE,73,4.0,4.0,65,0.00,,---,0.00,VWS V14.00,2013-05-25 12:35:00,
2013-05-25 07:36:00,63.2,51.2,30.24,ENE,73,0.0,3.0,65,0.00,,---,0.00,VWS V14.00,2013-05-25 12:36:00,
2013-05-25 07:37:00,63.4,51.0,30.24,ENE,73,0.0,2.0,64,0.00,,---,0.00,VWS V14.00,2013-05-25 12:37:00,
2013-05-25 07:38:00,63.4,51.0,30.24,ENE,73,0.0,0.0,64,0.00,,---,0.00,VWS V14.00,2013-05-25 12:38:00,
2013-05-25 07:39:00,63.5,51.1,30.24,ENE,73,0.0,2.0,64,0.00,,---,0.00,VWS V14.00,2013-05-25 12:39:00,
2013-05-25 07:40:00,63.5,51.1,30.24,ENE,73,0.0,0.0,64,0.00,,---,0.00,VWS V14.00,2013-05-25 12:40:00,
2013-05-25 07:41:00,63.5,51.1,30.24,ENE,73,0.0,2.0,64,0.00,,---,0.00,VWS V14.00,2013-05-25 12:41:00,
2013-05-25 07:42:00,63.5,51.1,30.24,ENE,73,2.0,3.0,64,0.00,,---,0.00,VWS V14.00,2013-05-25 12:42:00,
2013-05-25 07:43:00,63.5,50.7,30.24,ENE,74,2.0,3.0,63,0.00,,---,0.00,VWS V14.00,2013-05-25 12:43:00,
2013-05-25 07:44:00,63.7,50.9,30.24,ENE,74,3.0,4.0,63,0.00,,---,0.00,VWS V14.00,2013-05-25 12:44:00,
2013-05-25 07:45:00,63.7,50.9,30.24,ENE,78,3.0,4.0,63,0.00,,---,0.00,VWS V14.00,2013-05-25 12:45:00,
2013-05-25 07:46:00,63.5,50.7,30.24,ENE,74,3.0,4.0,63,0.00,,---,0.00,VWS V14.00,2013-05-25 12:46:00,
2013-05-25 07:47:00,63.7,51.3,30.23,East,80,5.0,5.0,64,0.00,,---,0.00,VWS V14.00,2013-05-25 12:47:00,
2013-05-25 07:48:00,63.7,51.3,30.23,East,80,4.0,5.0,64,0.00,,---,0.00,VWS V14.00,2013-05-25 12:48:00,
2013-05-25 07:49:00,63.9,51.5,30.23,East,80,9.0,10.0,64,0.00,,---,0.00,VWS V14.00,2013-05-25 12:49:00,
2013-05-25 07:50:00,63.9,50.6,30.23,East,80,6.0,9.0,62,0.00,,---,0.00,VWS V14.00,2013-05-25 12:50:00,
2013-05-25 07:51:00,63.9,51.5,30.23,East,80,10.0,10.0,64,0.00,,---,0.00,VWS V14.00,2013-05-25 12:51:00,
2013-05-25 07:52:00,64.0,51.2,30.23,East,81,7.0,12.0,63,0.00,,---,0.00,VWS V14.00,2013-05-25 12:52:00,
2013-05-25 07:53:00,64.0,50.7,30.23,East,82,12.0,12.0,62,0.00,,---,0.00,VWS V14.00,2013-05-25 12:53:00,
2013-05-25 07:54:00,64.0,50.7,30.23,ESE,117,9.0,12.0,62,0.00,,---,0.00,VWS V14.00,2013-05-25 12:54:00,
2013-05-25 07:55:00,64.0,51.2,30.23,ESE,112,9.0,11.0,63,0.00,,---,0.00,VWS V14.00,2013-05-25 12:55:00,
2013-05-25 07:56:00,64.0,50.7,30.23,ESE,115,8.0,12.0,62,0.00,,---,0.00,VWS V14.00,2013-05-25 12:56:00,
2013-05-25 07:57:00,64.2,51.8,30.23,SE,130,10.0,11.0,64,0.00,,---,0.00,VWS V14.00,2013-05-25 12:57:00,
2013-05-25 07:58:00,64.2,51.4,30.23,ESE,118,10.0,11.0,63,0.00,,---,0.00,VWS V14.00,2013-05-25 12:58:00,
2013-05-25 07:59:00,64.2,51.8,30.23,ESE,115,5.0,10.0,64,0.00,,---,0.00,VWS V14.00,2013-05-25 12:59:00,
2013-05-25 08:00:00,64.3,52.3,30.23,ESE,114,9.0,10.0,65,0.00,,---,0.00,VWS V14.00,2013-05-25 13:00:00,
2013-05-25 08:01:00,64.2,51.8,30.23,ESE,115,5.0,10.0,64,0.00,,---,0.00,VWS V14.00,2013-05-25 13:01:00,
2013-05-25 08:02:00,64.3,51.5,30.24,ESE,113,0.0,5.0,63,0.00,,---,0.00,VWS V14.00,2013-05-25 13:02:00,
2013-05-25 08:03:00,64.3,51.5,30.24,ESE,112,7.0,9.0,63,0.00,,---,0.00,VWS V14.00,2013-05-25 13:03:00,
2013-05-25 08:04:00,64.3,51.0,30.24,ESE,111,5.0,9.0,62,0.00,,---,0.00,VWS V14.00,2013-05-25 13:04:00,
2013-05-25 08:05:00,64.5,51.6,30.24,ESE,111,3.0,7.0,63,0.00,,---,0.00,VWS V14.00,2013-05-25 13:05:00,
2013-05-25 08:06:00,64.3,51.0,30.24,ESE,112,5.0,9.0,62,0.00,,---,0.00,VWS V14.00,2013-05-25 13:06:00,
2013-05-25 08:07:00,64.5,51.6,30.24,ESE,111,4.0,6.0,63,0.00,,---,0.00,VWS V14.00,2013-05-25 13:07:00,
2013-05-25 08:08:00,64.5,51.6,30.24,ESE,111,0.0,4.0,63,0.00,,---,0.00,VWS V14.00,2013-05-25 13:08:00,
2013-05-25 08:09:00,64.5,51.6,30.24,ESE,112,5.0,7.0,63,0.00,,---,0.00,VWS V14.00,2013-05-25 13:09:00,
2013-05-25 08:10:00,64.5,51.2,30.24,ESE,112,0.0,6.0,62,0.00,,---,0.00,VWS V14.00,2013-05-25 13:10:00,
2013-05-25 08:11:00,64.5,51.6,30.24,ESE,112,5.0,7.0,63,0.00,,---,0.00,VWS V14.00,2013-05-25 13:11:00,
2013-05-25 08:12:00,64.5,51.6,30.24,ESE,112,0.0,3.0,63,0.00,,---,0.00,VWS V14.00,2013-05-25 13:12:00,
2013-05-25 08:13:00,64.5,51.6,30.24,ESE,112,0.0,5.0,63,0.00,,---,0.00,VWS V14.00,2013-05-25 13:13:00,
2013-05-25 08:14:00,64.5,51.6,30.24,ESE,112,3.0,6.0,63,0.00,,---,0.00,VWS V14.00,2013-05-25 13:14:00,
2013-05-25 08:15:00,64.7,52.3,30.24,ESE,112,0.0,4.0,64,0.00,,---,0.00,VWS V14.00,2013-05-25 13:15:00,
2013-05-25 08:16:00,64.5,51.6,30.24,ESE,112,2.0,6.0,63,0.00,,---,0.00,VWS V14.00,2013-05-25 13:16:00,
2013-05-25 08:17:00,64.7,51.8,30.24,East,101,0.0,0.0,63,0.00,,---,0.00,VWS V14.00,2013-05-25 13:17:00,
2013-05-25 08:18:00,64.8,51.9,30.24,East,80,0.0,0.0,63,0.00,,---,0.00,VWS V14.00,2013-05-25 13:18:00,
2013-05-25 08:19:00,64.8,52.3,30.24,East,80,0.0,0.0,64,0.00,,---,0.00,VWS V14.00,2013-05-25 13:19:00,
2013-05-25 08:20:00,64.8,51.9,30.25,East,92,0.0,0.0,63,0.00,,---,0.00,VWS V14.00,2013-05-25 13:20:00,
2013-05-25 08:21:00,64.8,52.3,30.24,East,80,0.0,0.0,64,0.00,,---,0.00,VWS V14.00,2013-05-25 13:21:00,
2013-05-25 08:22:00,65.0,52.5,30.25,ENE,77,0.0,0.0,64,0.00,,---,0.00,VWS V14.00,2013-05-25 13:22:00,
2013-05-25 08:23:00,65.0,52.1,30.25,ENE,77,0.0,0.0,63,0.00,,---,0.00,VWS V14.00,2013-05-25 13:23:00,
2013-05-25 08:24:00,65.2,52.3,30.25,ENE,77,0.0,0.0,63,0.00,,---,0.00,VWS V14.00,2013-05-25 13:24:00,
2013-05-25 08:25:00,65.2,52.3,30.24,ENE,77,0.0,0.0,63,0.00,,---,0.00,VWS V14.00,2013-05-25 13:25:00,
2013-05-25 08:26:00,65.2,52.3,30.25,ENE,77,0.0,0.0,63,0.00,,---,0.00,VWS V14.00,2013-05-25 13:26:00,
2013-05-25 08:27:00,65.3,52.0,30.24,ENE,77,0.0,0.0,62,0.00,,---,0.00,VWS V14.00,2013-05-25 13:27:00,
2013-05-25 08:28:00,65.3,52.8,30.24,ENE,77,0.0,0.0,64,0.00,,---,0.00,VWS V14.00,2013-05-25 13:28:00,
2013-05-25 08:29:00,65.3,53.2,30.24,ENE,77,0.0,0.0,65,0.00,,---,0.00,VWS V14.00,2013-05-25 13:29:00,
2013-05-25 08:30:00,65.3,52.8,30.24,ENE,78,3.0,3.0,64,0.00,,---,0.00,VWS V14.00,2013-05-25 13:30:00,
2013-05-25 08:31:00,65.3,53.2,30.24,ENE,77,0.0,0.0,65,0.00,,---,0.00,VWS V14.00,2013-05-25 13:31:00,
2013-05-25 08:32:00,65.3,52.8,30.24,ENE,78,2.0,2.0,64,0.00,,---,0.00,VWS V14.00,2013-05-25 13:32:00,
2013-05-25 08:33:00,65.3,52.8,30.24,ENE,78,3.0,5.0,64,0.00,,---,0.00,VWS V14.00,2013-05-25 13:33:00,
2013-05-25 08:34:00,65.5,52.6,30.24,ENE,65,3.0,4.0,63,0.00,,---,0.00,VWS V14.00,2013-05-25 13:34:00,
2013-05-25 08:35:00,65.5,52.6,30.24,ENE,65,2.0,7.0,63,0.00,,---,0.00,VWS V14.00,2013-05-25 13:35:00,
2013-05-25 08:36:00,65.5,52.6,30.24,ENE,65,1.0,4.0,63,0.00,,---,0.00,VWS V14.00,2013-05-25 13:36:00,
2013-05-25 08:37:00,65.6,52.2,30.23,ENE,66,2.0,3.0,62,0.00,,---,0.00,VWS V14.00,2013-05-25 13:37:00,
2013-05-25 08:38:00,65.8,52.9,30.23,ENE,66,3.0,6.0,63,0.00,,---,0.00,VWS V14.00,2013-05-25 13:38:00,
2013-05-25 08:39:00,66.0,53.1,30.23,ENE,69,2.0,3.0,63,0.00,,---,0.00,VWS V14.00,2013-05-25 13:39:00,
2013-05-25 08:40:00,66.1,52.7,30.23,ENE,71,6.0,6.0,62,0.00,,---,0.00,VWS V14.00,2013-05-25 13:40:00,
2013-05-25 08:41:00,66.0,53.1,30.23,ENE,69,1.0,3.0,63,0.00,,---,0.00,VWS V14.00,2013-05-25 13:41:00,
2013-05-25 08:42:00,66.3,52.9,30.23,ENE,74,3.0,6.0,62,0.00,,---,0.00,VWS V14.00,2013-05-25 13:42:00,
2013-05-25 08:43:00,66.3,53.3,30.23,ENE,75,4.0,6.0,63,0.00,,---,0.00,VWS V14.00,2013-05-25 13:43:00,
2013-05-25 08:44:00,66.4,53.0,30.23,ESE,117,4.0,8.0,62,0.00,,---,0.00,VWS V14.00,2013-05-25 13:44:00,
2013-05-25 08:45:00,66.4,53.0,30.23,ESE,117,4.0,6.0,62,0.00,,---,0.00,VWS V14.00,2013-05-25 13:45:00,
2013-05-25 08:46:00,66.4,53.4,30.23,ESE,117,4.0,8.0,63,0.00,,---,0.00,VWS V14.00,2013-05-25 13:46:00,
2013-05-25 08:47:00,66.4,53.0,30.23,SE,126,7.0,9.0,62,0.00,,---,0.00,VWS V14.00,2013-05-25 13:47:00,
2013-05-25 08:48:00,66.6,52.8,30.23,SE,126,5.0,7.0,61,0.00,,---,0.00,VWS V14.00,2013-05-25 13:48:00,
2013-05-25 08:49:00,66.8,52.9,30.23,SE,130,10.0,10.0,61,0.00,,---,0.00,VWS V14.00,2013-05-25 13:49:00,
2013-05-25 08:50:00,66.8,52.9,30.23,SE,131,8.0,10.0,61,0.00,,---,0.00,VWS V14.00,2013-05-25 13:50:00,
2013-05-25 08:51:00,66.6,52.8,30.23,SE,127,9.0,10.0,61,0.00,,---,0.00,VWS V14.00,2013-05-25 13:51:00,
2013-05-25 08:52:00,66.9,52.6,30.23,SE,135,7.0,10.0,60,0.00,,---,0.00,VWS V14.00,2013-05-25 13:52:00,
2013-05-25 08:53:00,66.9,53.0,30.23,SE,138,6.0,10.0,61,0.00,,---,0.00,VWS V14.00,2013-05-25 13:53:00,
2013-05-25 08:54:00,66.9,52.6,30.23,SE,138,9.0,10.0,60,0.00,,---,0.00,VWS V14.00,2013-05-25 13:54:00,
2013-05-25 08:55:00,66.9,52.6,30.23,SE,138,6.0,9.0,60,0.00,,---,0.00,VWS V14.00,2013-05-25 13:55:00,
2013-05-25 08:56:00,66.9,52.6,30.23,SE,138,7.0,10.0,60,0.00,,---,0.00,VWS V14.00,2013-05-25 13:56:00,
2013-05-25 08:57:00,66.9,52.6,30.23,SE,138,8.0,10.0,60,0.00,,---,0.00,VWS V14.00,2013-05-25 13:57:00,
2013-05-25 08:58:00,66.9,52.6,30.23,SE,139,7.0,10.0,60,0.00,,---,0.00,VWS V14.00,2013-05-25 13:58:00,
2013-05-25 08:59:00,67.1,52.8,30.23,SE,139,7.0,9.0,60,0.00,,---,0.00,VWS V14.00,2013-05-25 13:59:00,
2013-05-25 09:00:00,67.1,53.7,30.23,SE,139,7.0,10.0,62,0.00,,---,0.00,VWS V14.00,2013-05-25 14:00:00,
2013-05-25 09:01:00,67.1,52.8,30.23,SE,139,9.0,9.0,60,0.00,,---,0.00,VWS V14.00,2013-05-25 14:01:00,
2013-05-25 09:02:00,67.1,53.2,30.23,SE,139,6.0,10.0,61,0.00,,---,0.00,VWS V14.00,2013-05-25 14:02:00,
2013-05-25 09:03:00,67.3,53.0,30.23,SE,139,6.0,7.0,60,0.00,,---,0.00,VWS V14.00,2013-05-25 14:03:00,
2013-05-25 09:04:00,67.4,53.5,30.23,SE,139,8.0,8.0,61,0.00,,---,0.00,VWS V14.00,2013-05-25 14:04:00,
2013-05-25 09:05:00,67.4,53.5,30.23,SE,139,3.0,9.0,61,0.00,,---,0.00,VWS V14.00,2013-05-25 14:05:00,
2013-05-25 09:06:00,67.3,53.4,30.23,SE,139,7.0,7.0,61,0.00,,---,0.00,VWS V14.00,2013-05-25 14:06:00,
2013-05-25 09:07:00,67.6,52.8,30.23,SE,144,6.0,10.0,59,0.00,,---,0.00,VWS V14.00,2013-05-25 14:07:00,
2013-05-25 09:08:00,67.6,52.8,30.23,SE,144,3.0,10.0,59,0.00,,---,0.00,VWS V14.00,2013-05-25 14:08:00,
2013-05-25 09:09:00,67.6,53.2,30.23,SE,143,8.0,8.0,60,0.00,,---,0.00,VWS V14.00,2013-05-25 14:09:00,
2013-05-25 09:10:00,67.6,53.2,30.23,SE,143,8.0,9.0,60,0.00,,---,0.00,VWS V14.00,2013-05-25 14:10:00,
2013-05-25 09:11:00,67.6,53.2,30.23,SE,143,7.0,7.0,60,0.00,,---,0.00,VWS V14.00,2013-05-25 14:11:00,
2013-05-25 09:12:00,67.8,53.4,30.23,SE,143,5.0,7.0,60,0.00,,---,0.00,VWS V14.00,2013-05-25 14:12:00,
2013-05-25 09:13:00,67.8,53.4,30.23,SE,143,7.0,9.0,60,0.00,,---,0.00,VWS V14.00,2013-05-25 14:13:00,
2013-05-25 09:14:00,67.8,53.9,30.23,SE,143,9.0,10.0,61,0.00,,---,0.00,VWS V14.00,2013-05-25 14:14:00,
2013-05-25 09:15:00,67.8,53.0,30.23,SE,143,10.0,10.0,59,0.00,,---,0.00,VWS V14.00,2013-05-25 14:15:00,
2013-05-25 09:16:00,67.8,53.9,30.23,SE,143,10.0,10.0,61,0.00,,---,0.00,VWS V14.00,2013-05-25 14:16:00,
2013-05-25 09:17:00,67.8,53.4,30.23,ESE,109,6.0,9.0,60,0.00,,---,0.00,VWS V14.00,2013-05-25 14:17:00,
2013-05-25 09:18:00,67.9,53.5,30.23,SE,127,11.0,11.0,60,0.00,,---,0.00,VWS V14.00,2013-05-25 14:18:00,
2013-05-25 09:19:00,67.9,52.6,30.23,SE,131,5.0,11.0,58,0.00,,---,0.00,VWS V14.00,2013-05-25 14:19:00,
2013-05-25 09:20:00,67.9,53.5,30.23,East,96,5.0,9.0,60,0.00,,---,0.00,VWS V14.00,2013-05-25 14:20:00,
2013-05-25 09:21:00,67.9,53.1,30.23,SE,130,7.0,11.0,59,0.00,,---,0.00,VWS V14.00,2013-05-25 14:21:00,
2013-05-25 09:22:00,68.1,53.2,30.23,SE,134,4.0,9.0,59,0.00,,---,0.00,VWS V14.00,2013-05-25 14:22:00,
2013-05-25 09:23:00,68.3,53.9,30.23,SE,136,6.0,6.0,60,0.00,,---,0.00,VWS V14.00,2013-05-25 14:23:00,
2013-05-25 09:24:00,68.3,53.4,30.23,SE,136,6.0,9.0,59,0.00,,---,0.00,VWS V14.00,2013-05-25 14:24:00,
2013-05-25 09:25:00,68.4,53.5,30.23,SE,136,8.0,8.0,59,0.00,,---,0.00,VWS V14.00,2013-05-25 14:25:00,
2013-05-25 09:26:00,68.3,53.4,30.23,SE,137,6.0,9.0,59,0.00,,---,0.00,VWS V14.00,2013-05-25 14:26:00,
2013-05-25 09:27:00,68.4,53.5,30.23,SE,137,5.0,10.0,59,0.00,,---,0.00,VWS V14.00,2013-05-25 14:27:00,
2013-05-25 09:28:00,68.6,53.7,30.23,SE,137,9.0,9.0,59,0.00,,---,0.00,VWS V14.00,2013-05-25 14:28:00,
2013-05-25 09:29:00,68.6,54.2,30.22,SE,137,7.0,11.0,60,0.00,,---,0.00,VWS V14.00,2013-05-25 14:29:00,
2013-05-25 09:30:00,68.6,53.7,30.22,SE,137,10.0,10.0,59,0.00,,---,0.00,VWS V14.00,2013-05-25 14:30:00,
2013-05-25 09:31:00,68.6,54.2,30.22,SE,137,9.0,11.0,60,0.00,,---,0.00,VWS V14.00,2013-05-25 14:31:00,
2013-05-25 09:32:00,68.6,54.2,30.22,SE,138,2.0,11.0,60,0.00,,---,0.00,VWS V14.00,2013-05-25 14:32:00,
2013-05-25 09:33:00,68.8,53.9,30.22,SE,138,6.0,11.0,59,0.00,,---,0.00,VWS V14.00,2013-05-25 14:33:00,
2013-05-25 09:34:00,68.8,53.9,30.22,SE,139,5.0,9.0,59,0.00,,---,0.00,VWS V14.00,2013-05-25 14:34:00,
2013-05-25 09:35:00,68.9,54.0,30.22,SSE,159,10.0,14.0,59,0.00,,---,0.00,VWS V14.00,2013-05-25 14:35:00,
2013-05-25 09:36:00,68.8,53.9,30.22,SE,139,8.0,9.0,59,0.00,,---,0.00,VWS V14.00,2013-05-25 14:36:00,
2013-05-25 09:37:00,69.3,53.9,30.22,South,169,4.0,12.0,58,0.00,,---,0.00,VWS V14.00,2013-05-25 14:37:00,
2013-05-25 09:38:00,69.4,53.5,30.22,South,172,3.0,10.0,57,0.00,,---,0.00,VWS V14.00,2013-05-25 14:38:00,
2013-05-25 09:39:00,69.4,53.5,30.22,South,169,2.0,7.0,57,0.00,,---,0.00,VWS V14.00,2013-05-25 14:39:00,
2013-05-25 09:40:00,69.4,53.5,30.22,South,172,5.0,6.0,57,0.00,,---,0.00,VWS V14.00,2013-05-25 14:40:00,
2013-05-25 09:41:00,69.8,53.4,30.22,South,173,6.0,12.0,56,0.00,,---,0.00,VWS V14.00,2013-05-25 14:41:00,
2013-05-25 09:42:00,69.8,53.4,30.21,SSE,153,5.0,12.0,56,0.00,,---,0.00,VWS V14.00,2013-05-25 14:42:00,
2013-05-25 09:43:00,69.8,53.4,30.21,SSE,155,6.0,11.0,56,0.00,,---,0.00,VWS V14.00,2013-05-25 14:43:00,
2013-05-25 09:44:00,69.8,52.9,30.21,SE,144,10.0,13.0,55,0.00,,---,0.00,VWS V14.00,2013-05-25 14:44:00,
2013-05-25 09:45:00,69.8,52.9,30.21,SE,140,11.0,13.0,55,0.00,,---,0.00,VWS V14.00,2013-05-25 14:45:00,
2013-05-25 09:46:00,69.9,53.5,30.21,SSE,165,7.0,9.0,56,0.00,,---,0.00,VWS V14.00,2013-05-25 14:46:00,
2013-05-25 09:47:00,69.9,54.0,30.21,SSE,161,9.0,9.0,57,0.00,,---,0.00,VWS V14.00,2013-05-25 14:47:00,
2013-05-25 09:48:00,69.9,53.5,30.21,SSE,150,11.0,11.0,56,0.00,,---,0.00,VWS V14.00,2013-05-25 14:48:00,
2013-05-25 09:49:00,69.9,53.0,30.21,SSE,148,9.0,13.0,55,0.00,,---,0.00,VWS V14.00,2013-05-25 14:49:00,
2013-05-25 09:50:00,69.9,53.5,30.21,SE,138,12.0,12.0,56,0.00,,---,0.00,VWS V14.00,2013-05-25 14:50:00,
2013-05-25 09:51:00,69.9,53.5,30.21,SE,145,9.0,13.0,56,0.00,,---,0.00,VWS V14.00,2013-05-25 14:51:00,
2013-05-25 09:52:00,69.9,53.5,30.21,SSE,165,6.0,13.0,56,0.00,,---,0.00,VWS V14.00,2013-05-25 14:52:00,
2013-05-25 09:53:00,69.9,53.0,30.21,SSW,192,12.0,12.0,55,0.00,,---,0.00,VWS V14.00,2013-05-25 14:53:00,
2013-05-25 09:54:00,69.9,53.5,30.22,South,189,2.0,12.0,56,0.00,,---,0.00,VWS V14.00,2013-05-25 14:54:00,
2013-05-25 09:55:00,69.9,53.0,30.21,South,189,4.0,12.0,55,0.00,,---,0.00,VWS V14.00,2013-05-25 14:55:00,
2013-05-25 09:56:00,70.3,54.4,30.22,South,191,0.0,4.0,57,0.00,,---,0.00,VWS V14.00,2013-05-25 14:56:00,
2013-05-25 09:57:00,70.4,54.0,30.22,SSE,159,6.0,12.0,56,0.00,,---,0.00,VWS V14.00,2013-05-25 14:57:00,
2013-05-25 09:58:00,70.4,53.5,30.22,SSE,159,2.0,9.0,55,0.00,,---,0.00,VWS V14.00,2013-05-25 14:58:00,
2013-05-25 09:59:00,70.6,53.7,30.22,SSE,158,10.0,10.0,55,0.00,,---,0.00,VWS V14.00,2013-05-25 14:59:00,
2013-05-25 10:00:00,70.6,53.7,30.22,SSE,159,6.0,7.0,55,0.00,,---,0.00,VWS V14.00,2013-05-25 15:00:00,
2013-05-25 10:01:00,70.8,53.8,30.21,SSE,168,8.0,11.0,55,0.00,,---,0.00,VWS V14.00,2013-05-25 15:01:00,
2013-05-25 10:02:00,70.8,54.3,30.21,SSE,163,10.0,10.0,56,0.00,,---,0.00,VWS V14.00,2013-05-25 15:02:00,
2013-05-25 10:03:00,70.8,54.3,30.21,SSE,167,7.0,10.0,56,0.00,,---,0.00,VWS V14.00,2013-05-25 15:03:00,
2013-05-25 10:04:00,70.8,53.8,30.21,South,180,6.0,13.0,55,0.00,,---,0.00,VWS V14.00,2013-05-25 15:04:00,
2013-05-25 10:05:00,70.8,53.8,30.21,South,177,7.0,13.0,55,0.00,,---,0.00,VWS V14.00,2013-05-25 15:05:00,
2013-05-25 10:06:00,70.8,53.8,30.21,South,170,4.0,10.0,55,0.00,,---,0.00,VWS V14.00,2013-05-25 15:06:00,
2013-05-25 10:07:00,70.8,53.8,30.21,SSE,150,4.0,11.0,55,0.00,,---,0.00,VWS V14.00,2013-05-25 15:07:00,
2013-05-25 10:08:00,70.8,53.3,30.21,SSE,160,7.0,10.0,54,0.00,,---,0.00,VWS V14.00,2013-05-25 15:08:00,
2013-05-25 10:09:00,70.8,53.8,30.21,SSE,161,6.0,7.0,55,0.00,,---,0.00,VWS V14.00,2013-05-25 15:09:00,
2013-05-25 10:10:00,70.8,53.8,30.21,SSE,161,6.0,7.0,55,0.00,,---,0.00,VWS V14.00,2013-05-25 15:10:00,
2013-05-25 10:11:00,70.9,54.0,30.21,ESE,113,3.0,11.0,55,0.00,,---,0.00,VWS V14.00,2013-05-25 15:11:00,
2013-05-25 10:12:00,70.9,53.4,30.21,SSE,153,3.0,11.0,54,0.00,,---,0.00,VWS V14.00,2013-05-25 15:12:00,
2013-05-25 10:13:00,71.1,54.1,30.21,SE,134,16.0,16.0,55,0.00,,---,0.00,VWS V14.00,2013-05-25 15:13:00,
2013-05-25 10:14:00,70.9,53.4,30.21,SE,138,10.0,16.0,54,0.00,,---,0.00,VWS V14.00,2013-05-25 15:14:00,
2013-05-25 10:15:00,70.9,53.4,30.21,SE,141,12.0,16.0,54,0.00,,---,0.00,VWS V14.00,2013-05-25 15:15:00,
2013-05-25 10:16:00,70.9,54.0,30.21,SSE,164,8.0,12.0,55,0.00,,---,0.00,VWS V14.00,2013-05-25 15:16:00,
2013-05-25 10:17:00,70.9,54.0,30.21,SSE,168,5.0,10.0,55,0.00,,---,0.00,VWS V14.00,2013-05-25 15:17:00,
2013-05-25 10:18:00,70.9,54.0,30.21,SE,144,13.0,17.0,55,0.00,,---,0.00,VWS V14.00,2013-05-25 15:18:00,
2013-05-25 10:19:00,70.9,52.9,30.21,SE,140,10.0,17.0,53,0.00,,---,0.00,VWS V14.00,2013-05-25 15:19:00,
2013-05-25 10:20:00,70.9,54.0,30.21,SE,138,14.0,17.0,55,0.00,,---,0.00,VWS V14.00,2013-05-25 15:20:00,
2013-05-25 10:21:00,70.9,53.4,30.21,SE,144,4.0,7.0,54,0.00,,---,0.00,VWS V14.00,2013-05-25 15:21:00,
2013-05-25 10:22:00,70.9,54.0,30.21,SE,142,9.0,9.0,55,0.00,,---,0.00,VWS V14.00,2013-05-25 15:22:00,
2013-05-25 10:23:00,71.1,54.1,30.21,SSE,148,2.0,9.0,55,0.00,,---,0.00,VWS V14.00,2013-05-25 15:23:00,
2013-05-25 10:24:00,71.1,54.1,30.20,SE,146,5.0,9.0,55,0.00,,---,0.00,VWS V14.00,2013-05-25 15:24:00,
2013-05-25 10:25:00,71.1,54.1,30.20,SE,146,4.0,9.0,55,0.00,,---,0.00,VWS V14.00,2013-05-25 15:25:00,
2013-05-25 10:26:00,71.5,54.5,30.21,SSE,148,9.0,11.0,55,0.00,,---,0.00,VWS V14.00,2013-05-25 15:26:00,
2013-05-25 10:27:00,71.5,54.0,30.21,SSE,147,1.0,9.0,54,0.00,,---,0.00,VWS V14.00,2013-05-25 15:27:00,
2013-05-25 10:28:00,71.5,54.5,30.20,SE,140,10.0,13.0,55,0.00,,---,0.00,VWS V14.00,2013-05-25 15:28:00,
2013-05-25 10:29:00,71.5,54.0,30.20,SE,145,5.0,14.0,54,0.00,,---,0.00,VWS V14.00,2013-05-25 15:29:00,
2013-05-25 10:30:00,71.5,54.0,30.20,SSE,152,7.0,14.0,54,0.00,,---,0.00,VWS V14.00,2013-05-25 15:30:00,
2013-05-25 10:31:00,71.5,53.5,30.20,SSE,159,6.0,12.0,53,0.00,,---,0.00,VWS V14.00,2013-05-25 15:31:00,
2013-05-25 10:32:00,71.5,53.5,30.20,SSE,161,9.0,13.0,53,0.00,,---,0.00,VWS V14.00,2013-05-25 15:32:00,
2013-05-25 10:33:00,71.5,53.5,30.20,SSE,159,5.0,10.0,53,0.00,,---,0.00,VWS V14.00,2013-05-25 15:33:00,
2013-05-25 10:34:00,71.5,54.0,30.20,SSE,164,5.0,10.0,54,0.00,,---,0.00,VWS V14.00,2013-05-25 15:34:00,
2013-05-25 10:35:00,71.5,54.0,30.20,SSE,164,5.0,10.0,54,0.00,,---,0.00,VWS V14.00,2013-05-25 15:35:00,
2013-05-25 10:36:00,71.6,54.6,30.20,SSE,155,6.0,10.0,55,0.00,,---,0.00,VWS V14.00,2013-05-25 15:36:00,
2013-05-25 10:37:00,71.6,54.6,30.21,SSE,155,5.0,10.0,55,0.00,,---,0.00,VWS V14.00,2013-05-25 15:37:00,
2013-05-25 10:38:00,71.6,54.6,30.21,SSE,154,9.0,11.0,55,0.00,,---,0.00,VWS V14.00,2013-05-25 15:38:00,
2013-05-25 10:39:00,71.8,54.3,30.21,SE,137,13.0,14.0,54,0.00,,---,0.00,VWS V14.00,2013-05-25 15:39:00,
2013-05-25 10:40:00,71.8,54.3,30.21,SSE,157,9.0,9.0,54,0.00,,---,0.00,VWS V14.00,2013-05-25 15:40:00,
2013-05-25 10:41:00,72.0,54.5,30.21,SE,131,8.0,13.0,54,0.00,,---,0.00,VWS V14.00,2013-05-25 15:41:00,
2013-05-25 10:42:00,72.1,54.6,30.21,ESE,121,5.0,13.0,54,0.00,,---,0.00,VWS V14.00,2013-05-25 15:42:00,
2013-05-25 10:43:00,72.1,54.6,30.21,South,172,5.0,8.0,54,0.00,,---,0.00,VWS V14.00,2013-05-25 15:43:00,
2013-05-25 10:44:00,72.1,54.0,30.21,SE,130,4.0,14.0,53,0.00,,---,0.00,VWS V14.00,2013-05-25 15:44:00,
2013-05-25 10:45:00,72.1,54.0,30.21,SE,130,9.0,14.0,53,0.00,,---,0.00,VWS V14.00,2013-05-25 15:45:00,
2013-05-25 10:46:00,72.3,54.7,30.21,SE,132,8.0,11.0,54,0.00,,---,0.00,VWS V14.00,2013-05-25 15:46:00,
2013-05-25 10:47:00,72.3,54.7,30.21,SE,132,3.0,9.0,54,0.00,,---,0.00,VWS V14.00,2013-05-25 15:47:00,
2013-05-25 10:48:00,72.5,54.9,30.20,SE,131,10.0,12.0,54,0.00,,---,0.00,VWS V14.00,2013-05-25 15:48:00,
2013-05-25 10:49:00,72.3,54.7,30.20,SE,139,13.0,15.0,54,0.00,,---,0.00,VWS V14.00,2013-05-25 15:49:00,
2013-05-25 10:50:00,72.5,54.9,30.20,SSE,161,10.0,15.0,54,0.00,,---,0.00,VWS V14.00,2013-05-25 15:50:00,
2013-05-25 10:51:00,72.3,54.2,30.20,SE,141,11.0,13.0,53,0.00,,---,0.00,VWS V14.00,2013-05-25 15:51:00,
2013-05-25 10:52:00,72.3,54.7,30.20,South,171,5.0,11.0,54,0.00,,---,0.00,VWS V14.00,2013-05-25 15:52:00,
2013-05-25 10:53:00,72.3,54.2,30.20,SSE,153,5.0,12.0,53,0.00,,---,0.00,VWS V14.00,2013-05-25 15:53:00,
2013-05-25 10:54:00,72.3,54.7,30.20,SSE,165,8.0,9.0,54,0.00,,---,0.00,VWS V14.00,2013-05-25 15:54:00,
2013-05-25 10:55:00,72.3,54.2,30.20,SSE,161,9.0,9.0,53,0.00,,---,0.00,VWS V14.00,2013-05-25 15:55:00,
2013-05-25 10:56:00,72.7,55.1,30.20,SSE,164,7.0,7.0,54,0.00,,---,0.00,VWS V14.00,2013-05-25 15:56:00,
2013-05-25 10:57:00,72.7,54.6,30.20,SSE,154,10.0,13.0,53,0.00,,---,0.00,VWS V14.00,2013-05-25 15:57:00,
2013-05-25 10:58:00,72.7,54.1,30.20,SSE,150,7.0,12.0,52,0.00,,---,0.00,VWS V14.00,2013-05-25 15:58:00,
2013-05-25 10:59:00,72.5,53.9,30.20,SE,142,8.0,16.0,52,0.00,,---,0.00,VWS V14.00,2013-05-25 15:59:00,
2013-05-25 11:00:00,72.7,54.1,30.20,SE,137,13.0,16.0,52,0.00,,---,0.00,VWS V14.00,2013-05-25 16:00:00,
2013-05-25 11:01:00,72.5,54.4,30.20,South,174,4.0,14.0,53,0.00,,---,0.00,VWS V14.00,2013-05-25 16:01:00,
2013-05-25 11:02:00,72.5,53.9,30.20,SSE,165,4.0,12.0,52,0.00,,---,0.00,VWS V14.00,2013-05-25 16:02:00,
2013-05-25 11:03:00,72.5,54.4,30.20,South,185,4.0,15.0,53,0.00,,---,0.00,VWS V14.00,2013-05-25 16:03:00,
2013-05-25 11:04:00,72.7,54.1,30.20,South,176,2.0,11.0,52,0.00,,---,0.00,VWS V14.00,2013-05-25 16:04:00,
2013-05-25 11:05:00,72.7,54.1,30.20,South,171,7.0,11.0,52,0.00,,---,0.00,VWS V14.00,2013-05-25 16:05:00,
2013-05-25 11:06:00,72.8,54.7,30.20,SSE,162,10.0,11.0,53,0.00,,---,0.00,VWS V14.00,2013-05-25 16:06:00,
2013-05-25 11:07:00,72.8,54.7,30.20,SSE,167,9.0,10.0,53,0.00,,---,0.00,VWS V14.00,2013-05-25 16:07:00,
2013-05-25 11:08:00,73.0,54.9,30.20,SSE,159,12.0,13.0,53,0.00,,---,0.00,VWS V14.00,2013-05-25 16:08:00,
2013-05-25 11:09:00,73.0,54.4,30.20,SSE,161,9.0,12.0,52,0.00,,---,0.00,VWS V14.00,2013-05-25 16:09:00,
2013-05-25 11:10:00,73.0,54.4,30.20,SSE,159,3.0,12.0,52,0.00,,---,0.00,VWS V14.00,2013-05-25 16:10:00,
2013-05-25 11:11:00,73.0,54.9,30.20,ESE,118,10.0,10.0,53,0.00,,---,0.00,VWS V14.00,2013-05-25 16:11:00,
2013-05-25 11:12:00,73.2,54.5,30.20,ESE,113,5.0,10.0,52,0.00,,---,0.00,VWS V14.00,2013-05-25 16:12:00,
2013-05-25 11:13:00,73.2,55.1,30.20,ESE,114,11.0,11.0,53,0.00,,---,0.00,VWS V14.00,2013-05-25 16:13:00,
2013-05-25 11:14:00,73.2,54.5,30.20,SSE,165,7.0,15.0,52,0.00,,---,0.00,VWS V14.00,2013-05-25 16:14:00,
2013-05-25 11:15:00,73.2,54.5,30.20,SSE,168,10.0,15.0,52,0.00,,---,0.00,VWS V14.00,2013-05-25 16:15:00,
2013-05-25 11:16:00,73.3,55.2,30.20,SSE,163,7.0,8.0,53,0.00,,---,0.00,VWS V14.00,2013-05-25 16:16:00,
2013-05-25 11:17:00,73.3,54.6,30.20,South,175,5.0,14.0,52,0.00,,---,0.00,VWS V14.00,2013-05-25 16:17:00,
2013-05-25 11:18:00,73.3,55.2,30.20,South,178,9.0,12.0,53,0.00,,---,0.00,VWS V14.00,2013-05-25 16:18:00,
2013-05-25 11:19:00,73.5,55.3,30.20,SSW,207,9.0,14.0,53,0.00,,---,0.00,VWS V14.00,2013-05-25 16:19:00,
2013-05-25 11:20:00,73.5,55.3,30.20,SSW,204,6.0,12.0,53,0.00,,---,0.00,VWS V14.00,2013-05-25 16:20:00,
2013-05-25 11:21:00,73.7,55.5,30.20,South,180,5.0,11.0,53,0.00,,---,0.00,VWS V14.00,2013-05-25 16:21:00,
2013-05-25 11:22:00,73.7,55.5,30.20,SSW,200,9.0,13.0,53,0.00,,---,0.00,VWS V14.00,2013-05-25 16:22:00,
2013-05-25 11:23:00,73.7,55.5,30.20,South,180,4.0,12.0,53,0.00,,---,0.00,VWS V14.00,2013-05-25 16:23:00,
2013-05-25 11:24:00,73.9,55.7,30.19,South,178,6.0,9.0,53,0.00,,---,0.00,VWS V14.00,2013-05-25 16:24:00,
2013-05-25 11:25:00,73.9,55.7,30.20,South,179,4.0,7.0,53,0.00,,---,0.00,VWS V14.00,2013-05-25 16:25:00,
2013-05-25 11:26:00,73.9,55.2,30.20,SSE,157,7.0,14.0,52,0.00,,---,0.00,VWS V14.00,2013-05-25 16:26:00,
2013-05-25 11:27:00,73.7,55.0,30.20,SSE,158,8.0,13.0,52,0.00,,---,0.00,VWS V14.00,2013-05-25 16:27:00,
2013-05-25 11:28:00,73.9,55.2,30.20,SSE,153,10.0,13.0,52,0.00,,---,0.00,VWS V14.00,2013-05-25 16:28:00,
2013-05-25 11:29:00,73.7,55.5,30.20,SSE,157,9.0,10.0,53,0.00,,---,0.00,VWS V14.00,2013-05-25 16:29:00,
2013-05-25 11:30:00,73.7,55.0,30.20,SSE,158,10.0,10.0,52,0.00,,---,0.00,VWS V14.00,2013-05-25 16:30:00,
2013-05-25 11:31:00,73.7,55.5,30.19,SSE,156,10.0,14.0,53,0.00,,---,0.00,VWS V14.00,2013-05-25 16:31:00,
2013-05-25 11:32:00,73.7,55.0,30.20,SSE,153,13.0,16.0,52,0.00,,---,0.00,VWS V14.00,2013-05-25 16:32:00,
2013-05-25 11:33:00,73.5,54.8,30.20,SSE,157,6.0,14.0,52,0.00,,---,0.00,VWS V14.00,2013-05-25 16:33:00,
2013-05-25 11:34:00,73.5,55.3,30.20,South,169,12.0,12.0,53,0.00,,---,0.00,VWS V14.00,2013-05-25 16:34:00,
2013-05-25 11:35:00,73.5,54.8,30.20,South,188,6.0,12.0,52,0.00,,---,0.00,VWS V14.00,2013-05-25 16:35:00,
2013-05-25 11:36:00,73.5,55.3,30.20,South,179,7.0,13.0,53,0.00,,---,0.00,VWS V14.00,2013-05-25 16:36:00,
2013-05-25 11:37:00,73.5,55.3,30.20,SSE,164,12.0,13.0,53,0.00,,---,0.00,VWS V14.00,2013-05-25 16:37:00,
2013-05-25 11:38:00,73.5,55.3,30.20,SSE,161,9.0,12.0,53,0.00,,---,0.00,VWS V14.00,2013-05-25 16:38:00,
2013-05-25 11:39:00,73.5,55.3,30.20,South,190,10.0,10.0,53,0.00,,---,0.00,VWS V14.00,2013-05-25 16:39:00,
2013-05-25 11:40:00,73.5,54.8,30.20,SSE,161,7.0,9.0,52,0.00,,---,0.00,VWS V14.00,2013-05-25 16:40:00,
2013-05-25 11:41:00,73.7,55.5,30.19,South,188,3.0,15.0,53,0.00,,---,0.00,VWS V14.00,2013-05-25 16:41:00,
2013-05-25 11:42:00,73.7,55.5,30.19,SE,138,10.0,10.0,53,0.00,,---,0.00,VWS V14.00,2013-05-25 16:42:00,
2013-05-25 11:43:00,73.7,55.5,30.20,SE,126,4.0,15.0,53,0.00,,---,0.00,VWS V14.00,2013-05-25 16:43:00,
2013-05-25 11:44:00,73.9,56.2,30.19,SE,127,10.0,11.0,54,0.00,,---,0.00,VWS V14.00,2013-05-25 16:44:00,
2013-05-25 11:45:00,73.9,56.2,30.20,SE,126,2.0,5.0,54,0.00,,---,0.00,VWS V14.00,2013-05-25 16:45:00,
2013-05-25 11:46:00,73.9,55.7,30.19,ESE,121,6.0,11.0,53,0.00,,---,0.00,VWS V14.00,2013-05-25 16:46:00,
2013-05-25 11:47:00,74.0,55.8,30.19,SSE,158,3.0,8.0,53,0.00,,---,0.00,VWS V14.00,2013-05-25 16:47:00,
2013-05-25 11:48:00,74.0,56.3,30.19,South,174,8.0,9.0,54,0.00,,---,0.00,VWS V14.00,2013-05-25 16:48:00,
2013-05-25 11:49:00,74.0,56.3,30.19,SSW,197,4.0,11.0,54,0.00,,---,0.00,VWS V14.00,2013-05-25 16:49:00,
2013-05-25 11:50:00,74.0,56.3,30.19,South,174,6.0,8.0,54,0.00,,---,0.00,VWS V14.00,2013-05-25 16:50:00,
2013-05-25 11:51:00,74.2,56.0,30.19,South,174,10.0,11.0,53,0.00,,---,0.00,VWS V14.00,2013-05-25 16:51:00,
2013-05-25 11:52:00,74.0,55.8,30.19,SSE,157,10.0,15.0,53,0.00,,---,0.00,VWS V14.00,2013-05-25 16:52:00,
2013-05-25 11:53:00,74.0,55.8,30.19,SSW,193,4.0,11.0,53,0.00,,---,0.00,VWS V14.00,2013-05-25 16:53:00,
2013-05-25 11:54:00,74.0,55.8,30.19,SSW,213,4.0,13.0,53,0.00,,---,0.00,VWS V14.00,2013-05-25 16:54:00,
2013-05-25 11:55:00,74.0,55.8,30.19,SW,217,3.0,13.0,53,0.00,,---,0.00,VWS V14.00,2013-05-25 16:55:00,
2013-05-25 11:56:00,74.0,55.8,30.19,SSE,157,10.0,13.0,53,0.00,,---,0.00,VWS V14.00,2013-05-25 16:56:00,
2013-05-25 11:57:00,73.9,55.2,30.20,SSE,168,4.0,14.0,52,0.00,,---,0.00,VWS V14.00,2013-05-25 16:57:00,
2013-05-25 11:58:00,73.9,55.7,30.19,SE,131,1.0,5.0,53,0.00,,---,0.00,VWS V14.00,2013-05-25 16:58:00,
2013-05-25 11:59:00,74.0,56.3,30.19,SSW,193,9.0,9.0,54,0.00,,---,0.00,VWS V14.00,2013-05-25 16:59:00,
2013-05-25 12:00:00,73.9,55.7,30.19,SE,131,0.0,3.0,53,0.00,,---,0.00,VWS V14.00,2013-05-25 17:00:00,
2013-05-25 12:01:00,74.0,55.8,30.20,South,182,10.0,10.0,53,0.00,,---,0.00,VWS V14.00,2013-05-25 17:01:00,
2013-05-25 12:02:00,74.0,55.8,30.20,SSE,152,5.0,14.0,53,0.00,,---,0.00,VWS V14.00,2013-05-25 17:02:00,
2013-05-25 12:03:00,74.0,55.3,30.20,SSE,164,5.0,14.0,52,0.00,,---,0.00,VWS V14.00,2013-05-25 17:03:00,
2013-05-25 12:04:00,73.9,56.2,30.20,SE,141,9.0,9.0,54,0.00,,---,0.00,VWS V14.00,2013-05-25 17:04:00,
2013-05-25 12:05:00,73.9,55.2,30.20,South,169,6.0,7.0,52,0.00,,---,0.00,VWS V14.00,2013-05-25 17:05:00,
2013-05-25 12:06:00,73.9,55.7,30.20,SSE,157,4.0,17.0,53,0.00,,---,0.00,VWS V14.00,2013-05-25 17:06:00,
2013-05-25 12:07:00,73.9,56.2,30.20,SSE,153,9.0,12.0,54,0.00,,---,0.00,VWS V14.00,2013-05-25 17:07:00,
2013-05-25 12:08:00,73.9,56.2,30.20,SSE,148,12.0,15.0,54,0.00,,---,0.00,VWS V14.00,2013-05-25 17:08:00,
2013-05-25 12:09:00,73.9,56.2,30.20,SSE,155,1.0,12.0,54,0.00,,---,0.00,VWS V14.00,2013-05-25 17:09:00,
2013-05-25 12:10:00,73.9,56.2,30.20,SSE,155,4.0,12.0,54,0.00,,---,0.00,VWS V14.00,2013-05-25 17:10:00,
2013-05-25 12:11:00,73.9,55.7,30.20,SSE,157,2.0,12.0,53,0.00,,---,0.00,VWS V14.00,2013-05-25 17:11:00,
2013-05-25 12:12:00,73.9,55.7,30.20,SSE,153,5.0,11.0,53,0.00,,---,0.00,VWS V14.00,2013-05-25 17:12:00,
2013-05-25 12:13:00,73.9,56.2,30.20,SSE,151,9.0,12.0,54,0.00,,---,0.00,VWS V14.00,2013-05-25 17:13:00,
2013-05-25 12:14:00,73.9,56.2,30.20,SSE,148,7.0,12.0,54,0.00,,---,0.00,VWS V14.00,2013-05-25 17:14:00,
2013-05-25 12:15:00,73.9,56.2,30.20,SSE,149,9.0,12.0,54,0.00,,---,0.00,VWS V14.00,2013-05-25 17:15:00,
2013-05-25 12:16:00,73.9,56.7,30.20,SSE,154,7.0,12.0,55,0.00,,---,0.00,VWS V14.00,2013-05-25 17:16:00,
2013-05-25 12:17:00,73.9,56.2,30.20,SE,143,9.0,13.0,54,0.00,,---,0.00,VWS V14.00,2013-05-25 17:17:00,
2013-05-25 12:18:00,74.0,56.8,30.20,SSE,150,4.0,15.0,55,0.00,,---,0.00,VWS V14.00,2013-05-25 17:18:00,
2013-05-25 12:19:00,74.2,57.0,30.20,SSE,148,9.0,12.0,55,0.00,,---,0.00,VWS V14.00,2013-05-25 17:19:00,
2013-05-25 12:20:00,74.2,57.0,30.20,SSE,153,6.0,11.0,55,0.00,,---,0.00,VWS V14.00,2013-05-25 17:20:00,
2013-05-25 12:21:00,74.4,57.2,30.20,SE,139,6.0,13.0,55,0.00,,---,0.00,VWS V14.00,2013-05-25 17:21:00,
2013-05-25 12:22:00,74.4,57.2,30.20,SE,140,2.0,6.0,55,0.00,,---,0.00,VWS V14.00,2013-05-25 17:22:00,
2013-05-25 12:23:00,74.6,57.4,30.19,SSW,213,2.0,9.0,55,0.00,,---,0.00,VWS V14.00,2013-05-25 17:23:00,
2013-05-25 12:24:00,74.7,58.0,30.19,SSE,150,9.0,11.0,56,0.00,,---,0.00,VWS V14.00,2013-05-25 17:24:00,
2013-05-25 12:25:00,74.6,57.9,30.19,South,175,10.0,10.0,56,0.00,,---,0.00,VWS V14.00,2013-05-25 17:25:00,
2013-05-25 12:26:00,75.1,57.8,30.19,SSE,150,3.0,5.0,55,0.00,,---,0.00,VWS V14.00,2013-05-25 17:26:00,
2013-05-25 12:27:00,75.3,58.0,30.19,SSE,150,9.0,9.0,55,0.00,,---,0.00,VWS V14.00,2013-05-25 17:27:00,
2013-05-25 12:28:00,75.3,57.5,30.19,SSE,147,9.0,16.0,54,0.00,,---,0.00,VWS V14.00,2013-05-25 17:28:00,
2013-05-25 12:29:00,75.3,57.5,30.19,SSE,148,9.0,11.0,54,0.00,,---,0.00,VWS V14.00,2013-05-25 17:29:00,
2013-05-25 12:30:00,75.3,57.5,30.19,SSE,148,7.0,11.0,54,0.00,,---,0.00,VWS V14.00,2013-05-25 17:30:00,
2013-05-25 12:31:00,75.3,57.5,30.19,SSW,197,13.0,13.0,54,0.00,,---,0.00,VWS V14.00,2013-05-25 17:31:00,
2013-05-25 12:32:00,75.4,58.1,30.19,SSE,155,5.0,13.0,55,0.00,,---,0.00,VWS V14.00,2013-05-25 17:32:00,
2013-05-25 12:33:00,75.4,57.6,30.19,SSE,162,5.0,7.0,54,0.00,,---,0.00,VWS V14.00,2013-05-25 17:33:00,
2013-05-25 12:34:00,75.4,57.6,30.19,SSE,159,3.0,10.0,54,0.00,,---,0.00,VWS V14.00,2013-05-25 17:34:00,
2013-05-25 12:35:00,75.4,57.6,30.19,SSE,159,5.0,10.0,54,0.00,,---,0.00,VWS V14.00,2013-05-25 17:35:00,
2013-05-25 12:36:00,75.4,57.6,30.19,SE,141,10.0,14.0,54,0.00,,---,0.00,VWS V14.00,2013-05-25 17:36:00,
2013-05-25 12:37:00,75.4,57.6,30.19,SE,142,6.0,15.0,54,0.00,,---,0.00,VWS V14.00,2013-05-25 17:37:00,
2013-05-25 12:38:00,75.3,57.5,30.19,SSE,154,12.0,12.0,54,0.00,,---,0.00,VWS V14.00,2013-05-25 17:38:00,
2013-05-25 12:39:00,75.3,57.5,30.19,SSE,161,1.0,12.0,54,0.00,,---,0.00,VWS V14.00,2013-05-25 17:39:00,
2013-05-25 12:40:00,75.3,57.5,30.19,SSE,161,5.0,12.0,54,0.00,,---,0.00,VWS V14.00,2013-05-25 17:40:00,
2013-05-25 12:41:00,75.4,58.1,30.19,SSE,156,6.0,15.0,55,0.00,,---,0.00,VWS V14.00,2013-05-25 17:41:00,
2013-05-25 12:42:00,75.4,57.6,30.19,SE,138,10.0,14.0,54,0.00,,---,0.00,VWS V14.00,2013-05-25 17:42:00,
2013-05-25 12:43:00,75.3,58.0,30.19,SE,136,11.0,12.0,55,0.00,,---,0.00,VWS V14.00,2013-05-25 17:43:00,
2013-05-25 12:44:00,75.1,57.3,30.19,SE,136,7.0,11.0,54,0.00,,---,0.00,VWS V14.00,2013-05-25 17:44:00,
2013-05-25 12:45:00,75.3,57.0,30.19,SE,136,9.0,11.0,53,0.00,,---,0.00,VWS V14.00,2013-05-25 17:45:00,
2013-05-25 12:46:00,75.1,57.8,30.19,SE,136,8.0,10.0,55,0.00,,---,0.00,VWS V14.00,2013-05-25 17:46:00,
2013-05-25 12:47:00,75.1,57.8,30.19,SSE,158,11.0,12.0,55,0.00,,---,0.00,VWS V14.00,2013-05-25 17:47:00,
2013-05-25 12:49:00,75.3,58.0,30.19,SSE,161,0.0,12.0,55,0.00,,---,0.00,VWS V14.00,2013-05-25 17:49:00,
2013-05-25 12:50:00,75.1,57.8,30.19,SSE,159,9.0,12.0,55,0.00,,---,0.00,VWS V14.00,2013-05-25 17:50:00,
2013-05-25 12:51:00,75.4,58.1,30.19,SSE,156,6.0,11.0,55,0.00,,---,0.00,VWS V14.00,2013-05-25 17:51:00,
2013-05-25 12:52:00,75.3,58.5,30.19,SSE,152,4.0,10.0,56,0.00,,---,0.00,VWS V14.00,2013-05-25 17:52:00,
2013-05-25 12:53:00,75.4,59.6,30.19,SSE,151,5.0,9.0,58,0.00,,---,0.00,VWS V14.00,2013-05-25 17:53:00,
2013-05-25 12:54:00,75.6,58.8,30.19,SSE,151,6.0,9.0,56,0.00,,---,0.00,VWS V14.00,2013-05-25 17:54:00,
2013-05-25 12:55:00,75.6,58.8,30.19,SSE,151,6.0,6.0,56,0.00,,---,0.00,VWS V14.00,2013-05-25 17:55:00,
2013-05-25 12:56:00,76.0,58.7,30.19,SSE,151,6.0,7.0,55,0.00,,---,0.00,VWS V14.00,2013-05-25 17:56:00,
2013-05-25 12:57:00,76.1,59.3,30.19,SSE,155,6.0,7.0,56,0.00,,---,0.00,VWS V14.00,2013-05-25 17:57:00,
2013-05-25 12:58:00,76.3,59.0,30.19,SSE,155,5.0,6.0,55,0.00,,---,0.00,VWS V14.00,2013-05-25 17:58:00,
2013-05-25 12:59:00,76.3,59.0,30.19,SSE,157,6.0,14.0,55,0.00,,---,0.00,VWS V14.00,2013-05-25 17:59:00,
2013-05-25 13:00:00,76.3,59.0,30.19,SSE,158,5.0,14.0,55,0.00,,---,0.00,VWS V14.00,2013-05-25 18:00:00,
2013-05-25 13:01:00,76.3,59.0,30.19,SSE,151,13.0,13.0,55,0.00,,---,0.00,VWS V14.00,2013-05-25 18:01:00,
2013-05-25 13:02:00,76.3,58.5,30.19,SSE,166,6.0,13.0,54,0.00,,---,0.00,VWS V14.00,2013-05-25 18:02:00,
2013-05-25 13:03:00,76.3,59.0,30.19,SSE,168,2.0,10.0,55,0.00,,---,0.00,VWS V14.00,2013-05-25 18:03:00,
2013-05-25 13:04:00,76.5,59.2,30.19,SSE,167,6.0,8.0,55,0.00,,---,0.00,VWS V14.00,2013-05-25 18:04:00,
2013-05-25 13:05:00,76.5,59.2,30.19,SSE,168,1.0,4.0,55,0.00,,---,0.00,VWS V14.00,2013-05-25 18:05:00,
2013-05-25 13:06:00,76.5,59.2,30.19,SSE,166,5.0,10.0,55,0.00,,---,0.00,VWS V14.00,2013-05-25 18:06:00,
2013-05-25 13:07:00,76.7,59.3,30.19,SSE,166,0.0,5.0,55,0.00,,---,0.00,VWS V14.00,2013-05-25 18:07:00,
2013-05-25 13:08:00,76.7,59.3,30.19,SSE,163,8.0,9.0,55,0.00,,---,0.00,VWS V14.00,2013-05-25 18:08:00,
2013-05-25 13:09:00,76.7,59.8,30.19,SSE,164,5.0,8.0,56,0.00,,---,0.00,VWS V14.00,2013-05-25 18:09:00,
2013-05-25 13:10:00,76.7,59.3,30.19,SSE,164,1.0,8.0,55,0.00,,---,0.00,VWS V14.00,2013-05-25 18:10:00,
2013-05-25 13:11:00,76.7,59.3,30.19,SSE,164,0.0,1.0,55,0.00,,---,0.00,VWS V14.00,2013-05-25 18:11:00,
2013-05-25 13:12:00,76.8,59.9,30.19,SSE,164,2.0,7.0,56,0.00,,---,0.00,VWS V14.00,2013-05-25 18:12:00,
2013-05-25 13:13:00,76.8,59.4,30.19,SSE,157,7.0,10.0,55,0.00,,---,0.00,VWS V14.00,2013-05-25 18:13:00,
2013-05-25 13:14:00,76.8,59.4,30.19,SSE,165,5.0,9.0,55,0.00,,---,0.00,VWS V14.00,2013-05-25 18:14:00,
2013-05-25 13:15:00,76.7,59.3,30.19,SSE,164,4.0,9.0,55,0.00,,---,0.00,VWS V14.00,2013-05-25 18:15:00,
2013-05-25 13:16:00,76.8,59.9,30.19,SSE,165,2.0,5.0,56,0.00,,---,0.00,VWS V14.00,2013-05-25 18:16:00,
2013-05-25 13:17:00,77.0,60.6,30.19,SSE,165,7.0,7.0,57,0.00,,---,0.00,VWS V14.00,2013-05-25 18:17:00,
2013-05-25 13:18:00,77.0,60.1,30.19,SSE,165,4.0,7.0,56,0.00,,---,0.00,VWS V14.00,2013-05-25 18:18:00,
2013-05-25 13:19:00,77.2,59.8,30.19,SSE,166,7.0,7.0,55,0.00,,---,0.00,VWS V14.00,2013-05-25 18:19:00,
2013-05-25 13:20:00,77.2,60.3,30.19,SSE,165,4.0,4.0,56,0.00,,---,0.00,VWS V14.00,2013-05-25 18:20:00,
2013-05-25 13:21:00,77.0,59.6,30.18,South,170,4.0,5.0,55,0.00,,---,0.00,VWS V14.00,2013-05-25 18:21:00,
2013-05-25 13:22:00,77.0,59.6,30.18,South,170,0.0,4.0,55,0.00,,---,0.00,VWS V14.00,2013-05-25 18:22:00,
2013-05-25 13:23:00,77.2,60.3,30.18,SSW,203,6.0,8.0,56,0.00,,---,0.00,VWS V14.00,2013-05-25 18:23:00,
2013-05-25 13:24:00,77.4,60.5,30.18,SSW,192,6.0,7.0,56,0.00,,---,0.00,VWS V14.00,2013-05-25 18:24:00,
2013-05-25 13:25:00,77.2,60.3,30.18,SSW,203,4.0,6.0,56,0.00,,---,0.00,VWS V14.00,2013-05-25 18:25:00,
2013-05-25 13:26:00,77.2,59.8,30.18,South,172,4.0,6.0,55,0.00,,---,0.00,VWS V14.00,2013-05-25 18:26:00,
2013-05-25 13:27:00,77.2,60.3,30.18,SSE,162,11.0,11.0,56,0.00,,---,0.00,VWS V14.00,2013-05-25 18:27:00,
2013-05-25 13:28:00,77.2,60.3,30.18,SSE,161,3.0,11.0,56,0.00,,---,0.00,VWS V14.00,2013-05-25 18:28:00,
2013-05-25 13:29:00,77.2,60.3,30.18,SSE,161,5.0,6.0,56,0.00,,---,0.00,VWS V14.00,2013-05-25 18:29:00,
2013-05-25 13:30:00,77.2,60.3,30.18,SSE,161,1.0,6.0,56,0.00,,---,0.00,VWS V14.00,2013-05-25 18:30:00,
2013-05-25 13:31:00,76.8,59.4,30.18,SSE,161,4.0,7.0,55,0.00,,---,0.00,VWS V14.00,2013-05-25 18:31:00,
2013-05-25 13:32:00,76.8,59.4,30.18,SE,142,12.0,16.0,55,0.00,,---,0.00,VWS V14.00,2013-05-25 18:32:00,
2013-05-25 13:33:00,76.8,59.9,30.18,SE,138,11.0,13.0,56,0.00,,---,0.00,VWS V14.00,2013-05-25 18:33:00,
2013-05-25 13:34:00,76.8,59.9,30.18,SE,139,9.0,12.0,56,0.00,,---,0.00,VWS V14.00,2013-05-25 18:34:00,
2013-05-25 13:35:00,76.7,59.8,30.18,SE,139,10.0,12.0,56,0.00,,---,0.00,VWS V14.00,2013-05-25 18:35:00,
2013-05-25 13:36:00,76.8,59.9,30.18,SE,137,2.0,11.0,56,0.00,,---,0.00,VWS V14.00,2013-05-25 18:36:00,
2013-05-25 13:37:00,76.8,59.9,30.18,SE,134,5.0,10.0,56,0.00,,---,0.00,VWS V14.00,2013-05-25 18:37:00,
2013-05-25 13:38:00,76.8,59.9,30.18,SE,134,4.0,7.0,56,0.00,,---,0.00,VWS V14.00,2013-05-25 18:38:00,
2013-05-25 13:39:00,77.0,60.1,30.18,SE,136,5.0,5.0,56,0.00,,---,0.00,VWS V14.00,2013-05-25 18:39:00,
2013-05-25 13:40:00,77.0,60.1,30.18,SE,136,1.0,5.0,56,0.00,,---,0.00,VWS V14.00,2013-05-25 18:40:00,
2013-05-25 13:41:00,76.8,59.9,30.18,SE,135,9.0,12.0,56,0.00,,---,0.00,VWS V14.00,2013-05-25 18:41:00,
2013-05-25 13:42:00,76.8,59.9,30.18,SSE,153,7.0,12.0,56,0.00,,---,0.00,VWS V14.00,2013-05-25 18:42:00,
2013-05-25 13:43:00,76.8,59.9,30.18,SSE,153,1.0,7.0,56,0.00,,---,0.00,VWS V14.00,2013-05-25 18:43:00,
2013-05-25 13:44:00,76.8,60.4,30.18,SSE,153,3.0,4.0,57,0.00,,---,0.00,VWS V14.00,2013-05-25 18:44:00,
2013-05-25 13:45:00,76.8,59.9,30.18,SSE,153,4.0,4.0,56,0.00,,---,0.00,VWS V14.00,2013-05-25 18:45:00,
2013-05-25 13:46:00,77.2,60.8,30.18,SSE,153,2.0,6.0,57,0.00,,---,0.00,VWS V14.00,2013-05-25 18:46:00,
2013-05-25 13:47:00,77.2,60.8,30.18,SSE,153,3.0,5.0,57,0.00,,---,0.00,VWS V14.00,2013-05-25 18:47:00,
2013-05-25 13:48:00,77.2,59.8,30.18,SSE,153,4.0,5.0,55,0.00,,---,0.00,VWS V14.00,2013-05-25 18:48:00,
2013-05-25 13:49:00,77.2,60.3,30.18,SSE,153,3.0,5.0,56,0.00,,---,0.00,VWS V14.00,2013-05-25 18:49:00,
2013-05-25 13:50:00,77.2,59.8,30.18,SSE,153,4.0,4.0,55,0.00,,---,0.00,VWS V14.00,2013-05-25 18:50:00,
2013-05-25 13:51:00,77.2,60.8,30.17,SSE,155,2.0,2.0,57,0.00,,---,0.00,VWS V14.00,2013-05-25 18:51:00,
2013-05-25 13:52:00,77.2,61.3,30.17,SSE,154,5.0,7.0,58,0.00,,---,0.00,VWS V14.00,2013-05-25 18:52:00,
2013-05-25 13:53:00,77.4,61.0,30.17,SSE,154,2.0,5.0,57,0.00,,---,0.00,VWS V14.00,2013-05-25 18:53:00,
2013-05-25 13:54:00,77.4,62.0,30.18,SSE,154,0.0,3.0,59,0.00,,---,0.00,VWS V14.00,2013-05-25 18:54:00,
2013-05-25 13:55:00,77.4,61.5,30.17,SSE,154,0.0,3.0,58,0.00,,---,0.00,VWS V14.00,2013-05-25 18:55:00,
2013-05-25 13:56:00,78.1,62.1,30.17,South,169,2.0,7.0,58,0.00,,---,0.00,VWS V14.00,2013-05-25 18:56:00,
2013-05-25 13:57:00,78.1,61.6,30.17,South,171,2.0,7.0,57,0.00,,---,0.00,VWS V14.00,2013-05-25 18:57:00,
2013-05-25 13:58:00,78.3,61.8,30.17,South,171,0.0,2.0,57,0.00,,---,0.00,VWS V14.00,2013-05-25 18:58:00,
2013-05-25 13:59:00,78.5,62.0,30.17,South,171,0.0,1.0,57,0.00,,---,0.00,VWS V14.00,2013-05-25 18:59:00,
2013-05-25 14:00:00,78.3,61.8,30.17,South,171,0.0,1.0,57,0.00,,---,0.00,VWS V14.00,2013-05-25 19:00:00,
2013-05-25 14:01:00,78.6,61.6,30.17,South,171,0.0,0.0,56,0.00,,---,0.00,VWS V14.00,2013-05-25 19:01:00,
2013-05-25 14:02:00,78.6,61.6,30.17,South,171,6.0,6.0,56,0.00,,---,0.00,VWS V14.00,2013-05-25 19:02:00,
2013-05-25 14:03:00,78.6,61.6,30.17,South,172,0.0,6.0,56,0.00,,---,0.00,VWS V14.00,2013-05-25 19:03:00,
2013-05-25 14:04:00,78.8,62.3,30.17,South,172,5.0,5.0,57,0.00,,---,0.00,VWS V14.00,2013-05-25 19:04:00,
2013-05-25 14:05:00,78.8,62.3,30.17,South,172,1.0,2.0,57,0.00,,---,0.00,VWS V14.00,2013-05-25 19:05:00,
2013-05-25 14:06:00,78.8,61.8,30.17,South,172,0.0,3.0,56,0.00,,---,0.00,VWS V14.00,2013-05-25 19:06:00,
2013-05-25 14:07:00,78.8,61.8,30.17,South,171,5.0,5.0,56,0.00,,---,0.00,VWS V14.00,2013-05-25 19:07:00,
2013-05-25 14:08:00,78.8,61.8,30.17,SSE,153,7.0,12.0,56,0.00,,---,0.00,VWS V14.00,2013-05-25 19:08:00,
2013-05-25 14:09:00,78.8,62.3,30.17,South,181,6.0,11.0,57,0.00,,---,0.00,VWS V14.00,2013-05-25 19:09:00,
2013-05-25 14:10:00,78.8,61.8,30.17,South,186,9.0,11.0,56,0.00,,---,0.00,VWS V14.00,2013-05-25 19:10:00,
2013-05-25 14:11:00,78.8,61.8,30.17,South,181,2.0,5.0,56,0.00,,---,0.00,VWS V14.00,2013-05-25 19:11:00,
2013-05-25 14:12:00,78.6,61.1,30.17,SE,141,8.0,11.0,55,0.00,,---,0.00,VWS V14.00,2013-05-25 19:12:00,
2013-05-25 14:13:00,78.5,61.5,30.17,SE,140,4.0,10.0,56,0.00,,---,0.00,VWS V14.00,2013-05-25 19:13:00,
2013-05-25 14:14:00,78.5,61.5,30.17,SE,140,2.0,6.0,56,0.00,,---,0.00,VWS V14.00,2013-05-25 19:14:00,
2013-05-25 14:15:00,78.5,61.5,30.17,SE,140,4.0,5.0,56,0.00,,---,0.00,VWS V14.00,2013-05-25 19:15:00,
2013-05-25 14:16:00,78.5,61.5,30.17,SE,142,1.0,6.0,56,0.00,,---,0.00,VWS V14.00,2013-05-25 19:16:00,
2013-05-25 14:17:00,78.5,61.5,30.17,SE,145,3.0,9.0,56,0.00,,---,0.00,VWS V14.00,2013-05-25 19:17:00,
2013-05-25 14:18:00,78.5,62.0,30.17,SE,145,6.0,7.0,57,0.00,,---,0.00,VWS V14.00,2013-05-25 19:18:00,
2013-05-25 14:19:00,78.6,61.6,30.17,SE,146,3.0,9.0,56,0.00,,---,0.00,VWS V14.00,2013-05-25 19:19:00,
2013-05-25 14:20:00,78.5,62.0,30.17,SSE,147,6.0,9.0,57,0.00,,---,0.00,VWS V14.00,2013-05-25 19:20:00,
2013-05-25 14:21:00,78.6,61.6,30.17,South,182,6.0,6.0,56,0.00,,---,0.00,VWS V14.00,2013-05-25 19:21:00,
2013-05-25 14:22:00,78.6,61.6,30.17,South,182,0.0,6.0,56,0.00,,---,0.00,VWS V14.00,2013-05-25 19:22:00,
2013-05-25 14:23:00,78.8,61.8,30.17,South,183,2.0,4.0,56,0.00,,---,0.00,VWS V14.00,2013-05-25 19:23:00,
2013-05-25 14:24:00,78.8,61.8,30.17,South,184,0.0,6.0,56,0.00,,---,0.00,VWS V14.00,2013-05-25 19:24:00,
2013-05-25 14:25:00,78.8,61.8,30.17,South,184,6.0,6.0,56,0.00,,---,0.00,VWS V14.00,2013-05-25 19:25:00,
2013-05-25 14:26:00,79.0,61.5,30.16,South,184,2.0,5.0,55,0.00,,---,0.00,VWS V14.00,2013-05-25 19:26:00,
2013-05-25 14:27:00,79.0,62.0,30.16,South,182,4.0,6.0,56,0.00,,---,0.00,VWS V14.00,2013-05-25 19:27:00,
2013-05-25 14:28:00,79.0,62.0,30.16,South,181,7.0,7.0,56,0.00,,---,0.00,VWS V14.00,2013-05-25 19:28:00,
2013-05-25 14:29:00,79.0,62.0,30.17,South,181,4.0,7.0,56,0.00,,---,0.00,VWS V14.00,2013-05-25 19:29:00,
2013-05-25 14:30:00,79.0,62.0,30.17,South,181,4.0,7.0,56,0.00,,---,0.00,VWS V14.00,2013-05-25 19:30:00,
2013-05-25 14:31:00,78.8,61.8,30.16,South,180,6.0,7.0,56,0.00,,---,0.00,VWS V14.00,2013-05-25 19:31:00,
2013-05-25 14:32:00,78.8,61.8,30.16,SSE,164,5.0,13.0,56,0.00,,---,0.00,VWS V14.00,2013-05-25 19:32:00,
2013-05-25 14:33:00,78.8,61.8,30.16,SSE,164,6.0,7.0,56,0.00,,---,0.00,VWS V14.00,2013-05-25 19:33:00,
2013-05-25 14:34:00,78.8,61.8,30.16,SSE,164,6.0,7.0,56,0.00,,---,0.00,VWS V14.00,2013-05-25 19:34:00,
2013-05-25 14:35:00,78.8,61.8,30.16,SSE,164,7.0,7.0,56,0.00,,---,0.00,VWS V14.00,2013-05-25 19:35:00,
2013-05-25 14:36:00,78.8,62.3,30.16,SSE,163,3.0,6.0,57,0.00,,---,0.00,VWS V14.00,2013-05-25 19:36:00,
2013-05-25 14:37:00,78.8,62.3,30.16,SSE,154,11.0,13.0,57,0.00,,---,0.00,VWS V14.00,2013-05-25 19:37:00,
2013-05-25 14:38:00,78.8,62.3,30.16,SSE,151,7.0,12.0,57,0.00,,---,0.00,VWS V14.00,2013-05-25 19:38:00,
2013-05-25 14:39:00,78.8,62.3,30.16,SSE,151,6.0,10.0,57,0.00,,---,0.00,VWS V14.00,2013-05-25 19:39:00,
2013-05-25 14:40:00,78.8,62.3,30.16,SSE,151,7.0,7.0,57,0.00,,---,0.00,VWS V14.00,2013-05-25 19:40:00,
2013-05-25 14:41:00,78.6,62.6,30.16,SSE,151,4.0,6.0,58,0.00,,---,0.00,VWS V14.00,2013-05-25 19:41:00,
2013-05-25 14:42:00,78.6,62.1,30.16,SSE,151,1.0,8.0,57,0.00,,---,0.00,VWS V14.00,2013-05-25 19:42:00,
2013-05-25 14:43:00,78.6,62.1,30.16,SSE,151,3.0,5.0,57,0.00,,---,0.00,VWS V14.00,2013-05-25 19:43:00,
2013-05-25 14:44:00,78.6,62.1,30.16,SE,141,14.0,14.0,57,0.00,,---,0.00,VWS V14.00,2013-05-25 19:44:00,
2013-05-25 14:45:00,78.6,62.1,30.16,SSE,151,4.0,5.0,57,0.00,,---,0.00,VWS V14.00,2013-05-25 19:45:00,
2013-05-25 14:46:00,78.6,62.1,30.16,SE,136,4.0,11.0,57,0.00,,---,0.00,VWS V14.00,2013-05-25 19:46:00,
2013-05-25 14:47:00,78.6,62.6,30.16,SE,136,6.0,12.0,58,0.00,,---,0.00,VWS V14.00,2013-05-25 19:47:00,
2013-05-25 14:48:00,78.8,62.8,30.16,SSE,150,6.0,13.0,58,0.00,,---,0.00,VWS V14.00,2013-05-25 19:48:00,
2013-05-25 14:49:00,78.8,63.3,30.16,SSE,162,6.0,7.0,59,0.00,,---,0.00,VWS V14.00,2013-05-25 19:49:00,
2013-05-25 14:50:00,78.8,62.8,30.16,SSE,162,7.0,7.0,58,0.00,,---,0.00,VWS V14.00,2013-05-25 19:50:00,
2013-05-25 14:51:00,79.0,63.0,30.16,SSE,165,8.0,10.0,58,0.00,,---,0.00,VWS V14.00,2013-05-25 19:51:00,
2013-05-25 14:52:00,79.0,63.0,30.16,South,169,6.0,9.0,58,0.00,,---,0.00,VWS V14.00,2013-05-25 19:52:00,
2013-05-25 14:53:00,79.0,63.0,30.16,South,179,2.0,7.0,58,0.00,,---,0.00,VWS V14.00,2013-05-25 19:53:00,
2013-05-25 14:54:00,79.2,62.7,30.16,South,179,3.0,3.0,57,0.00,,---,0.00,VWS V14.00,2013-05-25 19:54:00,
2013-05-25 14:55:00,79.2,63.2,30.16,South,179,0.0,3.0,58,0.00,,---,0.00,VWS V14.00,2013-05-25 19:55:00,
2013-05-25 14:56:00,79.4,62.9,30.15,South,180,2.0,5.0,57,0.00,,---,0.00,VWS V14.00,2013-05-25 19:56:00,
2013-05-25 14:57:00,79.4,63.3,30.15,South,181,3.0,7.0,58,0.00,,---,0.00,VWS V14.00,2013-05-25 19:57:00,
2013-05-25 14:58:00,79.6,63.5,30.15,South,179,5.0,7.0,58,0.00,,---,0.00,VWS V14.00,2013-05-25 19:58:00,
2013-05-25 14:59:00,79.6,63.0,30.15,South,178,5.0,8.0,57,0.00,,---,0.00,VWS V14.00,2013-05-25 19:59:00,
2013-05-25 15:00:00,79.6,63.0,30.15,South,179,5.0,5.0,57,0.00,,---,0.00,VWS V14.00,2013-05-25 20:00:00,
2013-05-25 15:01:00,79.4,62.9,30.15,South,178,5.0,7.0,57,0.00,,---,0.00,VWS V14.00,2013-05-25 20:01:00,
2013-05-25 15:02:00,79.4,62.9,30.15,South,178,8.0,8.0,57,0.00,,---,0.00,VWS V14.00,2013-05-25 20:02:00,
2013-05-25 15:03:00,79.4,62.9,30.15,South,178,4.0,8.0,57,0.00,,---,0.00,VWS V14.00,2013-05-25 20:03:00,
2013-05-25 15:04:00,79.4,63.3,30.15,South,178,5.0,6.0,58,0.00,,---,0.00,VWS V14.00,2013-05-25 20:04:00,
2013-05-25 15:05:00,79.4,62.9,30.15,South,178,6.0,6.0,57,0.00,,---,0.00,VWS V14.00,2013-05-25 20:05:00,
2013-05-25 15:06:00,79.6,63.5,30.15,SE,142,10.0,11.0,58,0.00,,---,0.00,VWS V14.00,2013-05-25 20:06:00,
2013-05-25 15:07:00,79.6,63.5,30.15,SSE,147,6.0,11.0,58,0.00,,---,0.00,VWS V14.00,2013-05-25 20:07:00,
2013-05-25 15:08:00,79.6,63.5,30.15,SSE,153,1.0,10.0,58,0.00,,---,0.00,VWS V14.00,2013-05-25 20:08:00,
2013-05-25 15:09:00,79.8,63.7,30.15,SE,146,5.0,14.0,58,0.00,,---,0.00,VWS V14.00,2013-05-25 20:09:00,
2013-05-25 15:10:00,79.6,63.5,30.15,SSE,150,10.0,10.0,58,0.00,,---,0.00,VWS V14.00,2013-05-25 20:10:00,
2013-05-25 15:11:00,79.8,63.2,30.15,SSE,147,5.0,7.0,57,0.00,,---,0.00,VWS V14.00,2013-05-25 20:11:00,
2013-05-25 15:12:00,79.8,63.2,30.15,SSE,147,9.0,9.0,57,0.00,,---,0.00,VWS V14.00,2013-05-25 20:12:00,
2013-05-25 15:13:00,79.8,63.7,30.15,SE,144,9.0,12.0,58,0.00,,---,0.00,VWS V14.00,2013-05-25 20:13:00,
2013-05-25 15:14:00,79.6,63.0,30.15,SE,142,10.0,11.0,57,0.00,,---,0.00,VWS V14.00,2013-05-25 20:14:00,
2013-05-25 15:15:00,79.8,63.7,30.15,SE,144,9.0,10.0,58,0.00,,---,0.00,VWS V14.00,2013-05-25 20:15:00,
2013-05-25 15:16:00,79.6,63.5,30.15,SE,144,11.0,11.0,58,0.00,,---,0.00,VWS V14.00,2013-05-25 20:16:00,
2013-05-25 15:17:00,79.4,62.9,30.15,SE,144,6.0,12.0,57,0.00,,---,0.00,VWS V14.00,2013-05-25 20:17:00,
2013-05-25 15:18:00,79.4,63.3,30.15,SSE,155,6.0,10.0,58,0.00,,---,0.00,VWS V14.00,2013-05-25 20:18:00,
2013-05-25 15:19:00,79.4,63.3,30.15,SSE,153,7.0,8.0,58,0.00,,---,0.00,VWS V14.00,2013-05-25 20:19:00,
2013-05-25 15:20:00,79.4,63.3,30.15,SSE,155,4.0,6.0,58,0.00,,---,0.00,VWS V14.00,2013-05-25 20:20:00,
2013-05-25 15:21:00,79.4,63.3,30.15,South,175,9.0,12.0,58,0.00,,---,0.00,VWS V14.00,2013-05-25 20:21:00,
2013-05-25 15:22:00,79.6,63.0,30.15,South,173,4.0,9.0,57,0.00,,---,0.00,VWS V14.00,2013-05-25 20:22:00,
2013-05-25 15:23:00,79.8,63.2,30.15,South,173,3.0,4.0,57,0.00,,---,0.00,VWS V14.00,2013-05-25 20:23:00,
2013-05-25 15:24:00,79.9,63.8,30.14,SSE,149,7.0,9.0,58,0.00,,---,0.00,VWS V14.00,2013-05-25 20:24:00,
2013-05-25 15:25:00,79.8,63.2,30.15,SSE,157,4.0,6.0,57,0.00,,---,0.00,VWS V14.00,2013-05-25 20:25:00,
2013-05-25 15:26:00,80.1,63.5,30.14,South,169,6.0,9.0,57,0.00,,---,0.00,VWS V14.00,2013-05-25 20:26:00,
2013-05-25 15:27:00,80.3,63.2,30.14,South,178,5.0,10.0,56,0.00,,---,0.00,VWS V14.00,2013-05-25 20:27:00,
2013-05-25 15:28:00,80.3,63.2,30.14,South,184,2.0,6.0,56,0.00,,---,0.00,VWS V14.00,2013-05-25 20:28:00,
2013-05-25 15:30:00,80.3,63.2,30.14,South,184,0.0,2.0,56,0.00,,---,0.00,VWS V14.00,2013-05-25 20:30:00,
2013-05-25 15:33:00,80.3,62.7,30.14,South,173,6.0,11.0,55,0.00,,---,0.00,VWS V14.00,2013-05-25 20:33:00,
2013-05-25 15:34:00,80.1,63.0,30.14,South,171,3.0,9.0,56,0.00,,---,0.00,VWS V14.00,2013-05-25 20:34:00,
2013-05-25 15:35:00,80.3,63.2,30.14,South,172,6.0,6.0,56,0.00,,---,0.00,VWS V14.00,2013-05-25 20:35:00,
2013-05-25 15:36:00,80.1,62.5,30.14,South,188,2.0,7.0,55,0.00,,---,0.00,VWS V14.00,2013-05-25 20:36:00,
2013-05-25 15:37:00,80.1,63.0,30.14,South,190,7.0,7.0,56,0.00,,---,0.00,VWS V14.00,2013-05-25 20:37:00,
2013-05-25 15:38:00,80.1,63.0,30.14,South,191,1.0,7.0,56,0.00,,---,0.00,VWS V14.00,2013-05-25 20:38:00,
2013-05-25 15:39:00,80.1,63.0,30.14,SE,126,0.0,2.0,56,0.00,,---,0.00,VWS V14.00,2013-05-25 20:39:00,
2013-05-25 15:40:00,80.1,63.0,30.14,SSW,194,0.0,1.0,56,0.00,,---,0.00,VWS V14.00,2013-05-25 20:40:00,
2013-05-25 15:41:00,80.1,63.0,30.14,South,171,5.0,7.0,56,0.00,,---,0.00,VWS V14.00,2013-05-25 20:41:00,
2013-05-25 15:42:00,80.1,62.5,30.14,South,178,5.0,7.0,55,0.00,,---,0.00,VWS V14.00,2013-05-25 20:42:00,
2013-05-25 15:43:00,80.1,63.0,30.14,South,178,5.0,5.0,56,0.00,,---,0.00,VWS V14.00,2013-05-25 20:43:00,
2013-05-25 15:44:00,80.1,63.0,30.14,South,178,0.0,5.0,56,0.00,,---,0.00,VWS V14.00,2013-05-25 20:44:00,
2013-05-25 15:45:00,80.1,63.0,30.14,South,178,3.0,5.0,56,0.00,,---,0.00,VWS V14.00,2013-05-25 20:45:00,
2013-05-25 15:46:00,79.9,62.8,30.14,South,176,2.0,5.0,56,0.00,,---,0.00,VWS V14.00,2013-05-25 20:46:00,
2013-05-25 15:47:00,79.9,62.8,30.14,South,176,0.0,2.0,56,0.00,,---,0.00,VWS V14.00,2013-05-25 20:47:00,
2013-05-25 15:48:00,79.9,63.3,30.14,South,176,0.0,0.0,57,0.00,,---,0.00,VWS V14.00,2013-05-25 20:48:00,
2013-05-25 15:49:00,80.1,63.5,30.14,South,176,0.0,0.0,57,0.00,,---,0.00,VWS V14.00,2013-05-25 20:49:00,
2013-05-25 15:50:00,79.9,63.3,30.14,South,176,0.0,0.0,57,0.00,,---,0.00,VWS V14.00,2013-05-25 20:50:00,
2013-05-25 15:51:00,80.1,63.5,30.14,South,176,3.0,4.0,57,0.00,,---,0.00,VWS V14.00,2013-05-25 20:51:00,
2013-05-25 15:52:00,80.1,63.0,30.14,South,176,0.0,4.0,56,0.00,,---,0.00,VWS V14.00,2013-05-25 20:52:00,
2013-05-25 15:53:00,80.1,63.0,30.14,South,176,0.0,0.0,56,0.00,,---,0.00,VWS V14.00,2013-05-25 20:53:00,
2013-05-25 15:54:00,80.3,63.2,30.14,South,176,2.0,4.0,56,0.00,,---,0.00,VWS V14.00,2013-05-25 20:54:00,
2013-05-25 15:55:00,80.3,63.2,30.14,South,176,2.0,2.0,56,0.00,,---,0.00,VWS V14.00,2013-05-25 20:55:00,
2013-05-25 15:56:00,80.1,63.0,30.14,SSE,168,1.0,2.0,56,0.00,,---,0.00,VWS V14.00,2013-05-25 20:56:00,
2013-05-25 15:57:00,80.1,63.0,30.14,South,170,1.0,5.0,56,0.00,,---,0.00,VWS V14.00,2013-05-25 20:57:00,
2013-05-25 15:58:00,80.1,63.5,30.14,South,170,2.0,2.0,57,0.00,,---,0.00,VWS V14.00,2013-05-25 20:58:00,
2013-05-25 15:59:00,79.9,63.3,30.14,South,169,6.0,7.0,57,0.00,,---,0.00,VWS V14.00,2013-05-25 20:59:00,
2013-05-25 16:00:00,80.1,63.5,30.14,South,170,2.0,2.0,57,0.00,,---,0.00,VWS V14.00,2013-05-25 21:00:00,
2013-05-25 16:01:00,79.9,63.8,30.14,SSE,168,6.0,6.0,58,0.00,,---,0.00,VWS V14.00,2013-05-25 21:01:00,
2013-05-25 16:02:00,79.8,63.7,30.14,ESE,118,9.0,9.0,58,0.00,,---,0.00,VWS V14.00,2013-05-25 21:02:00,
2013-05-25 16:03:00,79.8,63.7,30.14,ESE,111,4.0,10.0,58,0.00,,---,0.00,VWS V14.00,2013-05-25 21:03:00,
2013-05-25 16:04:00,79.6,63.5,30.14,ESE,111,5.0,5.0,58,0.00,,---,0.00,VWS V14.00,2013-05-25 21:04:00,
2013-05-25 16:05:00,79.8,63.7,30.14,ESE,111,4.0,5.0,58,0.00,,---,0.00,VWS V14.00,2013-05-25 21:05:00,
2013-05-25 16:06:00,79.4,62.9,30.14,SE,128,4.0,7.0,57,0.00,,---,0.00,VWS V14.00,2013-05-25 21:06:00,
2013-05-25 16:07:00,79.4,62.9,30.14,SE,130,4.0,5.0,57,0.00,,---,0.00,VWS V14.00,2013-05-25 21:07:00,
2013-05-25 16:08:00,79.2,62.7,30.14,SE,130,4.0,5.0,57,0.00,,---,0.00,VWS V14.00,2013-05-25 21:08:00,
2013-05-25 16:09:00,79.2,63.2,30.14,SE,130,6.0,6.0,58,0.00,,---,0.00,VWS V14.00,2013-05-25 21:09:00,
2013-05-25 16:10:00,79.2,62.7,30.14,SE,130,3.0,4.0,57,0.00,,---,0.00,VWS V14.00,2013-05-25 21:10:00,
2013-05-25 16:11:00,79.2,63.2,30.13,SE,131,0.0,4.0,58,0.00,,---,0.00,VWS V14.00,2013-05-25 21:11:00,
2013-05-25 16:12:00,79.0,63.0,30.13,ESE,117,4.0,5.0,58,0.00,,---,0.00,VWS V14.00,2013-05-25 21:12:00,
2013-05-25 16:13:00,79.0,63.0,30.13,ESE,115,8.0,10.0,58,0.00,,---,0.00,VWS V14.00,2013-05-25 21:13:00,
2013-05-25 16:14:00,79.0,63.0,30.13,ESE,115,2.0,8.0,58,0.00,,---,0.00,VWS V14.00,2013-05-25 21:14:00,
2013-05-25 16:15:00,79.0,63.0,30.13,ESE,115,3.0,8.0,58,0.00,,---,0.00,VWS V14.00,2013-05-25 21:15:00,
2013-05-25 16:16:00,79.0,63.0,30.14,SE,130,4.0,4.0,58,0.00,,---,0.00,VWS V14.00,2013-05-25 21:16:00,
2013-05-25 16:17:00,78.8,62.8,30.14,SE,130,2.0,4.0,58,0.00,,---,0.00,VWS V14.00,2013-05-25 21:17:00,
2013-05-25 16:18:00,78.8,62.8,30.14,East,92,2.0,3.0,58,0.00,,---,0.00,VWS V14.00,2013-05-25 21:18:00,
2013-05-25 16:19:00,78.8,62.8,30.14,East,92,0.0,2.0,58,0.00,,---,0.00,VWS V14.00,2013-05-25 21:19:00,
2013-05-25 16:20:00,78.8,62.8,30.14,East,92,1.0,2.0,58,0.00,,---,0.00,VWS V14.00,2013-05-25 21:20:00,
2013-05-25 16:21:00,79.0,63.0,30.14,East,92,0.0,1.0,58,0.00,,---,0.00,VWS V14.00,2013-05-25 21:21:00,
2013-05-25 16:22:00,79.0,63.5,30.14,East,92,0.0,2.0,59,0.00,,---,0.00,VWS V14.00,2013-05-25 21:22:00,
2013-05-25 16:23:00,79.0,63.0,30.14,ESE,102,6.0,6.0,58,0.00,,---,0.00,VWS V14.00,2013-05-25 21:23:00,
2013-05-25 16:24:00,79.0,63.0,30.14,SSE,149,3.0,6.0,58,0.00,,---,0.00,VWS V14.00,2013-05-25 21:24:00,
2013-05-25 16:25:00,79.0,63.0,30.14,SSE,149,4.0,6.0,58,0.00,,---,0.00,VWS V14.00,2013-05-25 21:25:00,
2013-05-25 16:26:00,79.2,63.2,30.14,ESE,115,4.0,6.0,58,0.00,,---,0.00,VWS V14.00,2013-05-25 21:26:00,
2013-05-25 16:27:00,79.2,63.2,30.13,South,173,6.0,11.0,58,0.00,,---,0.00,VWS V14.00,2013-05-25 21:27:00,
2013-05-25 16:28:00,79.4,63.3,30.13,South,174,3.0,6.0,58,0.00,,---,0.00,VWS V14.00,2013-05-25 21:28:00,
2013-05-25 16:29:00,79.4,63.3,30.14,South,173,4.0,9.0,58,0.00,,---,0.00,VWS V14.00,2013-05-25 21:29:00,
2013-05-25 16:30:00,79.4,63.3,30.14,South,173,8.0,8.0,58,0.00,,---,0.00,VWS V14.00,2013-05-25 21:30:00,
2013-05-25 16:31:00,79.6,63.5,30.13,South,172,3.0,5.0,58,0.00,,---,0.00,VWS V14.00,2013-05-25 21:31:00,
2013-05-25 16:32:00,79.6,63.5,30.13,South,172,6.0,7.0,58,0.00,,---,0.00,VWS V14.00,2013-05-25 21:32:00,
2013-05-25 16:33:00,79.6,63.5,30.13,SSE,163,7.0,11.0,58,0.00,,---,0.00,VWS V14.00,2013-05-25 21:33:00,
2013-05-25 16:34:00,79.6,63.5,30.13,SSE,163,0.0,7.0,58,0.00,,---,0.00,VWS V14.00,2013-05-25 21:34:00,
2013-05-25 16:35:00,79.6,63.5,30.13,SSE,163,4.0,7.0,58,0.00,,---,0.00,VWS V14.00,2013-05-25 21:35:00,
2013-05-25 16:36:00,79.6,64.0,30.13,SSE,163,3.0,3.0,59,0.00,,---,0.00,VWS V14.00,2013-05-25 21:36:00,
2013-05-25 16:37:00,79.8,63.2,30.13,SSE,163,6.0,6.0,57,0.00,,---,0.00,VWS V14.00,2013-05-25 21:37:00,
2013-05-25 16:38:00,79.8,63.2,30.13,SSE,163,6.0,6.0,57,0.00,,---,0.00,VWS V14.00,2013-05-25 21:38:00,
2013-05-25 16:39:00,79.8,63.2,30.13,SSE,161,6.0,10.0,57,0.00,,---,0.00,VWS V14.00,2013-05-25 21:39:00,
2013-05-25 16:40:00,79.8,63.2,30.13,SSE,163,6.0,6.0,57,0.00,,---,0.00,VWS V14.00,2013-05-25 21:40:00,
2013-05-25 16:41:00,79.9,63.3,30.13,SSE,161,3.0,10.0,57,0.00,,---,0.00,VWS V14.00,2013-05-25 21:41:00,
2013-05-25 16:42:00,79.8,62.7,30.13,SSE,159,6.0,11.0,56,0.00,,---,0.00,VWS V14.00,2013-05-25 21:42:00,
2013-05-25 16:43:00,79.8,62.7,30.13,SSE,159,4.0,6.0,56,0.00,,---,0.00,VWS V14.00,2013-05-25 21:43:00,
2013-05-25 16:44:00,79.8,62.7,30.13,SSE,159,2.0,4.0,56,0.00,,---,0.00,VWS V14.00,2013-05-25 21:44:00,
2013-05-25 16:45:00,79.8,62.7,30.13,SSE,159,3.0,4.0,56,0.00,,---,0.00,VWS V14.00,2013-05-25 21:45:00,
2013-05-25 16:46:00,79.8,63.2,30.13,SSE,159,3.0,4.0,57,0.00,,---,0.00,VWS V14.00,2013-05-25 21:46:00,
2013-05-25 16:47:00,79.8,63.7,30.13,SSE,159,3.0,6.0,58,0.00,,---,0.00,VWS V14.00,2013-05-25 21:47:00,
2013-05-25 16:48:00,79.6,63.0,30.13,SSE,159,2.0,4.0,57,0.00,,---,0.00,VWS V14.00,2013-05-25 21:48:00,
2013-05-25 16:49:00,79.6,63.0,30.13,SSE,159,2.0,3.0,57,0.00,,---,0.00,VWS V14.00,2013-05-25 21:49:00,
2013-05-25 16:50:00,79.6,63.0,30.13,SSE,159,0.0,2.0,57,0.00,,---,0.00,VWS V14.00,2013-05-25 21:50:00,
2013-05-25 16:51:00,79.6,63.0,30.13,SE,132,2.0,3.0,57,0.00,,---,0.00,VWS V14.00,2013-05-25 21:51:00,
2013-05-25 16:52:00,79.6,63.0,30.13,SE,132,0.0,2.0,57,0.00,,---,0.00,VWS V14.00,2013-05-25 21:52:00,
2013-05-25 16:53:00,79.8,63.7,30.13,SE,132,0.0,0.0,58,0.00,,---,0.00,VWS V14.00,2013-05-25 21:53:00,
2013-05-25 16:54:00,79.8,63.7,30.13,SE,132,0.0,0.0,58,0.00,,---,0.00,VWS V14.00,2013-05-25 21:54:00,
2013-05-25 16:55:00,79.8,63.7,30.13,SE,132,0.0,0.0,58,0.00,,---,0.00,VWS V14.00,2013-05-25 21:55:00,
2013-05-25 16:56:00,79.8,63.2,30.13,SE,132,0.0,0.0,57,0.00,,---,0.00,VWS V14.00,2013-05-25 21:56:00,
2013-05-25 16:57:00,79.8,63.2,30.13,SE,132,0.0,0.0,57,0.00,,---,0.00,VWS V14.00,2013-05-25 21:57:00,
2013-05-25 16:58:00,79.9,63.8,30.12,SE,132,5.0,5.0,58,0.00,,---,0.00,VWS V14.00,2013-05-25 21:58:00,
2013-05-25 16:59:00,79.9,63.3,30.13,SE,132,3.0,7.0,57,0.00,,---,0.00,VWS V14.00,2013-05-25 21:59:00,
2013-05-25 17:00:00,79.9,63.8,30.12,SE,132,5.0,5.0,58,0.00,,---,0.00,VWS V14.00,2013-05-25 22:00:00,
2013-05-25 17:01:00,79.9,63.3,30.13,SE,133,6.0,9.0,57,0.00,,---,0.00,VWS V14.00,2013-05-25 22:01:00,
2013-05-25 17:02:00,79.9,63.8,30.13,SE,135,5.0,7.0,58,0.00,,---,0.00,VWS V14.00,2013-05-25 22:02:00,
2013-05-25 17:03:00,79.9,63.8,30.12,SE,137,4.0,7.0,58,0.00,,---,0.00,VWS V14.00,2013-05-25 22:03:00,
2013-05-25 17:04:00,79.9,63.3,30.12,SE,139,4.0,9.0,57,0.00,,---,0.00,VWS V14.00,2013-05-25 22:04:00,
2013-05-25 17:05:00,79.9,63.8,30.12,SE,137,7.0,7.0,58,0.00,,---,0.00,VWS V14.00,2013-05-25 22:05:00,
2013-05-25 17:06:00,79.8,63.7,30.12,SE,138,7.0,12.0,58,0.00,,---,0.00,VWS V14.00,2013-05-25 22:06:00,
2013-05-25 17:07:00,79.6,63.5,30.12,SE,138,12.0,12.0,58,0.00,,---,0.00,VWS V14.00,2013-05-25 22:07:00,
2013-05-25 17:08:00,79.4,63.3,30.12,SE,138,9.0,12.0,58,0.00,,---,0.00,VWS V14.00,2013-05-25 22:08:00,
2013-05-25 17:09:00,79.4,63.8,30.12,SE,136,7.0,11.0,59,0.00,,---,0.00,VWS V14.00,2013-05-25 22:09:00,
2013-05-25 17:10:00,79.4,63.3,30.12,SE,136,9.0,11.0,58,0.00,,---,0.00,VWS V14.00,2013-05-25 22:10:00,
2013-05-25 17:11:00,79.2,63.2,30.12,SE,140,2.0,10.0,58,0.00,,---,0.00,VWS V14.00,2013-05-25 22:11:00,
2013-05-25 17:12:00,79.4,63.3,30.12,SE,140,6.0,7.0,58,0.00,,---,0.00,VWS V14.00,2013-05-25 22:12:00,
2013-05-25 17:13:00,79.4,63.3,30.12,SE,141,4.0,7.0,58,0.00,,---,0.00,VWS V14.00,2013-05-25 22:13:00,
2013-05-25 17:14:00,79.4,63.3,30.12,SE,136,4.0,13.0,58,0.00,,---,0.00,VWS V14.00,2013-05-25 22:14:00,
2013-05-25 17:15:00,79.4,63.3,30.12,SE,141,10.0,10.0,58,0.00,,---,0.00,VWS V14.00,2013-05-25 22:15:00,
2013-05-25 17:16:00,79.2,63.2,30.12,SE,138,11.0,13.0,58,0.00,,---,0.00,VWS V14.00,2013-05-25 22:16:00,
2013-05-25 17:17:00,79.2,63.2,30.12,SE,137,5.0,11.0,58,0.00,,---,0.00,VWS V14.00,2013-05-25 22:17:00,
2013-05-25 17:18:00,79.2,63.7,30.12,SE,137,6.0,9.0,59,0.00,,---,0.00,VWS V14.00,2013-05-25 22:18:00,
2013-05-25 17:19:00,79.0,63.5,30.12,SE,137,6.0,11.0,59,0.00,,---,0.00,VWS V14.00,2013-05-25 22:19:00,
2013-05-25 17:20:00,79.0,63.5,30.12,SE,137,7.0,9.0,59,0.00,,---,0.00,VWS V14.00,2013-05-25 22:20:00,
2013-05-25 17:21:00,79.0,63.9,30.12,SSE,159,2.0,5.0,60,0.00,,---,0.00,VWS V14.00,2013-05-25 22:21:00,
2013-05-25 17:22:00,79.0,63.9,30.12,SSE,157,6.0,10.0,60,0.00,,---,0.00,VWS V14.00,2013-05-25 22:22:00,
2013-05-25 17:23:00,79.0,63.9,30.12,SSE,155,9.0,9.0,60,0.00,,---,0.00,VWS V14.00,2013-05-25 22:23:00,
2013-05-25 17:24:00,78.8,63.8,30.12,SSE,152,1.0,13.0,60,0.00,,---,0.00,VWS V14.00,2013-05-25 22:24:00,
2013-05-25 17:25:00,78.8,63.8,30.12,SSE,151,13.0,13.0,60,0.00,,---,0.00,VWS V14.00,2013-05-25 22:25:00,
2013-05-25 17:26:00,79.0,63.5,30.11,SSE,152,6.0,8.0,59,0.00,,---,0.00,VWS V14.00,2013-05-25 22:26:00,
2013-05-25 17:27:00,79.0,63.9,30.11,SSE,152,4.0,6.0,60,0.00,,---,0.00,VWS V14.00,2013-05-25 22:27:00,
2013-05-25 17:28:00,79.2,64.1,30.11,SSE,152,6.0,7.0,60,0.00,,---,0.00,VWS V14.00,2013-05-25 22:28:00,
2013-05-25 17:29:00,79.2,63.7,30.11,SSE,151,6.0,10.0,59,0.00,,---,0.00,VWS V14.00,2013-05-25 22:29:00,
2013-05-25 17:30:00,79.2,64.1,30.11,SSE,152,5.0,6.0,60,0.00,,---,0.00,VWS V14.00,2013-05-25 22:30:00,
2013-05-25 17:31:00,79.2,63.2,30.11,SSE,147,7.0,8.0,58,0.00,,---,0.00,VWS V14.00,2013-05-25 22:31:00,
2013-05-25 17:32:00,79.2,63.7,30.11,SSE,148,0.0,7.0,59,0.00,,---,0.00,VWS V14.00,2013-05-25 22:32:00,
2013-05-25 17:33:00,79.2,63.7,30.11,SSE,148,3.0,3.0,59,0.00,,---,0.00,VWS V14.00,2013-05-25 22:33:00,
2013-05-25 17:34:00,79.4,63.8,30.11,SSE,150,4.0,7.0,59,0.00,,---,0.00,VWS V14.00,2013-05-25 22:34:00,
2013-05-25 17:35:00,79.4,63.8,30.11,SSE,148,3.0,3.0,59,0.00,,---,0.00,VWS V14.00,2013-05-25 22:35:00,
2013-05-25 17:36:00,79.4,63.8,30.11,SSE,149,5.0,11.0,59,0.00,,---,0.00,VWS V14.00,2013-05-25 22:36:00,
2013-05-25 17:37:00,79.4,63.3,30.11,SSE,150,3.0,6.0,58,0.00,,---,0.00,VWS V14.00,2013-05-25 22:37:00,
2013-05-25 17:38:00,79.4,63.3,30.11,SE,146,8.0,12.0,58,0.00,,---,0.00,VWS V14.00,2013-05-25 22:38:00,
2013-05-25 17:39:00,79.2,63.2,30.11,SSE,148,7.0,12.0,58,0.00,,---,0.00,VWS V14.00,2013-05-25 22:39:00,
2013-05-25 17:40:00,79.4,63.3,30.11,SE,146,7.0,10.0,58,0.00,,---,0.00,VWS V14.00,2013-05-25 22:40:00,
2013-05-25 17:41:00,79.2,63.2,30.11,SE,146,10.0,10.0,58,0.00,,---,0.00,VWS V14.00,2013-05-25 22:41:00,
2013-05-25 17:42:00,79.2,63.2,30.11,SSE,148,3.0,10.0,58,0.00,,---,0.00,VWS V14.00,2013-05-25 22:42:00,
2013-05-25 17:43:00,79.2,63.2,30.11,SSE,148,5.0,8.0,58,0.00,,---,0.00,VWS V14.00,2013-05-25 22:43:00,
2013-05-25 17:44:00,79.2,63.2,30.11,SSE,148,5.0,7.0,58,0.00,,---,0.00,VWS V14.00,2013-05-25 22:44:00,
2013-05-25 17:45:00,79.2,63.2,30.11,SSE,148,4.0,5.0,58,0.00,,---,0.00,VWS V14.00,2013-05-25 22:45:00,
2013-05-25 17:46:00,79.2,63.7,30.11,SSE,148,2.0,10.0,59,0.00,,---,0.00,VWS V14.00,2013-05-25 22:46:00,
2013-05-25 17:47:00,79.2,63.2,30.11,SSE,150,3.0,6.0,58,0.00,,---,0.00,VWS V14.00,2013-05-25 22:47:00,
2013-05-25 17:48:00,79.2,63.7,30.11,SSE,150,4.0,4.0,59,0.00,,---,0.00,VWS V14.00,2013-05-25 22:48:00,
2013-05-25 17:49:00,79.2,63.2,30.11,SSE,156,3.0,9.0,58,0.00,,---,0.00,VWS V14.00,2013-05-25 22:49:00,
2013-05-25 17:50:00,79.2,63.7,30.11,SSE,150,6.0,9.0,59,0.00,,---,0.00,VWS V14.00,2013-05-25 22:50:00,
2013-05-25 17:51:00,79.4,63.3,30.11,SSE,162,1.0,9.0,58,0.00,,---,0.00,VWS V14.00,2013-05-25 22:51:00,
2013-05-25 17:52:00,79.4,63.3,30.11,SSE,160,12.0,12.0,58,0.00,,---,0.00,VWS V14.00,2013-05-25 22:52:00,
2013-05-25 17:53:00,79.2,63.2,30.11,SSE,156,11.0,12.0,58,0.00,,---,0.00,VWS V14.00,2013-05-25 22:53:00,
2013-05-25 17:54:00,79.2,62.7,30.11,SSE,155,8.0,11.0,57,0.00,,---,0.00,VWS V14.00,2013-05-25 22:54:00,
2013-05-25 17:55:00,79.2,63.2,30.11,SSE,156,10.0,11.0,58,0.00,,---,0.00,VWS V14.00,2013-05-25 22:55:00,
2013-05-25 17:56:00,79.2,63.2,30.11,SSE,155,4.0,10.0,58,0.00,,---,0.00,VWS V14.00,2013-05-25 22:56:00,
2013-05-25 17:57:00,79.2,62.7,30.11,SSE,155,2.0,10.0,57,0.00,,---,0.00,VWS V14.00,2013-05-25 22:57:00,
2013-05-25 17:58:00,79.2,62.7,30.11,SE,137,10.0,10.0,57,0.00,,---,0.00,VWS V14.00,2013-05-25 22:58:00,
2013-05-25 17:59:00,79.2,62.7,30.11,SE,132,7.0,12.0,57,0.00,,---,0.00,VWS V14.00,2013-05-25 22:59:00,
2013-05-25 18:00:00,79.2,62.7,30.11,SSE,158,7.0,12.0,57,0.00,,---,0.00,VWS V14.00,2013-05-25 23:00:00,
2013-05-25 18:01:00,79.2,62.7,30.11,SE,124,0.0,7.0,57,0.00,,---,0.00,VWS V14.00,2013-05-25 23:01:00,
2013-05-25 18:02:00,79.2,63.2,30.10,SE,144,5.0,7.0,58,0.00,,---,0.00,VWS V14.00,2013-05-25 23:02:00,
2013-05-25 18:03:00,79.2,62.7,30.10,SSE,150,7.0,9.0,57,0.00,,---,0.00,VWS V14.00,2013-05-25 23:03:00,
2013-05-25 18:04:00,79.2,63.2,30.10,SSE,151,6.0,10.0,58,0.00,,---,0.00,VWS V14.00,2013-05-25 23:04:00,
2013-05-25 18:05:00,79.2,62.7,30.10,SSE,150,6.0,7.0,57,0.00,,---,0.00,VWS V14.00,2013-05-25 23:05:00,
2013-05-25 18:06:00,79.0,63.0,30.10,SSE,153,8.0,10.0,58,0.00,,---,0.00,VWS V14.00,2013-05-25 23:06:00,
2013-05-25 18:07:00,79.0,63.0,30.10,SSE,153,2.0,9.0,58,0.00,,---,0.00,VWS V14.00,2013-05-25 23:07:00,
2013-05-25 18:08:00,79.0,63.0,30.10,SSE,155,6.0,6.0,58,0.00,,---,0.00,VWS V14.00,2013-05-25 23:08:00,
2013-05-25 18:09:00,78.8,62.8,30.10,SSE,156,5.0,6.0,58,0.00,,---,0.00,VWS V14.00,2013-05-25 23:09:00,
2013-05-25 18:10:00,78.8,62.8,30.10,SSE,156,4.0,6.0,58,0.00,,---,0.00,VWS V14.00,2013-05-25 23:10:00,
2013-05-25 18:11:00,78.8,62.8,30.10,SSE,153,0.0,7.0,58,0.00,,---,0.00,VWS V14.00,2013-05-25 23:11:00,
2013-05-25 18:12:00,78.6,63.1,30.10,SSE,153,4.0,4.0,59,0.00,,---,0.00,VWS V14.00,2013-05-25 23:12:00,
2013-05-25 18:13:00,78.6,63.1,30.10,SSE,153,6.0,6.0,59,0.00,,---,0.00,VWS V14.00,2013-05-25 23:13:00,
2013-05-25 18:14:00,78.6,63.1,30.10,SSE,153,3.0,6.0,59,0.00,,---,0.00,VWS V14.00,2013-05-25 23:14:00,
2013-05-25 18:15:00,78.6,63.1,30.10,SSE,153,3.0,6.0,59,0.00,,---,0.00,VWS V14.00,2013-05-25 23:15:00,
2013-05-25 18:16:00,78.6,63.6,30.10,SSE,154,5.0,5.0,60,0.00,,---,0.00,VWS V14.00,2013-05-25 23:16:00,
2013-05-25 18:17:00,78.6,63.6,30.09,SSE,154,5.0,5.0,60,0.00,,---,0.00,VWS V14.00,2013-05-25 23:17:00,
2013-05-25 18:18:00,78.6,63.6,30.09,SSE,154,3.0,8.0,60,0.00,,---,0.00,VWS V14.00,2013-05-25 23:18:00,
2013-05-25 18:19:00,78.6,63.6,30.09,SSE,153,5.0,9.0,60,0.00,,---,0.00,VWS V14.00,2013-05-25 23:19:00,
2013-05-25 18:20:00,78.8,63.8,30.09,SSE,154,5.0,5.0,60,0.00,,---,0.00,VWS V14.00,2013-05-25 23:20:00,
2013-05-25 18:21:00,78.6,63.6,30.09,SSE,154,1.0,6.0,60,0.00,,---,0.00,VWS V14.00,2013-05-25 23:21:00,
2013-05-25 18:22:00,78.5,63.5,30.09,SSE,154,5.0,5.0,60,0.00,,---,0.00,VWS V14.00,2013-05-25 23:22:00,
2013-05-25 18:23:00,78.5,63.5,30.09,SSE,154,5.0,7.0,60,0.00,,---,0.00,VWS V14.00,2013-05-25 23:23:00,
2013-05-25 18:24:00,78.5,63.5,30.09,SSE,153,2.0,10.0,60,0.00,,---,0.00,VWS V14.00,2013-05-25 23:24:00,
2013-05-25 18:25:00,78.5,63.5,30.09,SSE,154,7.0,7.0,60,0.00,,---,0.00,VWS V14.00,2013-05-25 23:25:00,
2013-05-25 18:26:00,78.5,64.0,30.09,SSE,153,6.0,7.0,61,0.00,,---,0.00,VWS V14.00,2013-05-25 23:26:00,
2013-05-25 18:27:00,78.5,63.5,30.09,SSE,155,3.0,7.0,60,0.00,,---,0.00,VWS V14.00,2013-05-25 23:27:00,
2013-05-25 18:28:00,78.3,63.3,30.09,SSE,155,3.0,6.0,60,0.00,,---,0.00,VWS V14.00,2013-05-25 23:28:00,
2013-05-25 18:29:00,78.3,63.3,30.09,SSE,155,5.0,5.0,60,0.00,,---,0.00,VWS V14.00,2013-05-25 23:29:00,
2013-05-25 18:30:00,78.3,63.3,30.09,SSE,155,2.0,3.0,60,0.00,,---,0.00,VWS V14.00,2013-05-25 23:30:00,
2013-05-25 18:31:00,78.3,63.3,30.09,SSE,148,1.0,6.0,60,0.00,,---,0.00,VWS V14.00,2013-05-25 23:31:00,
2013-05-25 18:32:00,78.3,63.3,30.09,SSE,148,3.0,4.0,60,0.00,,---,0.00,VWS V14.00,2013-05-25 23:32:00,
2013-05-25 18:33:00,78.3,63.3,30.09,SSE,148,2.0,5.0,60,0.00,,---,0.00,VWS V14.00,2013-05-25 23:33:00,
2013-05-25 18:34:00,78.3,63.8,30.09,SSE,149,3.0,5.0,61,0.00,,---,0.00,VWS V14.00,2013-05-25 23:34:00,
2013-05-25 18:35:00,78.3,63.3,30.09,SSE,148,1.0,2.0,60,0.00,,---,0.00,VWS V14.00,2013-05-25 23:35:00,
2013-05-25 18:36:00,78.1,63.1,30.09,SSE,155,4.0,9.0,60,0.00,,---,0.00,VWS V14.00,2013-05-25 23:36:00,
2013-05-25 18:37:00,78.1,63.1,30.09,SSE,155,6.0,7.0,60,0.00,,---,0.00,VWS V14.00,2013-05-25 23:37:00,
2013-05-25 18:38:00,78.1,63.1,30.09,SSE,156,0.0,7.0,60,0.00,,---,0.00,VWS V14.00,2013-05-25 23:38:00,
2013-05-25 18:39:00,78.1,63.1,30.09,SSE,156,4.0,7.0,60,0.00,,---,0.00,VWS V14.00,2013-05-25 23:39:00,
2013-05-25 18:40:00,78.1,63.1,30.09,SSE,156,3.0,3.0,60,0.00,,---,0.00,VWS V14.00,2013-05-25 23:40:00,
2013-05-25 18:41:00,78.1,63.1,30.09,SSE,155,0.0,5.0,60,0.00,,---,0.00,VWS V14.00,2013-05-25 23:41:00,
2013-05-25 18:42:00,78.1,63.6,30.09,SSE,155,2.0,5.0,61,0.00,,---,0.00,VWS V14.00,2013-05-25 23:42:00,
2013-05-25 18:43:00,78.1,63.6,30.09,SSE,155,5.0,5.0,61,0.00,,---,0.00,VWS V14.00,2013-05-25 23:43:00,
2013-05-25 18:44:00,77.9,62.9,30.08,SSE,155,6.0,6.0,60,0.00,,---,0.00,VWS V14.00,2013-05-25 23:44:00,
2013-05-25 18:45:00,77.9,63.4,30.09,SSE,155,4.0,5.0,61,0.00,,---,0.00,VWS V14.00,2013-05-25 23:45:00,
2013-05-25 18:46:00,77.9,63.4,30.08,SSE,155,5.0,5.0,61,0.00,,---,0.00,VWS V14.00,2013-05-25 23:46:00,
2013-05-25 18:47:00,77.9,63.4,30.08,SSE,155,6.0,7.0,61,0.00,,---,0.00,VWS V14.00,2013-05-25 23:47:00,
2013-05-25 18:48:00,77.9,63.4,30.08,SSE,155,4.0,6.0,61,0.00,,---,0.00,VWS V14.00,2013-05-25 23:48:00,
2013-05-25 18:49:00,77.9,63.4,30.08,SSE,155,3.0,9.0,61,0.00,,---,0.00,VWS V14.00,2013-05-25 23:49:00,
2013-05-25 18:50:00,77.9,63.4,30.08,SSE,155,6.0,6.0,61,0.00,,---,0.00,VWS V14.00,2013-05-25 23:50:00,
2013-05-25 18:51:00,77.9,63.4,30.08,SSE,155,3.0,7.0,61,0.00,,---,0.00,VWS V14.00,2013-05-25 23:51:00,
2013-05-25 18:52:00,77.9,63.4,30.08,SE,134,2.0,4.0,61,0.00,,---,0.00,VWS V14.00,2013-05-25 23:52:00,
2013-05-25 18:53:00,77.9,63.4,30.08,ESE,121,5.0,7.0,61,0.00,,---,0.00,VWS V14.00,2013-05-25 23:53:00,
2013-05-25 18:54:00,77.9,63.8,30.08,East,101,3.0,5.0,62,0.00,,---,0.00,VWS V14.00,2013-05-25 23:54:00,
2013-05-25 18:55:00,77.9,63.4,30.08,ESE,115,2.0,5.0,61,0.00,,---,0.00,VWS V14.00,2013-05-25 23:55:00,
2013-05-25 18:56:00,77.9,63.8,30.08,ESE,115,5.0,6.0,62,0.00,,---,0.00,VWS V14.00,2013-05-25 23:56:00,
2013-05-25 18:57:00,77.9,63.4,30.08,ESE,117,4.0,5.0,61,0.00,,---,0.00,VWS V14.00,2013-05-25 23:57:00,
2013-05-25 18:58:00,77.9,63.8,30.08,ESE,117,3.0,4.0,62,0.00,,---,0.00,VWS V14.00,2013-05-25 23:58:00,
2013-05-25 18:59:00,77.9,63.8,30.08,ESE,118,4.0,4.0,62,0.00,,---,0.00,VWS V14.00,2013-05-25 23:59:00,
2013-05-25 19:00:00,77.9,63.8,30.08,ESE,117,0.0,3.0,62,0.00,,---,0.00,VWS V14.00,2013-05-26 00:00:00,
2013-05-25 19:01:00,77.9,63.8,30.08,South,171,1.0,6.0,62,0.00,,---,0.00,VWS V14.00,2013-05-26 00:01:00,
2013-05-25 19:02:00,77.9,63.8,30.08,South,171,0.0,4.0,62,0.00,,---,0.00,VWS V14.00,2013-05-26 00:02:00,
2013-05-25 19:03:00,77.9,63.8,30.08,South,171,1.0,1.0,62,0.00,,---,0.00,VWS V14.00,2013-05-26 00:03:00,
2013-05-25 19:04:00,77.9,63.8,30.08,South,171,2.0,4.0,62,0.00,,---,0.00,VWS V14.00,2013-05-26 00:04:00,
2013-05-25 19:05:00,77.9,63.8,30.08,South,171,1.0,1.0,62,0.00,,---,0.00,VWS V14.00,2013-05-26 00:05:00,
2013-05-25 19:06:00,77.7,63.7,30.08,East,101,0.0,3.0,62,0.00,,---,0.00,VWS V14.00,2013-05-26 00:06:00,
2013-05-25 19:07:00,77.7,63.7,30.08,East,101,4.0,4.0,62,0.00,,---,0.00,VWS V14.00,2013-05-26 00:07:00,
2013-05-25 19:08:00,77.7,63.7,30.08,East,101,0.0,5.0,62,0.00,,---,0.00,VWS V14.00,2013-05-26 00:08:00,
2013-05-25 19:09:00,77.7,64.1,30.08,East,100,3.0,6.0,63,0.00,,---,0.00,VWS V14.00,2013-05-26 00:09:00,
2013-05-25 19:10:00,77.7,63.7,30.08,East,101,2.0,2.0,62,0.00,,---,0.00,VWS V14.00,2013-05-26 00:10:00,
2013-05-25 19:11:00,77.7,63.7,30.08,East,99,2.0,4.0,62,0.00,,---,0.00,VWS V14.00,2013-05-26 00:11:00,
2013-05-25 19:12:00,77.7,64.1,30.08,ESE,122,0.0,4.0,63,0.00,,---,0.00,VWS V14.00,2013-05-26 00:12:00,
2013-05-25 19:13:00,77.7,64.6,30.07,ESE,122,1.0,2.0,64,0.00,,---,0.00,VWS V14.00,2013-05-26 00:13:00,
2013-05-25 19:14:00,77.7,64.1,30.08,SE,126,2.0,4.0,63,0.00,,---,0.00,VWS V14.00,2013-05-26 00:14:00,
2013-05-25 19:15:00,77.7,64.6,30.07,ESE,122,2.0,2.0,64,0.00,,---,0.00,VWS V14.00,2013-05-26 00:15:00,
2013-05-25 19:16:00,77.6,64.0,30.08,South,173,2.0,7.0,63,0.00,,---,0.00,VWS V14.00,2013-05-26 00:16:00,
2013-05-25 19:17:00,77.6,64.0,30.08,South,171,5.0,10.0,63,0.00,,---,0.00,VWS V14.00,2013-05-26 00:17:00,
2013-05-25 19:18:00,77.6,64.0,30.08,South,173,3.0,7.0,63,0.00,,---,0.00,VWS V14.00,2013-05-26 00:18:00,
2013-05-25 19:19:00,77.6,64.0,30.08,South,172,1.0,7.0,63,0.00,,---,0.00,VWS V14.00,2013-05-26 00:19:00,
2013-05-25 19:20:00,77.6,64.0,30.08,South,172,7.0,7.0,63,0.00,,---,0.00,VWS V14.00,2013-05-26 00:20:00,
2013-05-25 19:21:00,77.4,63.8,30.08,South,171,3.0,7.0,63,0.00,,---,0.00,VWS V14.00,2013-05-26 00:21:00,
2013-05-25 19:22:00,77.4,63.8,30.08,South,171,5.0,5.0,63,0.00,,---,0.00,VWS V14.00,2013-05-26 00:22:00,
2013-05-25 19:23:00,77.4,63.8,30.08,South,170,4.0,9.0,63,0.00,,---,0.00,VWS V14.00,2013-05-26 00:23:00,
2013-05-25 19:24:00,77.2,63.6,30.08,SSE,167,4.0,11.0,63,0.00,,---,0.00,VWS V14.00,2013-05-26 00:24:00,
2013-05-25 19:25:00,77.4,63.8,30.08,South,170,2.0,4.0,63,0.00,,---,0.00,VWS V14.00,2013-05-26 00:25:00,
2013-05-25 19:26:00,77.2,63.6,30.08,SSE,167,7.0,7.0,63,0.00,,---,0.00,VWS V14.00,2013-05-26 00:26:00,
2013-05-25 19:27:00,77.2,63.6,30.08,ESE,114,0.0,7.0,63,0.00,,---,0.00,VWS V14.00,2013-05-26 00:27:00,
2013-05-25 19:28:00,77.2,63.6,30.08,ESE,102,2.0,2.0,63,0.00,,---,0.00,VWS V14.00,2013-05-26 00:28:00,
2013-05-25 19:29:00,77.2,64.1,30.08,ESE,102,2.0,3.0,64,0.00,,---,0.00,VWS V14.00,2013-05-26 00:29:00,
2013-05-25 19:30:00,77.2,63.6,30.08,ESE,102,1.0,2.0,63,0.00,,---,0.00,VWS V14.00,2013-05-26 00:30:00,
2013-05-25 19:31:00,77.0,63.9,30.08,ESE,102,4.0,4.0,64,0.00,,---,0.00,VWS V14.00,2013-05-26 00:31:00,
2013-05-25 19:32:00,77.0,63.9,30.08,ESE,102,4.0,5.0,64,0.00,,---,0.00,VWS V14.00,2013-05-26 00:32:00,
2013-05-25 19:33:00,77.0,63.9,30.08,ESE,102,0.0,4.0,64,0.00,,---,0.00,VWS V14.00,2013-05-26 00:33:00,
2013-05-25 19:34:00,76.8,64.2,30.08,ESE,102,0.0,0.0,65,0.00,,---,0.00,VWS V14.00,2013-05-26 00:34:00,
2013-05-25 19:35:00,76.8,63.7,30.08,ESE,102,0.0,0.0,64,0.00,,---,0.00,VWS V14.00,2013-05-26 00:35:00,
2013-05-25 19:36:00,76.8,63.7,30.08,East,101,0.0,0.0,64,0.00,,---,0.00,VWS V14.00,2013-05-26 00:36:00,
2013-05-25 19:37:00,76.8,64.2,30.08,East,101,0.0,0.0,65,0.00,,---,0.00,VWS V14.00,2013-05-26 00:37:00,
2013-05-25 19:38:00,76.7,64.1,30.08,East,101,0.0,0.0,65,0.00,,---,0.00,VWS V14.00,2013-05-26 00:38:00,
2013-05-25 19:39:00,76.7,64.1,30.08,East,101,0.0,0.0,65,0.00,,---,0.00,VWS V14.00,2013-05-26 00:39:00,
2013-05-25 19:40:00,76.7,64.1,30.08,East,101,0.0,0.0,65,0.00,,---,0.00,VWS V14.00,2013-05-26 00:40:00,
2013-05-25 19:41:00,76.5,63.9,30.08,East,101,0.0,1.0,65,0.00,,---,0.00,VWS V14.00,2013-05-26 00:41:00,
2013-05-25 19:42:00,76.5,63.9,30.08,East,101,0.0,0.0,65,0.00,,---,0.00,VWS V14.00,2013-05-26 00:42:00,
2013-05-25 19:43:00,76.5,63.9,30.08,East,101,2.0,4.0,65,0.00,,---,0.00,VWS V14.00,2013-05-26 00:43:00,
2013-05-25 19:44:00,76.3,63.7,30.08,East,101,0.0,3.0,65,0.00,,---,0.00,VWS V14.00,2013-05-26 00:44:00,
2013-05-25 19:45:00,76.5,63.9,30.08,East,101,2.0,2.0,65,0.00,,---,0.00,VWS V14.00,2013-05-26 00:45:00,
2013-05-25 19:46:00,76.3,63.7,30.08,East,101,0.0,0.0,65,0.00,,---,0.00,VWS V14.00,2013-05-26 00:46:00,
2013-05-25 19:47:00,76.1,63.5,30.08,ESE,103,1.0,2.0,65,0.00,,---,0.00,VWS V14.00,2013-05-26 00:47:00,
2013-05-25 19:48:00,76.1,63.9,30.08,ESE,103,0.0,1.0,66,0.00,,---,0.00,VWS V14.00,2013-05-26 00:48:00,
2013-05-25 19:49:00,76.1,63.9,30.08,ESE,104,0.0,1.0,66,0.00,,---,0.00,VWS V14.00,2013-05-26 00:49:00,
2013-05-25 19:50:00,76.1,63.9,30.08,ESE,103,0.0,0.0,66,0.00,,---,0.00,VWS V14.00,2013-05-26 00:50:00,
2013-05-25 19:51:00,76.0,63.8,30.08,ESE,107,0.0,1.0,66,0.00,,---,0.00,VWS V14.00,2013-05-26 00:51:00,
2013-05-25 19:52:00,75.8,63.6,30.08,ESE,102,0.0,0.0,66,0.00,,---,0.00,VWS V14.00,2013-05-26 00:52:00,
2013-05-25 19:53:00,75.8,63.6,30.08,East,89,0.0,0.0,66,0.00,,---,0.00,VWS V14.00,2013-05-26 00:53:00,
2013-05-25 19:54:00,75.8,63.6,30.08,ESE,109,0.0,3.0,66,0.00,,---,0.00,VWS V14.00,2013-05-26 00:54:00,
2013-05-25 19:55:00,75.8,63.6,30.08,East,89,0.0,0.0,66,0.00,,---,0.00,VWS V14.00,2013-05-26 00:55:00,
2013-05-25 19:56:00,75.6,63.9,30.08,ESE,109,0.0,2.0,67,0.00,,---,0.00,VWS V14.00,2013-05-26 00:56:00,
2013-05-25 19:57:00,75.4,63.7,30.08,ESE,109,2.0,2.0,67,0.00,,---,0.00,VWS V14.00,2013-05-26 00:57:00,
2013-05-25 19:58:00,75.4,63.7,30.08,ESE,112,3.0,4.0,67,0.00,,---,0.00,VWS V14.00,2013-05-26 00:58:00,
2013-05-25 19:59:00,75.4,63.7,30.08,ESE,112,0.0,3.0,67,0.00,,---,0.00,VWS V14.00,2013-05-26 00:59:00,
2013-05-25 20:00:00,75.4,63.7,30.08,ESE,112,1.0,3.0,67,0.00,,---,0.00,VWS V14.00,2013-05-26 01:00:00,
2013-05-25 20:01:00,75.3,63.6,30.08,ESE,112,0.0,0.0,67,0.00,,---,0.00,VWS V14.00,2013-05-26 01:01:00,
2013-05-25 20:02:00,75.3,63.6,30.08,ESE,112,0.0,0.0,67,0.00,,---,0.00,VWS V14.00,2013-05-26 01:02:00,
2013-05-25 20:03:00,75.1,63.4,30.08,ESE,112,1.0,2.0,67,0.00,,---,0.00,VWS V14.00,2013-05-26 01:03:00,
2013-05-25 20:04:00,75.1,63.4,30.08,ESE,113,3.0,3.0,67,0.00,,---,0.00,VWS V14.00,2013-05-26 01:04:00,
2013-05-25 20:05:00,75.1,63.4,30.08,ESE,112,1.0,1.0,67,0.00,,---,0.00,VWS V14.00,2013-05-26 01:05:00,
2013-05-25 20:06:00,75.1,63.4,30.08,ESE,113,0.0,1.0,67,0.00,,---,0.00,VWS V14.00,2013-05-26 01:06:00,
2013-05-25 20:07:00,74.9,63.6,30.08,ESE,112,0.0,0.0,68,0.00,,---,0.00,VWS V14.00,2013-05-26 01:07:00,
2013-05-25 20:08:00,74.9,63.2,30.08,ESE,112,0.0,0.0,67,0.00,,---,0.00,VWS V14.00,2013-05-26 01:08:00,
2013-05-25 20:09:00,74.9,63.6,30.08,ESE,113,0.0,0.0,68,0.00,,---,0.00,VWS V14.00,2013-05-26 01:09:00,
2013-05-25 20:10:00,74.9,63.2,30.08,ESE,113,0.0,0.0,67,0.00,,---,0.00,VWS V14.00,2013-05-26 01:10:00,
2013-05-25 20:11:00,74.7,63.5,30.08,ESE,113,0.0,2.0,68,0.00,,---,0.00,VWS V14.00,2013-05-26 01:11:00,
2013-05-25 20:12:00,74.7,63.5,30.08,ESE,113,0.0,0.0,68,0.00,,---,0.00,VWS V14.00,2013-05-26 01:12:00,
2013-05-25 20:13:00,74.7,63.5,30.07,ESE,112,0.0,0.0,68,0.00,,---,0.00,VWS V14.00,2013-05-26 01:13:00,
2013-05-25 20:14:00,74.6,63.3,30.07,ESE,113,4.0,4.0,68,0.00,,---,0.00,VWS V14.00,2013-05-26 01:14:00,
2013-05-25 20:15:00,74.7,63.5,30.07,ESE,113,0.0,0.0,68,0.00,,---,0.00,VWS V14.00,2013-05-26 01:15:00,
2013-05-25 20:16:00,74.6,63.3,30.07,ESE,113,2.0,2.0,68,0.00,,---,0.00,VWS V14.00,2013-05-26 01:16:00,
2013-05-25 20:17:00,74.4,63.2,30.07,ESE,113,0.0,2.0,68,0.00,,---,0.00,VWS V14.00,2013-05-26 01:17:00,
2013-05-25 20:18:00,74.4,63.2,30.07,ESE,113,0.0,2.0,68,0.00,,---,0.00,VWS V14.00,2013-05-26 01:18:00,
2013-05-25 20:19:00,74.4,63.6,30.07,ESE,113,1.0,2.0,69,0.00,,---,0.00,VWS V14.00,2013-05-26 01:19:00,
2013-05-25 20:20:00,74.4,63.2,30.07,ESE,113,0.0,2.0,68,0.00,,---,0.00,VWS V14.00,2013-05-26 01:20:00,
2013-05-25 20:21:00,74.2,63.4,30.07,ESE,113,0.0,3.0,69,0.00,,---,0.00,VWS V14.00,2013-05-26 01:21:00,
2013-05-25 20:22:00,74.2,63.4,30.07,ESE,113,0.0,3.0,69,0.00,,---,0.00,VWS V14.00,2013-05-26 01:22:00,
2013-05-25 20:23:00,74.2,63.4,30.07,ESE,113,2.0,3.0,69,0.00,,---,0.00,VWS V14.00,2013-05-26 01:23:00,
2013-05-25 20:24:00,74.0,63.2,30.07,ESE,113,4.0,4.0,69,0.00,,---,0.00,VWS V14.00,2013-05-26 01:24:00,
2013-05-25 20:25:00,74.2,63.4,30.07,ESE,113,2.0,3.0,69,0.00,,---,0.00,VWS V14.00,2013-05-26 01:25:00,
2013-05-25 20:26:00,74.0,63.2,30.07,ESE,113,1.0,2.0,69,0.00,,---,0.00,VWS V14.00,2013-05-26 01:26:00,
2013-05-25 20:27:00,74.0,63.2,30.07,ESE,114,2.0,4.0,69,0.00,,---,0.00,VWS V14.00,2013-05-26 01:27:00,
2013-05-25 20:28:00,73.9,63.1,30.07,ESE,114,1.0,2.0,69,0.00,,---,0.00,VWS V14.00,2013-05-26 01:28:00,
2013-05-25 20:29:00,73.9,63.1,30.07,ESE,116,4.0,5.0,69,0.00,,---,0.00,VWS V14.00,2013-05-26 01:29:00,
2013-05-25 20:30:00,73.9,63.1,30.07,ESE,114,1.0,2.0,69,0.00,,---,0.00,VWS V14.00,2013-05-26 01:30:00,
2013-05-25 20:31:00,73.9,63.1,30.07,ESE,117,0.0,5.0,69,0.00,,---,0.00,VWS V14.00,2013-05-26 01:31:00,
2013-05-25 20:32:00,73.9,63.1,30.07,ESE,117,0.0,5.0,69,0.00,,---,0.00,VWS V14.00,2013-05-26 01:32:00,
2013-05-25 20:33:00,73.9,63.1,30.07,ESE,117,2.0,2.0,69,0.00,,---,0.00,VWS V14.00,2013-05-26 01:33:00,
2013-05-25 20:34:00,73.7,62.9,30.07,ESE,117,0.0,5.0,69,0.00,,---,0.00,VWS V14.00,2013-05-26 01:34:00,
2013-05-25 20:35:00,73.9,63.1,30.07,ESE,117,2.0,2.0,69,0.00,,---,0.00,VWS V14.00,2013-05-26 01:35:00,
2013-05-25 20:36:00,73.7,62.9,30.07,ESE,118,4.0,4.0,69,0.00,,---,0.00,VWS V14.00,2013-05-26 01:36:00,
2013-05-25 20:37:00,73.5,62.7,30.07,ESE,118,0.0,5.0,69,0.00,,---,0.00,VWS V14.00,2013-05-26 01:37:00,
2013-05-25 20:38:00,73.5,62.7,30.07,ESE,118,3.0,3.0,69,0.00,,---,0.00,VWS V14.00,2013-05-26 01:38:00,
2013-05-25 20:39:00,73.5,63.1,30.07,ESE,118,0.0,3.0,70,0.00,,---,0.00,VWS V14.00,2013-05-26 01:39:00,
2013-05-25 20:40:00,73.5,62.7,30.07,ESE,118,3.0,3.0,69,0.00,,---,0.00,VWS V14.00,2013-05-26 01:40:00,
2013-05-25 20:41:00,73.3,62.9,30.07,ESE,118,3.0,3.0,70,0.00,,---,0.00,VWS V14.00,2013-05-26 01:41:00,
2013-05-25 20:42:00,73.3,62.9,30.07,ESE,119,3.0,5.0,70,0.00,,---,0.00,VWS V14.00,2013-05-26 01:42:00,
2013-05-25 20:43:00,73.3,62.9,30.07,ESE,119,4.0,4.0,70,0.00,,---,0.00,VWS V14.00,2013-05-26 01:43:00,
2013-05-25 20:44:00,73.2,62.8,30.06,ESE,119,2.0,4.0,70,0.00,,---,0.00,VWS V14.00,2013-05-26 01:44:00,
2013-05-25 20:45:00,73.3,62.9,30.07,ESE,119,4.0,4.0,70,0.00,,---,0.00,VWS V14.00,2013-05-26 01:45:00,
2013-05-25 20:46:00,73.2,63.2,30.06,ESE,119,0.0,3.0,71,0.00,,---,0.00,VWS V14.00,2013-05-26 01:46:00,
2013-05-25 20:47:00,73.0,63.0,30.07,ESE,120,2.0,2.0,71,0.00,,---,0.00,VWS V14.00,2013-05-26 01:47:00,
2013-05-25 20:48:00,73.0,63.0,30.07,ESE,120,1.0,2.0,71,0.00,,---,0.00,VWS V14.00,2013-05-26 01:48:00,
2013-05-25 20:49:00,73.0,63.0,30.06,ESE,120,1.0,3.0,71,0.00,,---,0.00,VWS V14.00,2013-05-26 01:49:00,
2013-05-25 20:50:00,73.0,63.0,30.07,ESE,120,1.0,2.0,71,0.00,,---,0.00,VWS V14.00,2013-05-26 01:50:00,
2013-05-25 20:51:00,72.8,62.9,30.07,ESE,120,3.0,3.0,71,0.00,,---,0.00,VWS V14.00,2013-05-26 01:51:00,
2013-05-25 20:52:00,72.8,62.9,30.07,ESE,120,0.0,5.0,71,0.00,,---,0.00,VWS V14.00,2013-05-26 01:52:00,
2013-05-25 20:53:00,72.7,63.2,30.07,ESE,120,2.0,3.0,72,0.00,,---,0.00,VWS V14.00,2013-05-26 01:53:00,
2013-05-25 20:54:00,72.7,63.2,30.07,ESE,120,1.0,2.0,72,0.00,,---,0.00,VWS V14.00,2013-05-26 01:54:00,
2013-05-25 20:55:00,72.7,63.2,30.07,ESE,120,2.0,3.0,72,0.00,,---,0.00,VWS V14.00,2013-05-26 01:55:00,
2013-05-25 20:56:00,72.7,63.2,30.06,ESE,120,0.0,0.0,72,0.00,,---,0.00,VWS V14.00,2013-05-26 01:56:00,
2013-05-25 20:57:00,72.7,63.2,30.06,ESE,120,0.0,3.0,72,0.00,,---,0.00,VWS V14.00,2013-05-26 01:57:00,
2013-05-25 20:58:00,72.5,63.0,30.06,ESE,120,0.0,0.0,72,0.00,,---,0.00,VWS V14.00,2013-05-26 01:58:00,
2013-05-25 20:59:00,72.5,63.0,30.07,ESE,120,0.0,3.0,72,0.00,,---,0.00,VWS V14.00,2013-05-26 01:59:00,
2013-05-25 21:00:00,72.5,63.0,30.06,ESE,120,0.0,0.0,72,0.00,,---,0.00,VWS V14.00,2013-05-26 02:00:00,
2013-05-25 21:01:00,72.5,63.0,30.06,ESE,120,0.0,0.0,72,0.00,,---,0.00,VWS V14.00,2013-05-26 02:01:00,
2013-05-25 21:02:00,72.5,63.0,30.06,ESE,123,3.0,6.0,72,0.00,,---,0.00,VWS V14.00,2013-05-26 02:02:00,
2013-05-25 21:03:00,72.5,63.0,30.06,ESE,123,0.0,3.0,72,0.00,,---,0.00,VWS V14.00,2013-05-26 02:03:00,
2013-05-25 21:04:00,72.5,63.0,30.06,ESE,123,0.0,0.0,72,0.00,,---,0.00,VWS V14.00,2013-05-26 02:04:00,
2013-05-25 21:05:00,72.5,63.0,30.06,ESE,123,0.0,3.0,72,0.00,,---,0.00,VWS V14.00,2013-05-26 02:05:00,
2013-05-25 21:06:00,72.5,63.0,30.06,ESE,123,0.0,0.0,72,0.00,,---,0.00,VWS V14.00,2013-05-26 02:06:00,
2013-05-25 21:07:00,72.3,62.8,30.06,ESE,123,0.0,0.0,72,0.00,,---,0.00,VWS V14.00,2013-05-26 02:07:00,
2013-05-25 21:08:00,72.3,62.8,30.06,ESE,123,0.0,0.0,72,0.00,,---,0.00,VWS V14.00,2013-05-26 02:08:00,
2013-05-25 21:09:00,72.3,62.8,30.06,ESE,123,0.0,0.0,72,0.00,,---,0.00,VWS V14.00,2013-05-26 02:09:00,
2013-05-25 21:10:00,72.3,62.8,30.06,ESE,123,0.0,0.0,72,0.00,,---,0.00,VWS V14.00,2013-05-26 02:10:00,
2013-05-25 21:11:00,72.3,62.8,30.06,ESE,123,0.0,0.0,72,0.00,,---,0.00,VWS V14.00,2013-05-26 02:11:00,
2013-05-25 21:12:00,72.3,63.2,30.06,ESE,123,0.0,0.0,73,0.00,,---,0.00,VWS V14.00,2013-05-26 02:12:00,
2013-05-25 21:13:00,72.3,62.8,30.06,ESE,123,0.0,0.0,72,0.00,,---,0.00,VWS V14.00,2013-05-26 02:13:00,
2013-05-25 21:14:00,72.3,62.8,30.06,ESE,123,3.0,3.0,72,0.00,,---,0.00,VWS V14.00,2013-05-26 02:14:00,
2013-05-25 21:15:00,72.3,62.8,30.06,ESE,123,0.0,0.0,72,0.00,,---,0.00,VWS V14.00,2013-05-26 02:15:00,
2013-05-25 21:16:00,72.3,62.8,30.06,ESE,123,3.0,3.0,72,0.00,,---,0.00,VWS V14.00,2013-05-26 02:16:00,
2013-05-25 21:17:00,72.3,62.8,30.06,ESE,123,1.0,3.0,72,0.00,,---,0.00,VWS V14.00,2013-05-26 02:17:00,
2013-05-25 21:18:00,72.3,63.2,30.06,ESE,123,2.0,4.0,73,0.00,,---,0.00,VWS V14.00,2013-05-26 02:18:00,
2013-05-25 21:19:00,72.3,62.8,30.06,ESE,123,4.0,4.0,72,0.00,,---,0.00,VWS V14.00,2013-05-26 02:19:00,
2013-05-25 21:20:00,72.3,63.2,30.06,ESE,123,2.0,4.0,73,0.00,,---,0.00,VWS V14.00,2013-05-26 02:20:00,
2013-05-25 21:21:00,72.3,62.8,30.06,ESE,123,2.0,3.0,72,0.00,,---,0.00,VWS V14.00,2013-05-26 02:21:00,
2013-05-25 21:22:00,72.3,62.8,30.06,ESE,123,0.0,2.0,72,0.00,,---,0.00,VWS V14.00,2013-05-26 02:22:00,
2013-05-25 21:23:00,72.3,62.8,30.06,ESE,123,0.0,4.0,72,0.00,,---,0.00,VWS V14.00,2013-05-26 02:23:00,
2013-05-25 21:24:00,72.3,62.8,30.06,ESE,123,0.0,0.0,72,0.00,,---,0.00,VWS V14.00,2013-05-26 02:24:00,
2013-05-25 21:25:00,72.3,62.8,30.06,ESE,123,0.0,4.0,72,0.00,,---,0.00,VWS V14.00,2013-05-26 02:25:00,
2013-05-25 21:26:00,72.3,63.2,30.06,ESE,123,0.0,1.0,73,0.00,,---,0.00,VWS V14.00,2013-05-26 02:26:00,
2013-05-25 21:27:00,72.3,63.2,30.06,ESE,123,0.0,0.0,73,0.00,,---,0.00,VWS V14.00,2013-05-26 02:27:00,
2013-05-25 21:28:00,72.1,63.0,30.07,ESE,123,0.0,0.0,73,0.00,,---,0.00,VWS V14.00,2013-05-26 02:28:00,
2013-05-25 21:29:00,72.1,63.0,30.07,ESE,123,0.0,0.0,73,0.00,,---,0.00,VWS V14.00,2013-05-26 02:29:00,
2013-05-25 21:30:00,72.1,63.0,30.06,ESE,123,0.0,0.0,73,0.00,,---,0.00,VWS V14.00,2013-05-26 02:30:00,
2013-05-25 21:31:00,72.0,62.9,30.07,ESE,123,0.0,0.0,73,0.00,,---,0.00,VWS V14.00,2013-05-26 02:31:00,
2013-05-25 21:32:00,72.0,62.9,30.07,ESE,123,0.0,0.0,73,0.00,,---,0.00,VWS V14.00,2013-05-26 02:32:00,
2013-05-25 21:33:00,71.8,63.1,30.07,ESE,123,0.0,0.0,74,0.00,,---,0.00,VWS V14.00,2013-05-26 02:33:00,
2013-05-25 21:34:00,71.8,63.1,30.07,ESE,123,0.0,0.0,74,0.00,,---,0.00,VWS V14.00,2013-05-26 02:34:00,
2013-05-25 21:35:00,71.8,63.1,30.07,ESE,123,0.0,0.0,74,0.00,,---,0.00,VWS V14.00,2013-05-26 02:35:00,
2013-05-25 21:36:00,71.5,62.8,30.07,ESE,123,0.0,0.0,74,0.00,,---,0.00,VWS V14.00,2013-05-26 02:36:00,
2013-05-25 21:37:00,71.5,62.8,30.08,ESE,123,0.0,0.0,74,0.00,,---,0.00,VWS V14.00,2013-05-26 02:37:00,
2013-05-25 21:38:00,71.3,62.6,30.08,ESE,123,0.0,0.0,74,0.00,,---,0.00,VWS V14.00,2013-05-26 02:38:00,
2013-05-25 21:39:00,71.1,62.4,30.08,ESE,123,0.0,0.0,74,0.00,,---,0.00,VWS V14.00,2013-05-26 02:39:00,
2013-05-25 21:40:00,71.3,62.6,30.08,ESE,123,0.0,0.0,74,0.00,,---,0.00,VWS V14.00,2013-05-26 02:40:00,
2013-05-25 21:41:00,70.9,62.6,30.08,ESE,123,0.0,0.0,75,0.00,,---,0.00,VWS V14.00,2013-05-26 02:41:00,
2013-05-25 21:42:00,70.9,62.6,30.08,ESE,123,0.0,0.0,75,0.00,,---,0.00,VWS V14.00,2013-05-26 02:42:00,
2013-05-25 21:43:00,70.9,62.6,30.08,ESE,123,0.0,0.0,75,0.00,,---,0.00,VWS V14.00,2013-05-26 02:43:00,
2013-05-25 21:44:00,70.8,62.5,30.08,ESE,123,0.0,0.0,75,0.00,,---,0.00,VWS V14.00,2013-05-26 02:44:00,
2013-05-25 21:45:00,70.9,62.6,30.08,ESE,123,0.0,0.0,75,0.00,,---,0.00,VWS V14.00,2013-05-26 02:45:00,
2013-05-25 21:46:00,70.6,62.7,30.08,ESE,123,0.0,0.0,76,0.00,,---,0.00,VWS V14.00,2013-05-26 02:46:00,
2013-05-25 21:47:00,70.6,62.7,30.08,ESE,123,0.0,0.0,76,0.00,,---,0.00,VWS V14.00,2013-05-26 02:47:00,
2013-05-25 21:48:00,70.4,62.5,30.08,ESE,123,0.0,0.0,76,0.00,,---,0.00,VWS V14.00,2013-05-26 02:48:00,
2013-05-25 21:49:00,70.4,62.8,30.08,ESE,123,0.0,0.0,77,0.00,,---,0.00,VWS V14.00,2013-05-26 02:49:00,
2013-05-25 21:50:00,70.4,62.5,30.08,ESE,123,0.0,0.0,76,0.00,,---,0.00,VWS V14.00,2013-05-26 02:50:00,
2013-05-25 21:51:00,70.3,62.8,30.08,ESE,123,0.0,0.0,77,0.00,,---,0.00,VWS V14.00,2013-05-26 02:51:00,
2013-05-25 21:52:00,70.3,62.8,30.08,ESE,123,0.0,0.0,77,0.00,,---,0.00,VWS V14.00,2013-05-26 02:52:00,
2013-05-25 21:53:00,70.1,62.6,30.08,ESE,123,0.0,0.0,77,0.00,,---,0.00,VWS V14.00,2013-05-26 02:53:00,
2013-05-25 21:54:00,70.1,62.6,30.08,ESE,123,0.0,0.0,77,0.00,,---,0.00,VWS V14.00,2013-05-26 02:54:00,
2013-05-25 21:55:00,70.1,62.6,30.08,ESE,123,0.0,0.0,77,0.00,,---,0.00,VWS V14.00,2013-05-26 02:55:00,
2013-05-25 21:56:00,69.9,62.4,30.08,ESE,123,0.0,0.0,77,0.00,,---,0.00,VWS V14.00,2013-05-26 02:56:00,
2013-05-25 21:57:00,69.8,62.3,30.08,ESE,123,0.0,0.0,77,0.00,,---,0.00,VWS V14.00,2013-05-26 02:57:00,
2013-05-25 21:58:00,69.8,62.6,30.09,ESE,123,0.0,0.0,78,0.00,,---,0.00,VWS V14.00,2013-05-26 02:58:00,
2013-05-25 21:59:00,69.8,62.6,30.09,ESE,123,0.0,0.0,78,0.00,,---,0.00,VWS V14.00,2013-05-26 02:59:00,
2013-05-25 22:00:00,69.8,62.6,30.08,ESE,123,0.0,0.0,78,0.00,,---,0.00,VWS V14.00,2013-05-26 03:00:00,
2013-05-25 22:01:00,69.6,62.4,30.08,ESE,123,0.0,0.0,78,0.00,,---,0.00,VWS V14.00,2013-05-26 03:01:00,
2013-05-25 22:02:00,69.6,62.4,30.08,ESE,123,0.0,0.0,78,0.00,,---,0.00,VWS V14.00,2013-05-26 03:02:00,
2013-05-25 22:03:00,69.4,62.2,30.08,ESE,123,0.0,0.0,78,0.00,,---,0.00,VWS V14.00,2013-05-26 03:03:00,
2013-05-25 22:04:00,69.4,62.2,30.08,ESE,123,0.0,0.0,78,0.00,,---,0.00,VWS V14.00,2013-05-26 03:04:00,
2013-05-25 22:05:00,69.4,62.2,30.08,ESE,123,0.0,0.0,78,0.00,,---,0.00,VWS V14.00,2013-05-26 03:05:00,
2013-05-25 22:06:00,69.3,62.2,30.09,ESE,123,0.0,0.0,78,0.00,,---,0.00,VWS V14.00,2013-05-26 03:06:00,
2013-05-25 22:07:00,69.1,62.3,30.09,ESE,123,0.0,0.0,79,0.00,,---,0.00,VWS V14.00,2013-05-26 03:07:00,
2013-05-25 22:08:00,69.1,62.3,30.09,ESE,123,0.0,0.0,79,0.00,,---,0.00,VWS V14.00,2013-05-26 03:08:00,
2013-05-25 22:09:00,69.1,62.3,30.09,ESE,123,0.0,0.0,79,0.00,,---,0.00,VWS V14.00,2013-05-26 03:09:00,
2013-05-25 22:10:00,69.1,62.3,30.09,ESE,123,0.0,0.0,79,0.00,,---,0.00,VWS V14.00,2013-05-26 03:10:00,
2013-05-25 22:11:00,68.9,62.1,30.09,ESE,123,0.0,0.0,79,0.00,,---,0.00,VWS V14.00,2013-05-26 03:11:00,
2013-05-25 22:12:00,68.9,62.1,30.09,ESE,123,0.0,0.0,79,0.00,,---,0.00,VWS V14.00,2013-05-26 03:12:00,
2013-05-25 22:13:00,68.9,62.1,30.09,ESE,123,0.0,0.0,79,0.00,,---,0.00,VWS V14.00,2013-05-26 03:13:00,
2013-05-25 22:14:00,68.9,62.1,30.09,ESE,123,0.0,0.0,79,0.00,,---,0.00,VWS V14.00,2013-05-26 03:14:00,
2013-05-25 22:15:00,68.9,62.1,30.09,ESE,123,0.0,0.0,79,0.00,,---,0.00,VWS V14.00,2013-05-26 03:15:00,
2013-05-25 22:16:00,68.8,62.0,30.09,ESE,123,0.0,0.0,79,0.00,,---,0.00,VWS V14.00,2013-05-26 03:16:00,
2013-05-25 22:17:00,68.9,62.1,30.08,ESE,123,0.0,0.0,79,0.00,,---,0.00,VWS V14.00,2013-05-26 03:17:00,
2013-05-25 22:18:00,68.9,62.1,30.08,ESE,123,0.0,0.0,79,0.00,,---,0.00,VWS V14.00,2013-05-26 03:18:00,
2013-05-25 22:19:00,69.1,62.7,30.08,ESE,123,0.0,0.0,80,0.00,,---,0.00,VWS V14.00,2013-05-26 03:19:00,
2013-05-25 22:20:00,68.9,62.1,30.08,ESE,123,0.0,0.0,79,0.00,,---,0.00,VWS V14.00,2013-05-26 03:20:00,
2013-05-25 22:21:00,69.3,62.5,30.08,ESE,123,0.0,3.0,79,0.00,,---,0.00,VWS V14.00,2013-05-26 03:21:00,
2013-05-25 22:22:00,69.4,62.6,30.08,ESE,123,0.0,3.0,79,0.00,,---,0.00,VWS V14.00,2013-05-26 03:22:00,
2013-05-25 22:23:00,69.6,62.8,30.08,ESE,123,0.0,0.0,79,0.00,,---,0.00,VWS V14.00,2013-05-26 03:23:00,
2013-05-25 22:24:00,69.6,62.4,30.08,ESE,123,0.0,0.0,78,0.00,,---,0.00,VWS V14.00,2013-05-26 03:24:00,
2013-05-25 22:25:00,69.4,62.6,30.08,ESE,123,0.0,0.0,79,0.00,,---,0.00,VWS V14.00,2013-05-26 03:25:00,
2013-05-25 22:26:00,69.8,63.0,30.08,ESE,123,2.0,2.0,79,0.00,,---,0.00,VWS V14.00,2013-05-26 03:26:00,
2013-05-25 22:27:00,69.8,62.6,30.09,ESE,123,0.0,2.0,78,0.00,,---,0.00,VWS V14.00,2013-05-26 03:27:00,
2013-05-25 22:28:00,69.8,62.6,30.09,ESE,123,0.0,2.0,78,0.00,,---,0.00,VWS V14.00,2013-05-26 03:28:00,
2013-05-25 22:29:00,69.9,62.7,30.09,ESE,123,0.0,0.0,78,0.00,,---,0.00,VWS V14.00,2013-05-26 03:29:00,
2013-05-25 22:30:00,69.8,62.6,30.09,ESE,123,0.0,2.0,78,0.00,,---,0.00,VWS V14.00,2013-05-26 03:30:00,
2013-05-25 22:31:00,70.1,62.6,30.08,ESE,123,1.0,2.0,77,0.00,,---,0.00,VWS V14.00,2013-05-26 03:31:00,
2013-05-25 22:32:00,70.1,62.6,30.08,ESE,123,0.0,2.0,77,0.00,,---,0.00,VWS V14.00,2013-05-26 03:32:00,
2013-05-25 22:33:00,70.1,62.6,30.08,ESE,123,2.0,3.0,77,0.00,,---,0.00,VWS V14.00,2013-05-26 03:33:00,
2013-05-25 22:34:00,70.3,62.4,30.08,SE,133,4.0,7.0,76,0.00,,---,0.00,VWS V14.00,2013-05-26 03:34:00,
2013-05-25 22:35:00,70.1,62.6,30.08,ESE,123,2.0,3.0,77,0.00,,---,0.00,VWS V14.00,2013-05-26 03:35:00,
2013-05-25 22:36:00,70.4,62.5,30.08,SE,133,0.0,2.0,76,0.00,,---,0.00,VWS V14.00,2013-05-26 03:36:00,
2013-05-25 22:37:00,70.4,62.5,30.09,SE,133,0.0,0.0,76,0.00,,---,0.00,VWS V14.00,2013-05-26 03:37:00,
2013-05-25 22:38:00,70.4,62.5,30.09,SE,134,4.0,5.0,76,0.00,,---,0.00,VWS V14.00,2013-05-26 03:38:00,
2013-05-25 22:39:00,70.6,62.3,30.09,SE,134,4.0,5.0,75,0.00,,---,0.00,VWS V14.00,2013-05-26 03:39:00,
2013-05-25 22:40:00,70.4,62.5,30.09,SE,134,4.0,4.0,76,0.00,,---,0.00,VWS V14.00,2013-05-26 03:40:00,
2013-05-25 22:41:00,70.8,62.5,30.09,SE,134,0.0,4.0,75,0.00,,---,0.00,VWS V14.00,2013-05-26 03:41:00,
2013-05-25 22:42:00,70.8,62.5,30.09,SE,134,0.0,1.0,75,0.00,,---,0.00,VWS V14.00,2013-05-26 03:42:00,
2013-05-25 22:43:00,70.8,62.5,30.09,SE,135,5.0,5.0,75,0.00,,---,0.00,VWS V14.00,2013-05-26 03:43:00,
2013-05-25 22:44:00,70.8,62.5,30.09,SE,136,2.0,5.0,75,0.00,,---,0.00,VWS V14.00,2013-05-26 03:44:00,
2013-05-25 22:45:00,70.8,62.5,30.09,SE,134,0.0,0.0,75,0.00,,---,0.00,VWS V14.00,2013-05-26 03:45:00,
2013-05-25 22:46:00,70.8,62.5,30.09,SE,136,0.0,1.0,75,0.00,,---,0.00,VWS V14.00,2013-05-26 03:46:00,
2013-05-25 22:47:00,70.8,62.5,30.09,SE,136,0.0,0.0,75,0.00,,---,0.00,VWS V14.00,2013-05-26 03:47:00,
2013-05-25 22:48:00,70.8,62.5,30.09,SE,136,1.0,5.0,75,0.00,,---,0.00,VWS V14.00,2013-05-26 03:48:00,
2013-05-25 22:49:00,70.8,62.1,30.09,SE,136,2.0,4.0,74,0.00,,---,0.00,VWS V14.00,2013-05-26 03:49:00,
2013-05-25 22:50:00,70.8,62.5,30.09,SE,136,3.0,5.0,75,0.00,,---,0.00,VWS V14.00,2013-05-26 03:50:00,
2013-05-25 22:51:00,70.8,62.1,30.09,SE,136,2.0,3.0,74,0.00,,---,0.00,VWS V14.00,2013-05-26 03:51:00,
2013-05-25 22:52:00,70.8,62.1,30.09,SE,136,2.0,3.0,74,0.00,,---,0.00,VWS V14.00,2013-05-26 03:52:00,
2013-05-25 22:53:00,70.8,62.1,30.09,SE,136,0.0,4.0,74,0.00,,---,0.00,VWS V14.00,2013-05-26 03:53:00,
2013-05-25 22:54:00,70.8,62.1,30.09,SE,136,0.0,2.0,74,0.00,,---,0.00,VWS V14.00,2013-05-26 03:54:00,
2013-05-25 22:55:00,70.8,62.1,30.09,SE,136,2.0,4.0,74,0.00,,---,0.00,VWS V14.00,2013-05-26 03:55:00,
2013-05-25 22:56:00,70.8,62.1,30.09,SE,136,0.0,2.0,74,0.00,,---,0.00,VWS V14.00,2013-05-26 03:56:00,
2013-05-25 22:57:00,70.8,62.1,30.09,SE,136,0.0,6.0,74,0.00,,---,0.00,VWS V14.00,2013-05-26 03:57:00,
2013-05-25 22:58:00,70.6,61.9,30.09,SE,136,0.0,0.0,74,0.00,,---,0.00,VWS V14.00,2013-05-26 03:58:00,
2013-05-25 22:59:00,70.6,61.9,30.09,SE,136,4.0,4.0,74,0.00,,---,0.00,VWS V14.00,2013-05-26 03:59:00,
2013-05-25 23:00:00,70.6,61.9,30.09,SE,136,0.0,0.0,74,0.00,,---,0.00,VWS V14.00,2013-05-26 04:00:00,
2013-05-25 23:01:00,70.6,61.9,30.09,SE,136,4.0,4.0,74,0.00,,---,0.00,VWS V14.00,2013-05-26 04:01:00,
2013-05-25 23:02:00,70.6,61.9,30.09,SE,137,1.0,4.0,74,0.00,,---,0.00,VWS V14.00,2013-05-26 04:02:00,
2013-05-25 23:03:00,70.6,61.9,30.09,SE,137,0.0,3.0,74,0.00,,---,0.00,VWS V14.00,2013-05-26 04:03:00,
2013-05-25 23:04:00,70.6,61.9,30.09,SE,137,1.0,1.0,74,0.00,,---,0.00,VWS V14.00,2013-05-26 04:04:00,
2013-05-25 23:05:00,70.6,61.9,30.09,SE,137,0.0,1.0,74,0.00,,---,0.00,VWS V14.00,2013-05-26 04:05:00,
2013-05-25 23:06:00,70.6,61.9,30.09,SE,137,1.0,1.0,74,0.00,,---,0.00,VWS V14.00,2013-05-26 04:06:00,
2013-05-25 23:07:00,70.4,61.7,30.09,SE,137,0.0,0.0,74,0.00,,---,0.00,VWS V14.00,2013-05-26 04:07:00,
2013-05-25 23:08:00,70.4,61.7,30.09,SE,137,0.0,0.0,74,0.00,,---,0.00,VWS V14.00,2013-05-26 04:08:00,
2013-05-25 23:09:00,70.4,61.7,30.09,SE,137,0.0,0.0,74,0.00,,---,0.00,VWS V14.00,2013-05-26 04:09:00,
2013-05-25 23:10:00,70.4,61.7,30.09,SE,137,0.0,1.0,74,0.00,,---,0.00,VWS V14.00,2013-05-26 04:10:00,
2013-05-25 23:11:00,70.4,61.7,30.09,SE,137,1.0,1.0,74,0.00,,---,0.00,VWS V14.00,2013-05-26 04:11:00,
2013-05-25 23:12:00,70.3,61.6,30.09,SE,137,0.0,2.0,74,0.00,,---,0.00,VWS V14.00,2013-05-26 04:12:00,
2013-05-25 23:13:00,70.3,61.6,30.10,SE,137,0.0,2.0,74,0.00,,---,0.00,VWS V14.00,2013-05-26 04:13:00,
2013-05-25 23:14:00,70.3,61.6,30.10,SE,137,2.0,5.0,74,0.00,,---,0.00,VWS V14.00,2013-05-26 04:14:00,
2013-05-25 23:15:00,70.3,61.6,30.10,SE,137,0.0,3.0,74,0.00,,---,0.00,VWS V14.00,2013-05-26 04:15:00,
2013-05-25 23:16:00,70.3,61.6,30.10,SE,137,3.0,3.0,74,0.00,,---,0.00,VWS V14.00,2013-05-26 04:16:00,
2013-05-25 23:17:00,70.3,61.6,30.10,SE,137,0.0,0.0,74,0.00,,---,0.00,VWS V14.00,2013-05-26 04:17:00,
2013-05-25 23:18:00,70.3,62.0,30.10,SE,137,0.0,0.0,75,0.00,,---,0.00,VWS V14.00,2013-05-26 04:18:00,
2013-05-25 23:19:00,70.1,61.8,30.10,SE,137,0.0,1.0,75,0.00,,---,0.00,VWS V14.00,2013-05-26 04:19:00,
2013-05-25 23:20:00,70.1,61.8,30.10,SE,137,0.0,0.0,75,0.00,,---,0.00,VWS V14.00,2013-05-26 04:20:00,
2013-05-25 23:21:00,70.1,61.8,30.10,SE,137,0.0,0.0,75,0.00,,---,0.00,VWS V14.00,2013-05-26 04:21:00,
2013-05-25 23:22:00,70.1,61.8,30.10,SE,137,0.0,3.0,75,0.00,,---,0.00,VWS V14.00,2013-05-26 04:22:00,
2013-05-25 23:23:00,70.1,61.8,30.10,SE,137,0.0,1.0,75,0.00,,---,0.00,VWS V14.00,2013-05-26 04:23:00,
2013-05-25 23:24:00,69.9,61.6,30.10,SE,137,0.0,1.0,75,0.00,,---,0.00,VWS V14.00,2013-05-26 04:24:00,
2013-05-25 23:25:00,69.9,61.6,30.10,SE,137,0.0,1.0,75,0.00,,---,0.00,VWS V14.00,2013-05-26 04:25:00,
2013-05-25 23:26:00,69.9,61.6,30.10,SE,137,0.0,0.0,75,0.00,,---,0.00,VWS V14.00,2013-05-26 04:26:00,
2013-05-25 23:27:00,69.9,61.6,30.10,SE,137,0.0,0.0,75,0.00,,---,0.00,VWS V14.00,2013-05-26 04:27:00,
2013-05-25 23:28:00,69.8,61.5,30.10,SE,137,0.0,1.0,75,0.00,,---,0.00,VWS V14.00,2013-05-26 04:28:00,
2013-05-25 23:29:00,69.8,61.5,30.10,SE,137,0.0,0.0,75,0.00,,---,0.00,VWS V14.00,2013-05-26 04:29:00,
2013-05-25 23:30:00,69.8,61.5,30.10,SE,137,0.0,1.0,75,0.00,,---,0.00,VWS V14.00,2013-05-26 04:30:00,
2013-05-25 23:31:00,69.8,61.5,30.10,SE,137,0.0,0.0,75,0.00,,---,0.00,VWS V14.00,2013-05-26 04:31:00,
2013-05-25 23:32:00,69.8,61.5,30.10,SE,137,0.0,0.0,75,0.00,,---,0.00,VWS V14.00,2013-05-26 04:32:00,
2013-05-25 23:33:00,69.8,61.5,30.10,SE,137,0.0,0.0,75,0.00,,---,0.00,VWS V14.00,2013-05-26 04:33:00,
2013-05-25 23:34:00,69.8,61.5,30.11,SE,137,0.0,0.0,75,0.00,,---,0.00,VWS V14.00,2013-05-26 04:34:00,
2013-05-25 23:35:00,69.6,61.3,30.10,SE,137,0.0,4.0,75,0.00,,---,0.00,VWS V14.00,2013-05-26 04:35:00,
2013-05-25 23:36:00,69.8,61.5,30.11,SE,137,0.0,0.0,75,0.00,,---,0.00,VWS V14.00,2013-05-26 04:36:00,
2013-05-25 23:37:00,69.6,61.3,30.10,SE,137,0.0,1.0,75,0.00,,---,0.00,VWS V14.00,2013-05-26 04:37:00,
2013-05-25 23:38:00,69.6,61.3,30.10,SE,137,0.0,0.0,75,0.00,,---,0.00,VWS V14.00,2013-05-26 04:38:00,
2013-05-25 23:39:00,69.6,61.3,30.10,SE,137,0.0,0.0,75,0.00,,---,0.00,VWS V14.00,2013-05-26 04:39:00,
2013-05-25 23:40:00,69.6,61.3,30.10,SE,137,0.0,0.0,75,0.00,,---,0.00,VWS V14.00,2013-05-26 04:40:00,
2013-05-25 23:41:00,69.6,61.3,30.10,SE,137,0.0,0.0,75,0.00,,---,0.00,VWS V14.00,2013-05-26 04:41:00,
2013-05-25 23:42:00,69.6,61.3,30.10,SE,137,0.0,0.0,75,0.00,,---,0.00,VWS V14.00,2013-05-26 04:42:00,
2013-05-25 23:43:00,69.6,61.3,30.10,SE,137,0.0,0.0,75,0.00,,---,0.00,VWS V14.00,2013-05-26 04:43:00,
2013-05-25 23:44:00,69.6,61.3,30.10,SE,137,0.0,0.0,75,0.00,,---,0.00,VWS V14.00,2013-05-26 04:44:00,
2013-05-25 23:45:00,69.6,61.3,30.10,SE,137,0.0,0.0,75,0.00,,---,0.00,VWS V14.00,2013-05-26 04:45:00,
2013-05-25 23:46:00,69.6,61.3,30.10,SE,137,0.0,0.0,75,0.00,,---,0.00,VWS V14.00,2013-05-26 04:46:00,
2013-05-25 23:47:00,69.4,61.5,30.11,SE,137,0.0,0.0,76,0.00,,---,0.00,VWS V14.00,2013-05-26 04:47:00,
2013-05-25 23:48:00,69.4,61.5,30.11,SE,137,0.0,0.0,76,0.00,,---,0.00,VWS V14.00,2013-05-26 04:48:00,
2013-05-25 23:49:00,69.4,61.5,30.11,SE,137,0.0,0.0,76,0.00,,---,0.00,VWS V14.00,2013-05-26 04:49:00,
2013-05-25 23:50:00,69.4,61.5,30.11,SE,137,0.0,0.0,76,0.00,,---,0.00,VWS V14.00,2013-05-26 04:50:00,
2013-05-25 23:51:00,69.4,61.5,30.11,SE,137,0.0,0.0,76,0.00,,---,0.00,VWS V14.00,2013-05-26 04:51:00,
2013-05-25 23:52:00,69.3,61.8,30.11,SE,137,0.0,0.0,77,0.00,,---,0.00,VWS V14.00,2013-05-26 04:52:00,
2013-05-25 23:53:00,69.3,61.8,30.11,SE,137,0.0,0.0,77,0.00,,---,0.00,VWS V14.00,2013-05-26 04:53:00,
2013-05-25 23:54:00,69.1,61.6,30.11,SE,137,0.0,0.0,77,0.00,,---,0.00,VWS V14.00,2013-05-26 04:54:00,
2013-05-25 23:55:00,69.1,61.6,30.11,SE,137,0.0,0.0,77,0.00,,---,0.00,VWS V14.00,2013-05-26 04:55:00,
2013-05-25 23:56:00,69.1,61.6,30.11,SE,137,0.0,0.0,77,0.00,,---,0.00,VWS V14.00,2013-05-26 04:56:00,
2013-05-25 23:57:00,68.8,61.3,30.11,SE,137,0.0,0.0,77,0.00,,---,0.00,VWS V14.00,2013-05-26 04:57:00,
2013-05-25 23:58:00,68.8,61.3,30.11,SE,137,0.0,0.0,77,0.00,,---,0.00,VWS V14.00,2013-05-26 04:58:00,
2013-05-25 23:59:00,68.6,61.1,30.11,SE,137,0.0,0.0,77,0.00,,---,0.00,VWS V14.00,2013-05-26 04:59:00,